[[{"header":{"parameterUnit":"m.s-1","parameterCategory":1,"la1":30.6,"la2":29.2853,"lo1":-89.7004,"lo2":-87.6739,"dy":0.0162,"dx":0.0183,"nx":112,"ny":82,"refTime":"2024-06-17T18:00:00:Z","depth":0,"parameterNumber":2,"parameterNumberName":"U-component_of_WINDS"},"data":[0.0,0.0,0.0,0.0,0.0,0.0,0.0,0.0,0.0,0.0,0.0,0.0,0.0,0.0,0.0,0.0,0.0,0.0,0.0,0.0,0.0,0.0,0.0,0.0,0.0,0.0,0.0,0.0,0.0,0.0,0.0,0.0,0.0,0.0,0.0,0.0,0.0,0.0,0.0,0.0,0.0,0.0,0.0,0.0,0.0,0.0,0.0,0.0,0.0,0.0,0.0,0.0,0.0,0.0,0.0,0.0,0.0,0.0,0.0,0.0,0.0,0.0,0.0,0.0,0.0,0.0,0.0,0.0,0.0,0.0,0.0,0.0,0.0,0.0,0.0,0.0,0.0,0.0,0.0,0.0,0.0,0.0,0.0,0.0,0.0,0.0,0.0,0.0,0.0,0.0,-2.9566,-3.0742,-2.8304,-2.656,-2.6487,-2.6005,-2.6925,-2.9769,0.0,0.0,0.0,0.0,0.0,0.0,0.0,0.0,0.0,0.0,0.0,0.0,0.0,0.0,0.0,0.0,0.0,0.0,0.0,0.0,0.0,0.0,0.0,0.0,0.0,0.0,0.0,0.0,0.0,0.0,0.0,0.0,0.0,0.0,0.0,0.0,0.0,0.0,0.0,0.0,0.0,0.0,0.0,0.0,0.0,0.0,0.0,0.0,0.0,0.0,0.0,0.0,0.0,0.0,0.0,0.0,0.0,0.0,0.0,0.0,0.0,0.0,0.0,0.0,0.0,0.0,0.0,0.0,0.0,0.0,0.0,0.0,0.0,0.0,0.0,0.0,0.0,0.0,0.0,0.0,0.0,0.0,0.0,0.0,0.0,0.0,0.0,0.0,0.0,0.0,0.0,0.0,0.0,0.0,0.0,0.0,0.0,0.0,0.0,0.0,0.0,0.0,0.0,0.0,-2.7378,-2.6773,-2.6643,-2.6415,-2.5957,-2.562,-2.6659,-2.949,0.0,0.0,0.0,0.0,0.0,0.0,0.0,0.0,0.0,0.0,0.0,0.0,0.0,0.0,0.0,0.0,0.0,0.0,0.0,0.0,0.0,0.0,0.0,0.0,0.0,0.0,0.0,0.0,0.0,0.0,0.0,0.0,0.0,0.0,0.0,0.0,0.0,0.0,0.0,0.0,0.0,0.0,0.0,0.0,0.0,0.0,0.0,0.0,0.0,0.0,0.0,0.0,0.0,0.0,0.0,0.0,0.0,0.0,0.0,0.0,0.0,0.0,0.0,0.0,0.0,0.0,0.0,0.0,0.0,0.0,0.0,0.0,0.0,0.0,0.0,0.0,0.0,0.0,0.0,0.0,0.0,0.0,0.0,0.0,0.0,0.0,0.0,0.0,0.0,0.0,0.0,0.0,0.0,0.0,0.0,0.0,0.0,0.0,0.0,0.0,0.0,0.0,0.0,-2.8967,-2.8063,-2.6433,-2.6439,-2.6487,-2.6246,-2.5596,-2.6504,-2.963,-2.8732,0.0,0.0,0.0,0.0,0.0,0.0,0.0,0.0,0.0,0.0,0.0,0.0,0.0,0.0,0.0,0.0,0.0,0.0,0.0,0.0,0.0,0.0,0.0,0.0,0.0,0.0,0.0,0.0,0.0,0.0,0.0,0.0,0.0,0.0,0.0,0.0,0.0,0.0,0.0,0.0,0.0,0.0,0.0,0.0,0.0,0.0,0.0,0.0,0.0,0.0,0.0,0.0,0.0,0.0,0.0,0.0,0.0,0.0,0.0,0.0,0.0,0.0,0.0,0.0,0.0,0.0,0.0,0.0,0.0,0.0,0.0,0.0,0.0,0.0,0.0,0.0,0.0,0.0,0.0,0.0,0.0,0.0,0.0,0.0,0.0,0.0,0.0,0.0,0.0,0.0,0.0,0.0,0.0,0.0,0.0,0.0,0.0,0.0,0.0,0.0,0.0,0.0,-2.8318,-2.8346,-2.6832,-2.668,-2.6632,-2.6512,-2.5572,-2.6277,-2.9286,-2.8453,0.0,0.0,0.0,0.0,0.0,0.0,0.0,0.0,0.0,0.0,0.0,0.0,0.0,0.0,0.0,0.0,0.0,0.0,0.0,0.0,0.0,0.0,0.0,0.0,0.0,0.0,0.0,0.0,0.0,0.0,0.0,0.0,0.0,0.0,0.0,0.0,0.0,0.0,0.0,0.0,0.0,0.0,0.0,0.0,0.0,0.0,0.0,0.0,0.0,0.0,0.0,0.0,0.0,0.0,0.0,0.0,0.0,0.0,0.0,0.0,0.0,0.0,0.0,0.0,0.0,0.0,0.0,0.0,0.0,0.0,0.0,0.0,0.0,0.0,0.0,0.0,0.0,0.0,0.0,0.0,0.0,0.0,0.0,0.0,0.0,0.0,0.0,0.0,0.0,0.0,0.0,0.0,0.0,0.0,0.0,0.0,0.0,0.0,0.0,0.0,0.0,0.0,-2.5774,-2.6297,-2.6918,-2.6969,-2.6753,-2.6291,-2.5475,-2.5871,-2.7936,-2.7269,0.0,0.0,0.0,0.0,0.0,0.0,0.0,0.0,0.0,0.0,0.0,0.0,0.0,0.0,0.0,0.0,0.0,0.0,0.0,0.0,0.0,0.0,0.0,0.0,0.0,0.0,0.0,0.0,0.0,0.0,0.0,0.0,0.0,0.0,0.0,0.0,0.0,0.0,0.0,0.0,0.0,0.0,0.0,0.0,0.0,0.0,0.0,0.0,0.0,0.0,0.0,0.0,0.0,0.0,0.0,0.0,0.0,0.0,0.0,0.0,0.0,0.0,0.0,0.0,0.0,0.0,0.0,0.0,0.0,0.0,0.0,0.0,0.0,0.0,0.0,0.0,0.0,0.0,0.0,0.0,0.0,0.0,0.0,0.0,0.0,0.0,0.0,0.0,0.0,0.0,0.0,0.0,0.0,0.0,0.0,0.0,0.0,0.0,0.0,0.0,0.0,0.0,-2.5476,-2.6214,-2.6918,-2.668,-2.6391,-2.6242,-2.5306,-2.5448,-2.7044,0.0,0.0,0.0,0.0,0.0,0.0,0.0,0.0,0.0,0.0,0.0,0.0,0.0,0.0,0.0,0.0,0.0,0.0,0.0,0.0,0.0,0.0,0.0,0.0,0.0,0.0,0.0,0.0,0.0,0.0,0.0,0.0,0.0,0.0,0.0,0.0,0.0,0.0,0.0,0.0,0.0,0.0,0.0,0.0,0.0,0.0,0.0,0.0,0.0,0.0,0.0,0.0,0.0,0.0,0.0,0.0,0.0,0.0,0.0,0.0,0.0,0.0,0.0,0.0,0.0,0.0,0.0,0.0,0.0,0.0,0.0,0.0,0.0,0.0,0.0,0.0,0.0,0.0,0.0,0.0,0.0,0.0,0.0,0.0,0.0,0.0,0.0,0.0,0.0,0.0,0.0,0.0,0.0,0.0,0.0,0.0,0.0,0.0,0.0,0.0,0.0,0.0,-2.4504,-2.5464,-2.6287,-2.6942,-2.6656,-2.6411,-2.6198,-2.5252,-2.5037,-2.6096,0.0,0.0,0.0,0.0,0.0,0.0,0.0,0.0,0.0,0.0,0.0,0.0,0.0,0.0,0.0,0.0,0.0,0.0,0.0,0.0,0.0,0.0,0.0,0.0,0.0,0.0,0.0,0.0,0.0,0.0,0.0,0.0,0.0,0.0,0.0,0.0,0.0,0.0,0.0,0.0,0.0,0.0,0.0,0.0,0.0,0.0,0.0,0.0,0.0,0.0,0.0,0.0,0.0,0.0,0.0,0.0,0.0,0.0,0.0,0.0,0.0,0.0,0.0,0.0,0.0,0.0,0.0,0.0,0.0,0.0,0.0,0.0,0.0,0.0,0.0,0.0,0.0,0.0,0.0,0.0,0.0,0.0,0.0,0.0,0.0,0.0,0.0,0.0,0.0,0.0,0.0,0.0,0.0,0.0,0.0,0.0,0.0,0.0,0.0,0.0,0.0,0.0,-2.4552,-2.5566,-2.6435,-2.6921,-2.6994,-2.6753,-2.6266,-2.521,-2.4694,0.0,0.0,0.0,0.0,0.0,0.0,0.0,0.0,0.0,0.0,0.0,0.0,0.0,0.0,0.0,0.0,0.0,0.0,0.0,0.0,0.0,0.0,0.0,0.0,0.0,0.0,0.0,0.0,0.0,0.0,0.0,0.0,0.0,0.0,0.0,0.0,0.0,0.0,0.0,0.0,0.0,0.0,0.0,0.0,0.0,0.0,0.0,0.0,0.0,0.0,0.0,0.0,0.0,0.0,0.0,0.0,0.0,0.0,0.0,0.0,0.0,0.0,0.0,0.0,0.0,0.0,0.0,0.0,0.0,0.0,0.0,0.0,0.0,0.0,0.0,0.0,0.0,0.0,0.0,0.0,0.0,0.0,0.0,0.0,0.0,0.0,0.0,0.0,0.0,0.0,0.0,0.0,0.0,0.0,0.0,0.0,0.0,0.0,0.0,0.0,0.0,0.0,0.0,-2.4923,-2.5738,-2.6435,-2.6921,-2.6825,-2.656,-2.6242,-2.5379,-2.4642,-2.4181,0.0,0.0,0.0,0.0,0.0,0.0,0.0,0.0,0.0,0.0,0.0,0.0,0.0,0.0,0.0,0.0,0.0,0.0,0.0,0.0,0.0,0.0,0.0,0.0,0.0,0.0,0.0,0.0,0.0,0.0,0.0,0.0,0.0,0.0,0.0,0.0,0.0,0.0,0.0,0.0,0.0,0.0,0.0,0.0,0.0,0.0,0.0,0.0,0.0,0.0,0.0,0.0,0.0,0.0,0.0,0.0,0.0,0.0,0.0,0.0,0.0,0.0,0.0,0.0,0.0,0.0,0.0,0.0,0.0,0.0,0.0,0.0,0.0,0.0,0.0,0.0,0.0,0.0,0.0,0.0,0.0,0.0,0.0,0.0,0.0,0.0,0.0,0.0,0.0,0.0,0.0,0.0,0.0,0.0,0.0,0.0,0.0,0.0,0.0,0.0,0.0,0.0,-2.4841,-2.5695,-2.6435,-2.6921,-2.6849,-2.6632,-2.6367,-2.5716,-2.4873,-2.386,0.0,0.0,0.0,0.0,0.0,0.0,0.0,0.0,0.0,0.0,0.0,0.0,0.0,0.0,0.0,0.0,0.0,0.0,0.0,0.0,0.0,0.0,0.0,0.0,0.0,0.0,0.0,0.0,0.0,0.0,0.0,0.0,0.0,0.0,0.0,0.0,0.0,0.0,0.0,0.0,0.0,0.0,0.0,0.0,0.0,0.0,0.0,0.0,0.0,0.0,0.0,0.0,0.0,0.0,0.0,0.0,0.0,0.0,0.0,0.0,0.0,0.0,0.0,0.0,0.0,0.0,0.0,0.0,0.0,0.0,0.0,0.0,0.0,0.0,0.0,0.0,0.0,0.0,0.0,0.0,0.0,0.0,0.0,0.0,0.0,0.0,0.0,0.0,0.0,0.0,0.0,0.0,0.0,0.0,0.0,0.0,0.0,0.0,0.0,0.0,0.0,0.0,-2.4642,-2.559,-2.6415,-2.6921,-2.6994,-2.6873,-2.6608,-2.6126,-2.5258,-2.3957,0.0,0.0,0.0,0.0,0.0,0.0,0.0,0.0,0.0,0.0,0.0,0.0,0.0,0.0,0.0,0.0,0.0,0.0,0.0,0.0,0.0,0.0,0.0,0.0,0.0,0.0,0.0,0.0,0.0,0.0,0.0,0.0,0.0,0.0,0.0,0.0,0.0,0.0,0.0,0.0,0.0,0.0,0.0,0.0,0.0,0.0,0.0,0.0,0.0,0.0,0.0,0.0,0.0,0.0,0.0,0.0,0.0,0.0,0.0,0.0,-2.0876,-2.258,0.0,0.0,0.0,0.0,0.0,0.0,0.0,0.0,0.0,0.0,0.0,0.0,0.0,0.0,0.0,0.0,0.0,0.0,0.0,0.0,0.0,0.0,0.0,0.0,0.0,0.0,0.0,0.0,0.0,0.0,0.0,0.0,0.0,0.0,0.0,0.0,0.0,0.0,0.0,0.0,-2.5266,-2.6054,-2.6632,-2.6945,-2.6994,-2.6873,-2.6608,-2.6295,-2.562,-2.4487,-2.3788,0.0,0.0,0.0,0.0,0.0,0.0,0.0,0.0,0.0,0.0,0.0,0.0,0.0,0.0,0.0,0.0,0.0,0.0,0.0,0.0,0.0,0.0,0.0,0.0,0.0,0.0,0.0,0.0,0.0,0.0,0.0,0.0,0.0,0.0,0.0,0.0,0.0,0.0,0.0,0.0,0.0,0.0,0.0,0.0,0.0,0.0,0.0,0.0,0.0,0.0,0.0,0.0,0.0,0.0,0.0,0.0,0.0,0.0,0.0,-2.0248,-2.0806,0.0,0.0,0.0,0.0,0.0,0.0,0.0,0.0,0.0,0.0,0.0,0.0,0.0,0.0,0.0,0.0,0.0,0.0,0.0,0.0,0.0,0.0,0.0,0.0,0.0,0.0,0.0,0.0,0.0,0.0,0.0,0.0,0.0,0.0,0.0,0.0,0.0,0.0,0.0,0.0,-2.5238,-2.6185,-2.6825,-2.6969,-2.709,-2.7066,-2.6801,-2.6536,-2.5981,-2.5041,-2.4342,0.0,0.0,0.0,0.0,0.0,0.0,0.0,0.0,0.0,0.0,0.0,0.0,0.0,0.0,0.0,0.0,0.0,0.0,0.0,0.0,0.0,0.0,0.0,0.0,0.0,0.0,0.0,0.0,0.0,0.0,0.0,0.0,0.0,0.0,0.0,0.0,0.0,0.0,0.0,0.0,0.0,0.0,0.0,0.0,0.0,0.0,0.0,0.0,0.0,0.0,0.0,0.0,0.0,-2.198,-2.1844,-2.2177,-2.1704,-2.0798,-1.95,-1.9526,-1.8646,-1.7415,-1.8986,0.0,0.0,0.0,0.0,0.0,0.0,0.0,0.0,0.0,0.0,0.0,0.0,0.0,0.0,0.0,0.0,0.0,0.0,0.0,0.0,0.0,0.0,-2.2219,0.0,-1.9509,-1.9204,-1.801,0.0,0.0,0.0,0.0,0.0,0.0,0.0,0.0,0.0,0.0,0.0,-2.5138,-2.6295,-2.7042,-2.7042,-2.728,-2.7259,-2.7018,-2.6777,-2.6343,-2.5572,-2.4969,-2.419,0.0,0.0,0.0,0.0,0.0,0.0,0.0,0.0,0.0,0.0,0.0,0.0,0.0,0.0,0.0,0.0,0.0,0.0,0.0,0.0,0.0,0.0,0.0,0.0,0.0,0.0,0.0,0.0,0.0,0.0,0.0,0.0,-2.088,-2.1111,0.0,0.0,0.0,0.0,0.0,0.0,0.0,0.0,0.0,0.0,0.0,0.0,0.0,-2.2653,-2.3081,-2.137,-2.0657,-2.0918,-1.9304,-1.8383,-1.8156,-1.8113,-1.8023,-1.7893,-1.7904,0.0,-1.815,-1.7818,0.0,0.0,0.0,0.0,0.0,0.0,0.0,0.0,0.0,0.0,0.0,0.0,0.0,0.0,0.0,0.0,0.0,0.0,0.0,0.0,0.0,0.0,-2.0927,-1.8883,-1.866,-1.8296,0.0,-1.7241,-1.869,-1.8663,-1.8686,0.0,0.0,0.0,0.0,0.0,0.0,0.0,-2.5957,-2.6822,-2.7377,-2.7377,-2.7401,-2.7259,-2.7018,-2.6945,-2.668,-2.6102,-2.5355,-2.4752,-2.4383,-2.3046,0.0,0.0,0.0,0.0,0.0,0.0,0.0,0.0,0.0,0.0,0.0,0.0,0.0,0.0,0.0,0.0,0.0,0.0,0.0,0.0,0.0,0.0,0.0,0.0,0.0,0.0,0.0,0.0,0.0,-1.7675,-1.8082,-1.8157,-1.861,-1.9006,0.0,0.0,0.0,0.0,0.0,0.0,0.0,0.0,0.0,-2.146,-2.1532,-2.1295,-2.0668,-1.9842,-1.9474,-1.9554,-1.8754,-1.8398,-1.8301,-1.8219,-1.8247,-1.8396,-1.8082,-1.8143,-1.8401,-1.8326,-1.9426,-2.1259,0.0,0.0,0.0,0.0,-2.3499,-2.3452,-2.1288,-2.0405,-2.0318,-2.018,0.0,0.0,0.0,0.0,0.0,0.0,0.0,-2.1631,0.0,0.0,-1.9804,-1.7561,-1.7147,-1.698,-1.5856,-1.6306,-1.7079,0.0,-1.8766,-2.0135,-2.1337,0.0,0.0,0.0,0.0,-2.4381,-2.472,-2.6451,-2.7594,-2.7449,-2.7425,-2.7331,-2.721,-2.7066,-2.6945,-2.6894,-2.6102,-2.5475,-2.5065,-2.4118,-2.3297,0.0,0.0,0.0,0.0,0.0,0.0,0.0,0.0,0.0,0.0,0.0,0.0,0.0,0.0,0.0,0.0,0.0,0.0,0.0,0.0,0.0,0.0,0.0,0.0,0.0,0.0,0.0,0.0,-1.5847,-1.5846,-1.5752,-1.6352,-1.6816,0.0,0.0,0.0,0.0,0.0,0.0,-2.1534,-2.1095,-2.0785,-2.078,-2.0855,-2.0371,-1.9228,-1.9133,-1.9106,-1.9106,-1.9065,-1.9106,-1.9169,-1.9106,-1.9092,-1.9074,-1.8749,-1.8599,-1.8589,-1.8567,-1.9143,-2.002,-2.0666,-2.1743,-2.2907,-2.2279,-2.2263,-2.223,-2.0107,-1.9375,-1.9297,-1.8982,-1.8928,-1.9167,-1.9898,0.0,0.0,0.0,0.0,-2.0785,-1.9121,-1.8807,-1.8483,-1.6654,-1.6252,-1.6266,-1.6062,-1.644,-1.6758,0.0,-1.8129,-1.9715,-2.0764,0.0,0.0,0.0,-2.2371,-2.2851,-2.3125,-2.5483,-2.7017,-2.6829,-2.7222,-2.7498,-2.7425,-2.7138,-2.7066,-2.7304,-2.6656,-2.6102,-2.5716,-2.5041,-2.4238,-2.3215,0.0,0.0,0.0,0.0,0.0,0.0,0.0,0.0,0.0,0.0,0.0,0.0,0.0,0.0,0.0,0.0,0.0,0.0,0.0,0.0,0.0,0.0,0.0,0.0,0.0,0.0,0.0,0.0,0.0,-1.5619,-1.7256,0.0,0.0,0.0,0.0,-1.8346,-1.8596,-1.8784,-1.872,-1.8888,-1.9369,-2.0134,-2.0011,-2.0031,-2.0241,-1.9956,-1.982,-1.982,-1.9745,-1.9691,-1.9691,-1.9691,-1.9535,-1.9353,-1.9373,-1.9128,-1.8738,-1.7854,-1.8288,-1.9458,-1.894,-2.0288,-2.2141,-1.9736,-1.9672,-2.0508,-1.8173,-1.7334,-1.7588,-1.8931,-2.0327,-2.1294,-2.0219,-2.0343,0.0,0.0,-1.9202,-1.8055,-1.7099,-1.6831,-1.6803,-1.6537,-1.6727,-1.6849,-1.6551,-1.8336,-1.9182,0.0,-1.578,-1.6397,-1.8088,0.0,-1.8819,-2.0594,-2.1132,-2.1405,-2.166,-2.3796,-2.523,-2.523,-2.6734,-2.7691,-2.7449,-2.7138,-2.6994,-2.6994,-2.6728,-2.656,-2.6536,-2.5547,-2.4824,-2.4487,-2.3336,0.0,0.0,0.0,0.0,0.0,0.0,0.0,0.0,0.0,0.0,0.0,0.0,0.0,0.0,0.0,0.0,0.0,0.0,0.0,0.0,0.0,0.0,0.0,0.0,0.0,0.0,0.0,0.0,-1.6102,-1.7175,0.0,-1.7028,-1.8046,-1.8601,-1.83,-1.8972,-1.9428,-1.954,-1.9772,-2.0124,-2.0526,-2.0471,-2.0512,-2.0607,-2.0404,-2.0295,-2.0295,-2.0254,-2.0227,-2.0227,-2.0132,-2.0064,-1.9935,-1.9698,-1.9481,-1.9351,-1.8694,-1.8486,-1.8545,-1.8264,-1.8755,-1.9533,-1.8608,-1.8622,-1.8928,-1.806,-1.7704,-1.7718,-1.8015,-1.8434,-1.87,-1.8186,-1.8159,-1.8322,-1.823,-1.7825,-1.7458,-1.7201,-1.7135,-1.7068,-1.6876,-1.6904,-1.6931,-1.6662,-1.7291,-1.7609,-1.6677,-1.7494,-1.8436,-1.884,-1.775,-1.7434,-1.9271,-1.9828,-2.0013,-1.9939,-2.1871,-2.3158,-2.3068,-2.3517,-2.3779,-2.3743,-2.3489,-2.3857,-2.5035,-2.4902,-2.5237,-2.6298,-2.5788,-2.5306,-2.4873,-2.3884,-2.32,0.0,0.0,0.0,0.0,0.0,0.0,0.0,0.0,0.0,0.0,0.0,0.0,0.0,0.0,0.0,0.0,0.0,0.0,0.0,0.0,0.0,0.0,0.0,0.0,0.0,-1.6261,-1.6982,-1.676,-1.7658,-1.8131,-1.7644,-1.8374,-1.8931,-1.8983,-1.9562,-2.0078,-2.039,-2.0594,-2.077,-2.0919,-2.0878,-2.0838,-2.0838,-2.0756,-2.0702,-2.0702,-2.0702,-2.0661,-2.0607,-2.0526,-2.0417,-2.0309,-2.001,-1.982,-1.9759,-1.9305,-1.8871,-1.845,-1.8124,-1.8138,-1.8301,-1.8192,-1.8165,-1.8165,-1.8057,-1.7921,-1.7772,-1.7623,-1.7433,-1.7256,-1.7216,-1.7175,-1.7161,-1.7311,-1.7351,-1.7365,-1.7419,-1.7446,-1.7433,-1.7188,-1.7134,-1.7107,-1.6946,-1.6849,-1.6822,-1.708,-1.8032,-1.8712,-1.8549,-1.7314,-1.6934,-1.8778,-1.8706,-1.8621,-1.9081,-2.0402,-2.117,-2.1094,-2.147,-2.1734,-2.1782,-2.2208,-2.2689,-2.3247,-2.3747,-2.4195,-2.4542,-2.492,-2.4928,-2.4461,-2.3561,-2.2545,-2.139,0.0,0.0,0.0,0.0,0.0,0.0,0.0,0.0,0.0,0.0,0.0,0.0,0.0,0.0,0.0,0.0,0.0,0.0,0.0,0.0,0.0,0.0,0.0,-1.6206,-1.6959,-1.7576,-1.7668,-1.8836,-1.9596,-1.9257,-1.9794,-2.0187,-2.0286,-2.0485,-2.0702,-2.1001,-2.1014,-2.1082,-2.1218,-2.1082,-2.1014,-2.1001,-2.1014,-2.1014,-2.1001,-2.1014,-2.0933,-2.0783,-2.0783,-2.0634,-2.0349,-2.0336,-2.0173,-1.9875,-1.9576,-1.9359,-1.9169,-1.8572,-1.8518,-1.8779,-1.845,-1.8342,-1.8287,-1.7989,-1.7785,-1.7636,-1.7826,-1.7663,-1.7473,-1.7554,-1.75,-1.746,-1.7554,-1.7595,-1.7595,-1.7595,-1.7595,-1.7568,-1.746,-1.7433,-1.7433,-1.7433,-1.7311,-1.7243,-1.7392,-1.7014,-1.677,-1.6971,-1.6863,-1.7328,-1.9245,-1.7798,0.0,-1.9086,-1.9314,-1.9308,-1.9358,-2.0902,-2.193,-2.1882,-2.351,-2.3652,-2.1621,-2.3375,-2.3508,-2.1367,-2.2892,-2.3611,-2.3187,-2.2182,-2.0485,-1.8123,0.0,0.0,0.0,0.0,0.0,0.0,0.0,0.0,0.0,0.0,0.0,0.0,0.0,0.0,0.0,0.0,0.0,0.0,0.0,0.0,0.0,-1.6659,-1.7261,-1.7378,-1.8089,-1.8672,-1.8906,-1.9475,-1.9827,-1.983,-2.034,-2.0648,-2.0811,-2.1163,-2.1353,-2.1313,-2.1421,-2.1462,-2.1328,-2.134,-2.1258,-2.1163,-2.1258,-2.1258,-2.1163,-2.1258,-2.1245,-2.1082,-2.1082,-2.0933,-2.0648,-2.0526,-2.0313,-2.0187,-1.9997,-1.9888,-1.9766,-1.8952,-1.8762,-1.8925,-1.883,-1.8749,-1.8599,-1.8301,-1.8165,-1.8124,-1.8057,-1.7962,-1.7894,-1.7826,-1.7772,-1.7758,-1.7785,-1.7812,-1.7812,-1.7812,-1.7812,-1.7772,-1.7568,-1.7527,-1.7527,-1.7527,-1.746,-1.7405,-1.75,-1.7338,-1.7243,-1.7297,-1.7175,-1.7211,-1.7667,-1.7217,0.0,-1.7272,-1.7375,-1.7843,-1.8838,-2.0018,-2.0326,-1.9456,-2.0453,-2.0548,-1.9229,-1.9577,-2.0245,-2.118,-2.135,-2.1238,-2.0856,-2.0428,-1.9875,0.0,0.0,0.0,0.0,0.0,0.0,0.0,0.0,0.0,0.0,0.0,0.0,0.0,0.0,0.0,0.0,0.0,0.0,0.0,0.0,0.0,0.0,-1.7627,-1.8226,-1.8695,-1.9018,-1.9332,-1.9705,-2.0119,-2.0404,-2.0553,-2.0865,-2.1136,-2.1353,-2.157,-2.1692,-2.172,-2.1638,-2.153,-2.1368,-2.1313,-2.1218,-2.1123,-2.1258,-2.1299,-2.1218,-2.1367,-2.1353,-2.1218,-2.1218,-2.1082,-2.0865,-2.077,-2.0689,-2.0594,-2.0376,-2.0282,-2.02,0.0,0.0,0.0,0.0,-1.8938,-1.8816,-1.845,-1.8287,-1.8219,-1.8192,-1.8111,-1.7989,-1.7962,-1.7921,-1.7922,-1.7922,-1.7922,-1.7922,-1.7922,-1.7922,-1.784,-1.7758,-1.7745,-1.7745,-1.7745,-1.7623,-1.75,-1.7704,-1.7568,0.0,-1.7595,-1.7433,-1.7551,-1.8269,-1.7625,-1.7261,-1.781,-1.7183,-1.6989,-1.7801,-1.838,-1.84,-1.7647,-1.8835,0.0,0.0,0.0,-1.8996,-2.0158,-1.9859,0.0,0.0,0.0,0.0,0.0,0.0,0.0,0.0,-1.9482,-2.0341,0.0,0.0,0.0,0.0,0.0,0.0,0.0,0.0,0.0,0.0,0.0,0.0,0.0,0.0,0.0,0.0,-1.8688,-1.9291,-1.9875,-1.9712,-1.9705,-2.0309,-2.0756,-2.1068,-2.1231,-2.1394,-2.1611,-2.1923,-2.1815,-2.1869,-2.2127,-2.1747,0.0,0.0,0.0,-2.1055,-2.1014,-2.1177,-2.1245,-2.1218,-2.1394,-2.1394,-2.1231,-2.1231,-2.1163,-2.1014,-2.1014,-2.1014,-2.0987,-2.0702,-2.0516,-2.0422,-1.9929,-1.978,-1.9807,-1.9278,-1.9061,-1.8979,-1.8545,0.0,0.0,-1.8301,-1.8138,-1.7935,-1.8057,-1.7989,-1.7922,-1.7922,-1.7922,-1.7922,-1.7922,-1.7922,-1.7922,-1.7922,-1.7922,-1.7922,-1.7936,-1.7772,-1.7663,-1.7867,-1.7772,-1.7663,-1.784,-1.7636,-1.8028,-1.9729,-1.8413,-1.7801,-1.9326,-1.7915,-1.6809,-1.7006,0.0,0.0,-1.6797,-1.8473,-1.8618,-1.6485,-1.7919,-1.8773,-1.8485,-1.8391,-1.8216,-1.8089,-1.82,-1.7338,-1.5411,-1.5588,-1.5621,-1.5731,-1.8535,-2.014,0.0,0.0,0.0,0.0,0.0,0.0,0.0,0.0,0.0,0.0,0.0,0.0,0.0,0.0,0.0,-1.8774,-1.9338,-1.9875,-2.0349,-2.03,-2.0417,-2.0661,-2.0878,-2.1109,-2.1367,-2.1638,-2.1923,-2.2235,-2.2235,-2.2235,-2.2289,-2.2099,-2.1869,-2.1638,-2.157,-2.1421,-2.1177,-2.1448,-2.1462,-2.1218,-2.1489,0.0,-2.1394,-2.1394,-2.1313,-2.1177,-2.1177,-2.1109,-2.1001,-2.0933,-2.077,-2.0449,-2.0159,-1.9956,-1.9895,-1.9664,-1.9454,-1.9305,-1.8979,-1.8843,-1.8776,-1.8572,-1.8369,-1.8219,-1.8124,-1.7989,0.0,-1.7922,-1.7922,-1.7922,-1.7922,-1.7922,-1.7922,-1.7922,-1.7922,-1.7949,-1.8016,-1.7935,-1.7867,-1.8016,-1.7935,-1.7826,-1.7867,-1.7717,-1.7663,-1.8072,-1.7703,-1.7486,-1.7808,-1.7429,-1.7574,-1.8847,-1.95,-1.9526,-1.858,-1.9615,-1.9189,-1.6599,-1.6687,-1.6729,-1.6447,-1.6532,-1.6447,-1.6166,-1.6307,-1.6057,-1.5411,-1.5683,-1.5872,-1.5995,-1.6381,-1.6647,0.0,0.0,0.0,0.0,0.0,0.0,0.0,0.0,0.0,0.0,0.0,-1.7247,-1.7955,0.0,-1.8932,-1.9832,-2.012,-2.0363,-2.0811,-2.0881,-2.0936,-2.1001,-2.1272,-2.1489,-2.1652,-2.1937,-2.2235,-2.2534,-2.2479,-2.252,-2.2669,-2.2398,-2.2127,-2.1896,-2.1815,-2.1665,-2.1448,-2.1665,-2.1706,-2.1543,-2.1706,-2.1747,-2.1652,-2.1584,-2.1516,-2.1435,-2.1353,-2.1285,-2.1218,-2.1136,-2.0987,-2.0756,-2.0526,-2.0254,-1.9956,-1.9752,-1.9664,-1.9508,-1.9196,-1.9047,-1.8979,-1.8816,-1.8599,-1.8396,-1.8247,-1.8097,-1.7962,-1.7936,-1.7922,-1.7922,-1.7922,-1.7976,-1.7989,-1.7989,-1.8043,-1.8111,-1.8192,-1.8138,-1.8111,-1.8192,-1.807,-1.7989,-1.7989,-1.7867,-1.7745,-1.7609,-1.7527,-1.75,-1.7433,-1.7351,-1.7552,-1.8266,-1.871,-1.8684,-1.803,-1.8343,-1.8026,-1.6697,-1.6429,-1.6239,-1.609,-1.6076,-1.6049,-1.5932,-1.6049,-1.6049,-1.5967,-1.6117,-1.6266,-1.6415,-1.6134,-1.6076,0.0,0.0,0.0,0.0,0.0,0.0,0.0,-1.6242,-1.6551,-1.7563,-1.8071,-1.8533,-1.9322,-1.9502,-1.9825,-2.0841,-2.0878,-2.0881,-2.134,-2.1516,-2.1504,-2.1435,-2.172,-2.195,-2.2004,-2.2276,-2.2534,-2.2805,-2.271,-2.2751,-2.2995,-2.2669,-2.2302,-2.2167,-2.2045,-2.1882,-2.1706,-2.1842,-2.1923,-2.1882,-2.1937,-2.1937,-2.1882,-2.176,-2.1692,-2.1665,-2.1516,-2.1368,-2.1421,-2.1285,-2.1136,-2.1014,-2.0878,-2.058,-2.0214,-1.9929,-1.9807,-1.9712,-1.9427,-1.9237,-1.9115,-1.902,-1.8803,-1.8545,-1.8409,-1.8247,-1.8111,-1.7989,-1.8004,-1.8004,-1.8004,-1.8043,-1.8138,-1.8138,-1.8233,-1.8314,-1.8355,-1.8342,-1.8314,-1.8355,-1.8233,-1.8124,-1.8097,-1.7989,-1.7867,-1.7663,-1.769,-1.7595,-1.7528,-1.7487,-1.7419,-1.7297,-1.7256,-1.7188,-1.708,-1.6958,-1.6811,-1.6784,-1.6592,-1.6429,-1.6402,-1.6252,-1.6225,-1.6347,-1.6347,-1.6402,-1.6524,-1.6551,-1.6594,-1.6743,-1.6581,-1.651,-1.5782,-1.6617,-1.7472,-1.8267,-1.7376,-1.684,0.0,-1.891,-1.8693,-1.9607,-2.0026,-2.0255,-2.0358,-2.0695,-2.1165,-2.1692,-2.1747,-2.1787,-2.1991,-2.2072,-2.2166,-2.2153,-2.214,-2.2181,-2.2522,-2.2642,-2.2805,-2.2981,-2.2981,-2.2981,-2.3008,-2.2954,-2.2751,-2.2316,-2.2234,-2.214,-2.1869,-2.2004,-2.2018,-2.1882,-2.2167,-2.214,-2.1882,-2.1869,-2.1801,-2.1665,-2.1516,-2.1368,-2.1421,-2.1285,-2.119,-2.1177,-2.1041,-2.0865,-2.0689,-2.0512,-2.0282,-2.0037,-1.9861,-1.9759,-1.9522,-1.9115,-1.8871,-1.8708,-1.8545,-1.8409,-1.8287,-1.8274,-1.8274,-1.8274,-1.8274,-1.8287,-1.8301,-1.8301,-1.8301,-1.8355,-1.8477,-1.8409,-1.8355,-1.8477,-1.8396,-1.8247,-1.8111,-1.807,-1.8016,-1.7867,-1.784,-1.7881,-1.7868,-1.7704,-1.7568,-1.7541,-1.7473,-1.7392,-1.7378,-1.7351,-1.7283,-1.7148,-1.6998,-1.6849,-1.6648,-1.6551,-1.6483,-1.6497,-1.6497,-1.651,-1.6524,-1.6608,-1.6809,-1.6944,-1.6743,-1.6662,-1.7851,-1.8258,-1.8433,-1.8247,-1.7909,-1.7939,-1.922,-1.946,-1.9607,-2.0453,-2.0865,-2.1057,-2.1285,-2.1475,-2.1747,-2.2194,-2.2345,-2.2357,-2.2601,-2.2696,-2.2764,-2.2775,-2.2723,-2.2669,-2.2805,-2.2954,-2.3103,-2.3181,-2.3208,-2.3307,-2.3402,-2.3307,-2.3103,-2.2751,-2.2723,-2.2534,-2.214,-2.2289,-2.2289,-2.214,-2.222,-2.2276,-2.214,-2.1964,-2.1815,-2.1665,-2.1597,-2.1584,-2.157,-2.1408,-2.1353,-2.1274,-2.1177,-2.1082,-2.0987,-2.0597,-2.0354,-2.02,-1.9956,-1.978,-1.9664,-1.9345,-1.9074,-1.8871,-1.8708,-1.8572,-1.8423,-1.8342,-1.8314,-1.8314,-1.8314,-1.8369,-1.8437,-1.8437,-1.8518,-1.8626,-1.8762,-1.8694,-1.8626,-1.8762,-1.8599,-1.8423,-1.8355,-1.8287,-1.8179,-1.8016,-1.7976,-1.7922,-1.7922,-1.7812,-1.7745,-1.7609,-1.746,-1.7406,-1.7487,-1.7419,-1.7433,-1.746,-1.7229,-1.708,-1.7012,-1.6863,-1.6822,-1.6904,-1.6917,-1.6958,-1.7039,-1.7054,-1.7162,-1.7365,-1.7162,-1.7135,-1.9497,-1.9611,-1.9405,-1.8711,-1.8754,-1.9067,-1.9601,-1.9997,-2.052,-2.1084,-2.1421,-2.1692,-2.1896,-2.2045,-2.2276,-2.2683,-2.2818,-2.2927,-2.3103,-2.3171,-2.3198,-2.3225,-2.313,-2.3063,-2.3063,-2.3198,-2.3347,-2.3497,-2.3551,-2.3605,-2.3687,-2.3605,-2.3429,-2.313,-2.313,-2.2927,-2.2466,-2.2574,-2.2534,-2.2398,-2.2452,-2.2452,-2.2398,-2.2045,-2.1815,-2.1665,-2.1665,-2.1652,-2.1597,-2.153,-2.1475,-2.1421,-2.1313,-2.1245,-2.1177,-2.0838,-2.0607,-2.0417,-2.0159,-1.9942,-1.9752,-1.9549,-1.9318,-1.9074,-1.8884,-1.8776,-1.8667,-1.8491,-1.8477,-1.8491,-1.8464,-1.8518,-1.8599,-1.8599,-1.8708,-1.8902,-1.8979,-1.8938,-1.8925,-1.902,-1.883,-1.864,-1.8599,-1.8477,-1.8314,-1.8179,-1.8057,-1.8004,-1.7936,-1.7922,-1.7826,-1.7717,-1.7609,-1.7582,-1.7649,-1.7609,-1.7595,-1.7704,-1.746,-1.7324,-1.7324,-1.7175,-1.7148,-1.7256,-1.7297,-1.7378,-1.7487,-1.7528,-1.7595,-1.7704,-1.7555,-1.7487,-2.0449,-2.0732,-2.0753,-2.0871,-2.048,-2.0178,-2.0838,-2.1313,-2.1652,-2.1652,-2.1882,-2.2099,-2.2113,-2.2466,-2.2846,-2.3158,-2.3456,-2.3592,-2.3383,-2.3578,-2.3551,-2.3253,-2.3225,-2.3225,-2.3225,-2.3289,-2.351,-2.366,-2.3809,-2.3822,-2.3687,-2.3809,-2.3754,-2.3383,-2.3356,-2.3225,-2.2764,-2.2764,-2.2767,-2.2617,-2.2696,-2.2696,-2.2603,-2.2099,-2.1815,-2.1665,-2.1665,-2.1584,-2.1395,-2.1597,-2.1584,-2.1368,-2.1368,-2.134,-2.1218,-2.119,-2.1001,-2.0743,-2.058,-2.0336,-2.0051,-1.9752,-1.9549,-1.9359,-1.9074,-1.9074,-1.9115,-1.883,-1.8902,-1.8938,-1.8834,-1.8807,-1.8762,-1.8762,-1.8871,-1.8993,-1.8993,-1.9101,-1.9183,-1.9196,-1.9074,-1.8938,-1.8834,-1.8626,-1.8477,-1.8342,-1.8301,-1.8192,-1.7949,-1.7922,-1.7922,-1.7867,-1.7895,-1.7895,-1.7867,-1.7895,-1.7895,-1.7867,-1.7717,-1.7582,-1.7582,-1.7433,-1.7405,-1.7419,-1.75,-1.7582,-1.7595,-1.7772,-1.7895,-1.7895,-1.7704,-1.7595,-2.0534,-2.0807,-2.0871,-2.0409,-2.0333,-2.0526,-2.1014,-2.134,-2.1543,-2.1652,-2.1896,-2.2167,-2.2371,-2.2696,-2.3022,-2.3248,-2.3632,-2.3809,-2.3754,-2.3877,-2.3863,-2.3551,-2.3429,-2.3302,-2.3302,-2.3248,-2.3402,-2.366,-2.3727,-2.3822,-2.3958,-2.4012,-2.3944,-2.3754,-2.3646,-2.3429,-2.3076,-2.2981,-2.2859,-2.271,-2.2764,-2.2656,-2.2411,-2.2357,-2.2194,-2.195,-2.1842,-2.1774,-2.172,-2.1584,-2.1489,-2.1368,-2.1368,-2.1353,-2.119,-2.1109,-2.1001,-2.0892,-2.0634,-2.0354,-2.02,-1.9902,-1.9759,-1.9535,-1.9345,-1.9237,-1.9183,-1.9074,-1.9101,-1.9115,-1.9061,-1.9061,-1.9074,-1.9183,-1.9169,-1.9183,-1.94,-1.9305,-1.9237,-1.9345,-1.9237,-1.9115,-1.9061,-1.8938,-1.8749,-1.8491,-1.8287,-1.8165,-1.8165,-1.7989,-1.7949,-1.8002,-1.7976,-1.7949,-1.8002,-1.7976,-1.8004,-1.8165,-1.8016,-1.7948,-1.7948,-1.7894,-1.7812,-1.7717,-1.7758,-1.7785,-1.7785,-1.784,-1.7922,-1.7922,-1.7921,-1.788,-1.9979,-2.0341,-2.049,-2.0162,-2.0363,-2.0811,-2.1218,-2.1462,-2.1611,-2.1652,-2.1896,-2.2181,-2.2425,-2.2683,-2.3022,-2.3592,-2.3849,-2.4012,-2.4121,-2.4216,-2.4161,-2.3809,-2.3578,-2.3383,-2.3383,-2.3307,-2.3361,-2.3727,-2.3754,-2.3863,-2.4107,-2.4121,-2.4066,-2.3985,-2.3836,-2.3605,-2.3235,-2.3158,-2.3008,-2.2873,-2.2805,-2.2683,-2.2493,-2.2425,-2.2249,-2.2018,-2.1991,-2.1896,-2.1801,-2.1652,-2.157,-2.1516,-2.1462,-2.1328,-2.1285,-2.119,-2.1123,-2.1041,-2.0729,-2.0526,-2.0363,-2.0173,-1.9942,-1.9712,-1.9549,-1.9454,-1.9345,-1.9237,-1.9237,-1.9278,-1.9223,-1.9196,-1.9237,-1.94,-1.94,-1.9413,-1.963,-1.9596,-1.9454,-1.9508,-1.9427,-1.9359,-1.9359,-1.9237,-1.902,-1.8667,-1.845,-1.8314,-1.8314,-1.8138,-1.8057,-1.8165,-1.8097,-1.807,-1.8165,-1.8097,-1.8124,-1.8369,-1.8247,-1.8192,-1.8247,-1.8192,-1.8124,-1.8016,-1.8016,-1.8016,-1.8016,-1.8016,-1.8016,-1.8072,-1.8124,-1.8097,-1.9006,-1.9345,-1.978,-2.0241,-2.0689,-2.1068,-2.1353,-2.1638,-2.1801,-2.1665,-2.1882,-2.214,-2.2303,-2.2466,-2.29,-2.3931,-2.408,-2.4189,-2.4487,-2.4541,-2.4392,-2.3944,-2.3646,-2.3397,-2.3397,-2.3248,-2.3415,-2.3863,-2.3877,-2.3944,-2.4107,-2.4121,-2.4121,-2.4121,-2.3958,-2.3754,-2.3397,-2.3235,-2.3158,-2.3022,-2.2873,-2.2805,-2.2764,-2.2344,-2.2072,-2.1923,-2.2059,-2.1964,-2.1706,-2.1828,-2.1801,-2.1652,-2.1489,-2.1368,-2.1421,-2.1421,-2.134,-2.1177,-2.0892,-2.0689,-2.0489,-2.0476,-2.0241,-1.9875,-1.9725,-1.9745,-1.9664,-1.9332,-1.9345,-1.9413,-1.9278,-1.9237,-1.9278,-1.9367,-1.9576,-1.9718,-1.9745,-1.9827,-1.982,-1.9745,-1.9718,-1.9718,-1.9718,-1.9535,-1.9291,-1.8871,-1.8834,-1.8667,-1.8369,-1.8342,-1.8314,-1.8342,-1.8314,-1.8314,-1.8342,-1.8342,-1.8396,-1.8545,-1.8423,-1.8409,-1.8488,-1.8423,-1.8342,-1.8342,-1.8314,-1.8314,-1.8342,-1.8342,-1.8342,-1.8342,-1.8342,-1.8247,-1.925,-1.9549,-1.9956,-2.0526,-2.0824,-2.1014,-2.1082,-2.1177,-2.1245,-2.1313,-2.1652,-2.2018,-2.2289,-2.2547,-2.2927,-2.3524,-2.3559,-2.3695,-2.4175,-2.4338,-2.4284,-2.3931,-2.3822,-2.3727,-2.3632,-2.3483,-2.3483,-2.3714,-2.3727,-2.3809,-2.3944,-2.4053,-2.4121,-2.4121,-2.3877,-2.37,-2.3632,-2.3361,-2.3198,-2.3171,-2.313,-2.294,-2.2628,-2.2723,-2.2642,-2.244,-2.2303,-2.2235,-2.214,-2.1842,-2.1706,-2.1652,-2.1489,-2.1367,-2.1258,-2.1258,-2.1245,-2.119,-2.1123,-2.0933,-2.0702,-2.058,-2.034,-2.0187,-2.0037,-1.9902,-1.9807,-1.9725,-1.9725,-1.9752,-1.9712,-1.9698,-1.9752,-1.9888,-1.978,-1.9759,-1.9807,-1.9827,-1.9759,-1.9718,-1.9718,-1.9718,-1.9718,-1.9535,-1.94,-1.9278,-1.9074,-1.8871,-1.8667,-1.8464,-1.8355,-1.8464,-1.8339,-1.8409,-1.864,-1.8545,-1.864,-1.9006,-1.8898,-1.883,-1.8871,-1.8721,-1.8599,-1.8477,-1.8369,-1.8369,-1.8477,-1.8477,-1.8477,-1.8477,-1.8599,-1.8518,-1.9454,-1.9752,-2.0119,-2.0716,-2.0892,-2.0933,-2.1068,-2.1001,-2.0933,-2.1001,-2.1421,-2.1828,-2.1869,-2.2181,-2.2601,-2.3239,-2.3347,-2.3465,-2.4053,-2.4311,-2.4338,-2.4039,-2.3931,-2.3863,-2.3782,-2.3646,-2.3592,-2.3687,-2.3687,-2.3754,-2.389,-2.4039,-2.4121,-2.4121,-2.389,-2.3714,-2.3578,-2.3347,-2.3225,-2.3225,-2.3158,-2.2954,-2.2656,-2.2764,-2.2642,-2.2357,-2.2344,-2.2303,-2.2221,-2.1896,-2.176,-2.1747,-2.153,-2.1328,-2.1313,-2.1313,-2.1313,-2.1313,-2.1313,-2.1123,-2.0865,-2.077,-2.0553,-2.0309,-2.0227,-2.0051,-1.9888,-1.9956,-1.9929,-1.9875,-1.9875,-1.9929,-1.9983,-1.9997,-1.9929,-1.9861,-1.9875,-1.9868,-1.9814,-1.9814,-1.9814,-1.98,-1.9745,-1.9644,-1.9549,-1.9359,-1.925,-1.9115,-1.8884,-1.8654,-1.8545,-1.8626,-1.8626,-1.8708,-1.8938,-1.8938,-1.9061,-1.9373,-1.9278,-1.9183,-1.9183,-1.9047,-1.8925,-1.883,-1.8694,-1.8694,-1.883,-1.8694,-1.8667,-1.8721,-1.8762,-1.864,-1.9657,-1.9942,-2.0254,-2.0824,-2.0865,-2.0811,-2.1068,-2.0906,-2.0743,-2.0783,-2.1231,-2.1584,-2.1489,-2.172,-2.2194,-2.2981,-2.313,-2.3375,-2.3985,-2.4284,-2.4365,-2.4134,-2.3999,-2.3931,-2.3931,-2.3782,-2.3714,-2.3714,-2.3714,-2.3768,-2.389,-2.4039,-2.4107,-2.408,-2.3958,-2.3768,-2.3497,-2.3347,-2.3253,-2.3181,-2.3103,-2.294,-2.2778,-2.2753,-2.2479,-2.2194,-2.2344,-2.2303,-2.2167,-2.1991,-2.1896,-2.1842,-2.1584,-2.1395,-2.1368,-2.1368,-2.1368,-2.1368,-2.1368,-2.1258,-2.1014,-2.1001,-2.0702,-2.03,-2.03,-2.0173,-1.9997,-2.0119,-2.0064,-1.9956,-1.9956,-2.0051,-2.0105,-1.9956,-1.9997,-2.0037,-1.9902,-1.9922,-1.9895,-1.9895,-1.9895,-1.982,-1.98,-1.9841,-1.9725,-1.9373,-1.9373,-1.9345,-1.9115,-1.8925,-1.8875,-1.8861,-1.8925,-1.9074,-1.925,-1.9373,-1.9535,-1.9712,-1.959,-1.9522,-1.9522,-1.9373,-1.9291,-1.925,-1.9115,-1.9115,-1.9237,-1.8979,-1.8925,-1.9047,-1.8925,-1.8762,-2.0132,-2.0254,-2.0363,-2.0716,-2.0702,-2.053,-2.0584,-2.0526,-2.0512,-2.0878,-2.1136,-2.1353,-2.1584,-2.1964,-2.2303,-2.2466,-2.2696,-2.3063,-2.3687,-2.3809,-2.3904,-2.4107,-2.4107,-2.408,-2.408,-2.3944,-2.3863,-2.3863,-2.3863,-2.3877,-2.389,-2.4039,-2.4066,-2.3931,-2.3904,-2.3877,-2.3822,-2.3537,-2.3343,-2.3343,-2.3253,-2.3049,-2.2778,-2.3008,-2.294,-2.2656,-2.2696,-2.2628,-2.2522,-2.2181,-2.1991,-2.1869,-2.1692,-2.1543,-2.1368,-2.1368,-2.1368,-2.1368,-2.1368,-2.1313,-2.1163,-2.1041,-2.077,-2.0449,-2.0449,-2.0408,-2.0368,-2.0395,-2.0395,-2.0417,-2.0417,-2.03,-2.0282,-2.0254,-2.0078,-1.9902,-1.9936,-1.978,-1.9759,-1.9759,-1.9759,-1.9827,-1.9997,-1.9895,-1.9752,-1.9929,-1.9657,-1.9468,-1.9535,-1.9305,-1.9074,-1.8952,-1.9074,-1.9278,-1.9609,-1.9603,-1.9725,-2.001,-1.9997,-1.9983,-1.9983,-1.9834,-1.9759,-1.959,-1.9427,-1.9359,-1.94,-1.9345,-1.9318,-1.9359,-1.9318,-1.9169,-2.0254,-2.0431,-2.0607,-2.0838,-2.0661,-2.0485,-2.0665,-2.0417,-2.0241,-2.077,-2.1001,-2.1136,-2.1299,-2.1611,-2.1896,-2.1964,-2.2235,-2.2642,-2.3239,-2.347,-2.366,-2.3958,-2.4066,-2.4121,-2.4121,-2.4053,-2.4012,-2.4012,-2.4012,-2.3985,-2.389,-2.3958,-2.3999,-2.4012,-2.3863,-2.3822,-2.389,-2.3687,-2.3524,-2.3383,-2.3302,-2.3185,-2.29,-2.2954,-2.2873,-2.2656,-2.2493,-2.2398,-2.2303,-2.2004,-2.1842,-2.176,-2.1611,-2.1516,-2.1368,-2.1368,-2.1368,-2.1368,-2.1368,-2.134,-2.119,-2.1123,-2.0906,-2.0648,-2.0553,-2.0476,-2.0489,-2.0634,-2.0594,-2.0476,-2.0476,-2.0422,-2.0404,-2.0241,-2.0037,-1.9875,-1.9875,-1.9766,-1.9718,-1.9718,-1.9773,-1.9841,-1.9861,-1.982,-1.9807,-1.9861,-1.9698,-1.9576,-1.9705,-1.9535,-1.9373,-1.9237,-1.9278,-1.9413,-1.9705,-1.9807,-1.9942,-2.0078,-2.0173,-2.0187,-2.0105,-2.0037,-1.9956,-1.9888,-1.982,-1.978,-1.978,-1.9698,-1.963,-1.9549,-1.9468,-1.9305,-2.0431,-2.0648,-2.0838,-2.0933,-2.0607,-2.0376,-2.0811,-2.0404,-2.0078,-2.0702,-2.0919,-2.1001,-2.1001,-2.1245,-2.1409,-2.157,-2.1882,-2.2303,-2.2832,-2.3185,-2.351,-2.3809,-2.4012,-2.4121,-2.4121,-2.4121,-2.4121,-2.4121,-2.4121,-2.4066,-2.3944,-2.3944,-2.3999,-2.4121,-2.389,-2.3822,-2.3944,-2.3768,-2.3632,-2.3424,-2.3397,-2.3235,-2.3049,-2.2927,-2.2778,-2.2658,-2.2316,-2.2167,-2.2099,-2.1869,-2.172,-2.1652,-2.153,-2.1409,-2.1368,-2.1368,-2.1368,-2.1368,-2.1368,-2.1301,-2.1245,-2.119,-2.0987,-2.0756,-2.0634,-2.0607,-2.0661,-2.0783,-2.0729,-2.0584,-2.0584,-2.053,-2.0471,-2.02,-2.0064,-1.9956,-1.9929,-1.9868,-1.9712,-1.9712,-1.9827,-1.982,-1.9766,-1.982,-1.9861,-1.982,-1.978,-1.9827,-1.9807,-1.978,-1.9712,-1.963,-1.9535,-1.9576,-1.978,-1.9997,-2.0132,-2.0187,-2.0246,-2.0309,-2.02,-2.0187,-2.0187,-2.0159,-2.0159,-2.0132,-2.0105,-1.9983,-1.9875,-1.9752,-1.959,-1.9454,-2.0892,-2.096,-2.0946,-2.0824,-2.0458,-2.02,-2.0512,-2.0336,-2.0254,-2.0865,-2.0987,-2.1001,-2.1001,-2.1245,-2.1341,-2.1285,-2.1747,-2.2221,-2.2617,-2.2981,-2.3361,-2.366,-2.3944,-2.4121,-2.4121,-2.4121,-2.4121,-2.4121,-2.4121,-2.4121,-2.4107,-2.4107,-2.4107,-2.4121,-2.4107,-2.408,-2.4107,-2.3822,-2.3687,-2.366,-2.3524,-2.3289,-2.3198,-2.3185,-2.3022,-2.2751,-2.2588,-2.2357,-2.2113,-2.2072,-2.1923,-2.1665,-2.1652,-2.157,-2.1368,-2.1368,-2.1368,-2.1368,-2.1368,-2.1421,-2.1367,-2.1109,-2.0919,-2.077,-2.0756,-2.0838,-2.096,-2.0987,-2.096,-2.096,-2.096,-2.0756,-2.0449,-2.0349,-2.0295,-2.0241,-2.0119,-1.9956,-1.9861,-1.9861,-1.9766,-1.9766,-2.001,-1.9956,-1.9956,-2.0227,-2.0159,-2.0119,-2.0241,-2.0159,-2.0105,-2.0178,-1.9888,-1.9807,-2.0227,-2.0173,-2.02,-2.0422,-2.0449,-2.0462,-2.0449,-2.0449,-2.0431,-2.0246,-2.0246,-2.0241,-2.0105,-2.0078,-2.0064,-2.0051,-1.9902,-1.9752,-2.0553,-2.0783,-2.0987,-2.0933,-2.0634,-2.0404,-2.0512,-2.0313,-2.0475,-2.1284,-2.1187,-2.1035,-2.1571,-2.1356,-2.1177,-2.1218,-2.1489,-2.1842,-2.2235,-2.2452,-2.2723,-2.3225,-2.3456,-2.3687,-2.3958,-2.3985,-2.4012,-2.4121,-2.4121,-2.4121,-2.4121,-2.4039,-2.4039,-2.4121,-2.4039,-2.4039,-2.4121,-2.3999,-2.3863,-2.3687,-2.3605,-2.347,-2.3225,-2.3049,-2.2886,-2.2764,-2.2344,-2.2072,-2.195,-2.1774,-2.1638,-2.153,-2.153,-2.1489,-2.1368,-2.1368,-2.1368,-2.1368,-2.1368,-2.1368,-2.1355,-2.1299,-2.1163,-2.1001,-2.0824,-2.0878,-2.1001,-2.1001,-2.1001,-2.0987,-2.0892,-2.0702,-2.0462,-2.0408,-2.034,-2.0309,-2.0254,-2.0119,-2.001,-2.001,-2.0037,-2.0064,-2.0105,-2.0119,-2.0159,-2.0187,-2.0064,-2.0051,-2.0295,-2.0119,-2.0078,-2.0417,-2.0132,-1.9997,-2.0173,-2.0227,-2.0295,-2.0404,-2.0485,-2.0476,-2.0476,-2.0476,-2.0449,-2.0395,-2.0395,-2.0313,-2.0241,-2.0336,-2.0282,-2.0105,-2.0132,-2.0064,-2.0282,-2.0634,-2.0933,-2.0933,-2.077,-2.053,-2.0449,-2.0598,-2.0942,-2.1619,-2.1619,-2.1639,-2.227,-2.1932,-2.1571,-2.171,-2.1947,-2.2226,-2.2547,-2.2742,-2.3021,-2.3453,-2.369,-2.3883,-2.4094,-2.4024,-2.3999,-2.4121,-2.4121,-2.4121,-2.4121,-2.4012,-2.4012,-2.4121,-2.4012,-2.4012,-2.4121,-2.4066,-2.3931,-2.3687,-2.3632,-2.3456,-2.3158,-2.29,-2.2764,-2.2696,-2.2167,-2.1923,-2.1869,-2.1611,-2.1475,-2.1368,-2.1368,-2.1368,-2.1368,-2.1368,-2.1368,-2.1368,-2.1368,-2.1368,-2.1368,-2.1328,-2.1299,-2.1177,-2.096,-2.0987,-2.1055,-2.1014,-2.096,-2.0892,-2.0743,-2.0634,-2.0489,-2.0594,-2.0449,-2.0404,-2.0458,-2.0309,-2.0187,-2.0227,-2.0241,-2.0254,-2.0241,-2.0232,-2.0246,-2.0241,-2.0132,-2.0159,-2.03,-2.02,-2.0187,-2.0449,-2.0404,-2.0295,-2.0295,-2.0363,-2.0354,-2.0458,-2.0553,-2.053,-2.0476,-2.0476,-2.0462,-2.0471,-2.0462,-2.0408,-2.0336,-2.0408,-2.0368,-2.0227,-2.0295,-2.0241,-2.0241,-2.0539,-2.077,-2.077,-2.077,-2.0702,-2.0404,-2.1061,-2.174,-2.1661,-2.2389,-2.3076,-2.3076,-2.2942,-2.2882,-2.3046,-2.3478,-2.3791,-2.3791,-2.429,-2.4706,-2.4706,-2.5003,-2.4988,-2.4573,-2.4218,-2.4121,-2.4121,-2.4121,-2.4121,-2.4121,-2.4121,-2.4121,-2.4121,-2.4121,-2.4121,-2.4121,-2.3958,-2.3822,-2.3687,-2.3524,-2.3293,-2.3008,-2.2846,-2.2767,-2.2603,-2.2235,-2.2018,-2.1869,-2.172,-2.1584,-2.1368,-2.1368,-2.1368,-2.1368,-2.1368,-2.1368,-2.1368,-2.1368,-2.1368,-2.1355,-2.1258,-2.1218,-2.1218,-2.1218,-2.1218,-2.1177,-2.1041,-2.0892,-2.0743,-2.058,-2.0476,-2.058,-2.0743,-2.0648,-2.058,-2.0743,-2.0539,-2.0363,-2.0449,-2.0295,-2.0187,-2.0422,-2.0417,-2.0313,-2.0462,-2.0476,-2.0476,-2.0476,-2.0476,-2.0476,-2.0476,-2.0689,-2.077,-2.077,-2.0634,-2.0607,-2.0756,-2.077,-2.0702,-2.0539,-2.0476,-2.0471,-2.0336,-2.0408,-2.0408,-2.0336,-2.0408,-2.0476,-2.0476,-2.034,-2.0241,-1.9657,-2.001,-2.0295,-2.0187,-2.0309,-2.0376,-2.0078,-2.0902,-2.1803,-2.2189,-2.2605,-2.3026,-2.3539,-2.3279,-2.3016,-2.3076,-2.3455,-2.3642,-2.3642,-2.3441,-2.3447,-2.3663,-2.3763,-2.38,-2.3719,-2.3901,-2.3931,-2.3822,-2.4012,-2.4066,-2.3958,-2.4066,-2.4121,-2.4121,-2.4121,-2.4121,-2.4121,-2.3958,-2.3822,-2.3687,-2.3524,-2.3293,-2.3008,-2.2751,-2.2547,-2.2398,-2.1991,-2.1774,-2.172,-2.1584,-2.1475,-2.1368,-2.1368,-2.1368,-2.1368,-2.1368,-2.1368,-2.1368,-2.1368,-2.1368,-2.1368,-2.1328,-2.1367,-2.1353,-2.1245,-2.1136,-2.1041,-2.0892,-2.0729,-2.0594,-2.0489,-2.0476,-2.0489,-2.0594,-2.0661,-2.0716,-2.0821,-2.0783,-2.0811,-2.0838,-2.077,-2.0756,-2.0838,-2.0729,-2.0648,-2.0702,-2.0526,-2.0368,-2.0462,-2.0395,-2.0368,-2.0462,-2.058,-2.0607,-2.0607,-2.077,-2.0783,-2.0634,-2.0716,-2.0661,-2.0404,-2.034,-2.0336,-2.0173,-2.0309,-2.0336,-2.0173,-2.0417,-2.0476,-2.0476,-2.0594,-2.0485,-1.9318,-1.959,-1.9936,-2.0237,-2.0561,-2.079,-2.0851,-2.1713,-2.264,-2.284,-2.3246,-2.3718,-2.4166,-2.3988,-2.3806,-2.3914,-2.413,-2.4218,-2.4015,-2.3657,-2.3435,-2.3471,-2.3468,-2.3474,-2.3626,-2.3738,-2.3768,-2.3687,-2.389,-2.3999,-2.389,-2.4039,-2.408,-2.4039,-2.408,-2.408,-2.4039,-2.3944,-2.3768,-2.351,-2.3361,-2.3103,-2.2751,-2.2493,-2.2303,-2.214,-2.1815,-2.1665,0.0,-2.157,-2.1489,-2.1435,-2.1516,-2.1489,-2.1368,-2.1368,-2.1368,-2.1368,-2.1368,-2.1368,-2.1368,-2.1368,-2.1341,-2.1274,-2.1177,-2.1041,-2.0892,-2.0811,-2.0661,-2.0476,-2.0476,-2.0476,-2.0489,-2.0607,-2.0661,-2.0702,-2.0756,-2.0811,-2.0865,-2.0987,-2.0946,-2.0933,-2.0987,-2.0878,-2.0756,-2.0702,-2.058,-2.0526,-2.0607,-2.0553,-2.0526,-2.0607,-2.0634,-2.0607,-2.0539,-2.077,-2.0824,-2.0648,-2.077,-2.0716,-2.0417,-2.0471,-2.0404,-2.0187,-2.0336,-2.03,-2.0254,-2.058,-2.0689,-2.0634,-2.0716,-2.0648,0.0,-1.9305,-1.9643,-2.0716,-2.1256,-2.1659,-2.2253,-2.3246,0.0,-2.352,-2.4182,-2.4852,-2.4899,-2.4852,-2.4949,-2.5274,-2.5339,-2.5175,-2.4745,-2.4543,-2.4316,-2.394,-2.3825,-2.382,-2.4004,-2.385,-2.3646,-2.3646,-2.3809,-2.389,-2.3877,-2.4039,-2.4053,-2.389,-2.4039,-2.4039,-2.3877,-2.3877,-2.3646,-2.3239,-2.3076,-2.2778,-2.2288,-2.2181,-2.2018,-2.1869,-2.172,-2.1719,-2.1665,-2.1665,-2.1584,-2.1409,-2.1625,-2.1584,-2.1368,-2.1368,-2.1368,-2.1368,-2.1368,-2.1368,-2.1368,-2.1421,-2.1313,-2.1163,-2.1014,-2.0878,-2.0756,-2.0807,-2.0634,-2.0449,-2.0462,-2.0462,-2.0553,-2.0716,-2.0648,-2.0594,-2.0743,-2.0661,-2.0597,-2.0946,-2.0878,-2.0824,-2.0987,-2.0878,-2.0716,-2.053,-2.0689,-2.077,-2.0783,-2.0783,-2.0783,-2.0783,-2.0783,-2.0716,-2.0516,-2.0702,-2.0783,-2.0756,-2.0919,-2.0865,-2.0476,-2.0661,-2.0607,-2.0309,-2.0395,-2.0462,-2.0476,-2.0838,-2.0919,-2.0756,-2.077,-2.0702,-1.9237,0.0,-1.952,-2.0052,-2.0615,-2.1218,0.0,-2.2726,-2.3582,-2.3519,-2.415,-2.4608,-2.4478,-2.4576,-2.4641,-2.4592,-2.4819,-2.4822,-2.4211,-2.3565,-2.3138,-2.3063,-2.2951,-2.3087,-2.3509,-2.3406,-2.3334,-2.3334,-2.3687,-2.3836,-2.3727,-2.3985,-2.4053,-2.389,-2.3931,-2.3877,-2.3727,-2.3605,-2.3424,-2.3329,-2.313,-2.2832,-2.2506,-2.2235,-2.1964,-2.1706,-2.157,-2.157,-2.1665,-2.1665,-2.1652,-2.1625,-2.1652,-2.1584,-2.1368,-2.1368,-2.1368,-2.1368,-2.1368,-2.1368,-2.1355,-2.1299,-2.1082,-2.0878,-2.0838,-2.0716,-2.058,-2.0471,-2.0336,-2.0227,-2.0349,-2.0313,-2.0354,-2.0553,-2.0661,-2.0743,-2.077,-2.0838,-2.0906,-2.0987,-2.096,-2.096,-2.1001,-2.0878,-2.0811,-2.0878,-2.0824,-2.0875,-2.0933,-2.0946,-2.0946,-2.0946,-2.0946,-2.0878,-2.0743,-2.096,-2.096,-2.0607,-2.0838,-2.0811,-2.0404,-2.0417,-2.0349,-2.0159,-2.0295,-2.0368,-2.0476,-2.0838,-2.0865,-2.0594,-2.0838,-2.0811,-1.9427,-1.9468,-1.9791,-2.0786,-2.1246,-2.1726,-2.2866,-2.3425,-2.3737,-2.3832,-2.4098,-2.4316,-2.4235,-2.397,-2.3988,-2.448,-2.4023,-2.3628,-2.3646,-2.3606,-2.3397,-2.3049,-2.3202,-2.3283,-2.3117,-2.313,-2.3158,-2.3225,-2.3578,-2.3768,-2.3687,-2.3958,-2.4012,-2.3809,-2.3782,-2.3714,-2.3578,-2.3415,-2.3307,-2.3239,-2.294,-2.2683,-2.2452,-2.2221,-2.1991,-2.176,-2.1611,-2.1638,-2.1774,-2.1774,-2.1774,-2.1774,-2.1774,-2.1665,-2.153,-2.1462,-2.1368,-2.1368,-2.1368,-2.1394,-2.1313,-2.1163,-2.0906,-2.0648,-2.0594,-2.0417,-2.0241,-2.0309,-2.0282,-2.0227,-2.0246,-2.0313,-2.0408,-2.0607,-2.0661,-2.0689,-2.0756,-2.0783,-2.0811,-2.0878,-2.0946,-2.1001,-2.1001,-2.0987,-2.0987,-2.1001,-2.0987,-2.1001,-2.1082,-2.1109,-2.1109,-2.1109,-2.1041,-2.0933,-2.0783,-2.1041,-2.1055,-2.0661,-2.0878,-2.0892,-2.0648,-2.058,-2.0485,-2.0417,-2.0553,-2.0702,-2.0838,-2.1082,-2.1055,-2.0756,-2.0933,-2.0838,-1.9745,-1.9725,-2.0141,-2.172,-2.2072,-2.2488,-2.4056,-2.4163,-2.3889,-2.3795,-2.3779,-2.3809,-2.3745,-2.3296,-2.3283,-2.4419,-2.3222,-2.2402,-2.3109,-2.3754,-2.3869,-2.3209,-2.3594,-2.3693,-2.293,-2.294,-2.3076,-2.3239,-2.3524,-2.37,-2.3714,-2.3944,-2.3958,-2.3687,-2.3632,-2.3537,-2.3302,-2.3253,-2.3117,-2.2981,-2.2696,-2.2479,-2.2274,-2.2181,-2.2018,-2.1882,-2.1787,0.0,-2.1923,-2.1869,-2.1882,-2.1923,-2.1896,-2.1801,-2.1652,-2.153,-2.1462,-2.1368,-2.1408,-2.1299,-2.1163,-2.1014,-2.0756,-2.0422,-2.034,-2.0132,-1.9929,-2.02,-2.0282,-2.0254,-2.0232,-2.0404,-2.0539,-2.0702,-2.0634,-2.058,-2.0702,-2.0634,-2.053,-2.0743,-2.0878,-2.096,-2.1001,-2.1109,-2.1136,-2.1055,-2.1136,-2.1218,-2.1245,-2.1245,-2.1245,-2.1245,-2.1136,-2.1001,-2.0865,-2.1068,-2.1082,-2.0824,-2.0946,-2.1014,-2.1001,-2.0865,-2.0783,-2.0811,-2.0919,-2.1041,-2.1177,-2.1247,-2.1231,-2.096,-2.0987,-2.0838,-1.9868,-2.0037,-2.0305,-2.0644,-2.1401,-2.206,-2.2246,-2.2568,-2.278,-2.2644,-2.2508,-2.2311,-2.2024,-2.2543,-2.3082,-2.3159,-2.2893,-2.2704,-2.2659,-2.236,-2.229,-2.2647,-2.277,-2.2905,-2.3117,-2.3063,-2.3117,-2.3329,-2.3578,-2.3727,-2.3863,-2.3904,-2.3863,-2.3687,-2.3429,-2.3225,-2.3076,-2.3063,-2.2981,-2.2818,-2.2642,-2.2479,-2.2274,-2.2181,-2.2018,-2.1882,0.0,-2.1828,-2.2059,-2.1815,-2.1842,-2.2059,-2.1937,-2.1801,-2.1665,-2.1705,-2.1543,-2.1355,-2.1299,-2.1163,-2.1001,-2.0865,-2.0607,-2.0313,-2.0471,-2.02,-1.9902,-2.0078,-2.0051,-1.9983,-2.0105,-2.0241,-2.0404,-2.0539,-2.0489,-2.0539,-2.0516,-2.0489,-2.053,-2.0743,-2.0783,-2.0838,-2.0987,-2.1014,-2.1068,-2.1163,-2.119,-2.1258,-2.1328,-2.1341,-2.1341,-2.1341,-2.1328,-2.1247,-2.1163,-2.119,-2.1136,-2.0987,-2.1109,-2.1123,-2.1001,-2.0865,-2.0824,-2.096,-2.0865,-2.0878,-2.1041,-2.1055,-2.0987,-2.0811,-2.0946,-2.0906,-1.9773,-2.0105,-2.0371,-2.016,-2.0964,-2.1839,-2.2231,-2.2256,-2.2122,-2.1958,-2.1868,-2.1749,-2.1556,-2.166,-2.1699,-2.1519,-2.2478,-2.3067,-2.2713,-2.3046,-2.3349,-2.3216,-2.3258,-2.3257,-2.3025,-2.2927,-2.3008,-2.3235,-2.347,-2.3632,-2.3768,-2.3782,-2.3687,-2.3429,-2.3293,-2.3076,-2.2764,-2.2696,-2.2696,-2.2778,-2.2547,-2.2452,-2.2452,-2.2303,-2.2194,-2.2127,0.0,-2.2045,-2.2221,-2.2004,-2.2045,-2.2221,-2.1977,-2.1842,-2.176,-2.1597,-2.1489,-2.1421,-2.1353,-2.119,-2.0987,-2.0824,-2.058,-2.0336,-2.0309,-2.0159,-2.001,-2.0078,-2.0051,-2.001,-2.0078,-2.0282,-2.0422,-2.0634,-2.0594,-2.0553,-2.0648,-2.0661,-2.0689,-2.0756,-2.0838,-2.0946,-2.1082,-2.1109,-2.1163,-2.1313,-2.134,-2.1353,-2.1421,-2.1368,-2.1368,-2.1368,-2.1368,-2.1367,-2.1231,-2.1285,-2.1218,-2.0892,-2.1014,-2.1041,-2.0878,-2.0892,-2.096,-2.1109,-2.096,-2.1001,-2.1231,-2.1163,-2.1068,-2.1014,-2.1082,-2.1041,-1.9712,-2.0105,-2.0363,-2.0051,-2.0713,-2.1584,-2.208,-2.1829,-2.145,-2.1261,-2.1249,-2.1176,-2.103,-2.0872,-2.0834,-2.0964,-2.2298,-2.3119,-2.2684,-2.3465,-2.3964,-2.3523,-2.3566,-2.3454,-2.2903,-2.2832,-2.2981,-2.3307,-2.3402,-2.3465,-2.3714,-2.366,-2.351,-2.3225,-2.3158,-2.294,-2.2617,-2.2371,-2.2411,-2.2669,-2.2411,-2.2371,-2.2617,-2.2452,-2.2398,-2.2371,-2.2235,-2.2235,-2.2316,-2.2127,-2.2167,-2.2303,-2.2045,-2.1923,-2.1842,-2.1543,-2.1368,-2.1421,-2.1301,-2.1218,-2.1014,-2.0783,-2.0566,-2.03,-2.0241,-2.0159,-2.0105,-2.0132,-2.0159,-2.0159,-2.0159,-2.0349,-2.0516,-2.0689,-2.0634,-2.0516,-2.0702,-2.0716,-2.0743,-2.077,-2.0892,-2.1055,-2.119,-2.1245,-2.1299,-2.1355,-2.1368,-2.1368,-2.1368,-2.1368,-2.1368,-2.1368,-2.1368,-2.1367,-2.1231,-2.1285,-2.1177,-2.0783,-2.0878,-2.0919,-2.0824,-2.0933,-2.1068,-2.1218,-2.1068,-2.1123,-2.1328,-2.1231,-2.1163,-2.1163,-2.119,-2.1163,-1.9997,-2.0105,-2.0159,-2.0282,-2.0743,-2.1079,-2.0598,-2.0543,-2.053,-2.0243,-2.0127,-1.999,-1.9854,-2.0677,-2.1737,-2.2876,-2.2696,-2.2306,-2.2003,-2.2045,-2.2222,-2.2646,-2.27,-2.2753,-2.2954,-2.2995,-2.3171,-2.3605,-2.3524,-2.3578,-2.3863,-2.3605,-2.3329,-2.3225,-2.2954,-2.2723,-2.2617,-2.2276,-2.2221,-2.2302,-2.2194,-2.2276,-2.2617,-2.2603,-2.2603,-2.2534,-2.2398,-2.2316,-2.2247,-2.2018,-2.2072,-2.2316,-2.2167,-2.2004,-2.1842,-2.1543,-2.1368,-2.1341,-2.1123,-2.1109,-2.1123,-2.0702,-2.0539,-2.0462,-2.0449,-2.0309,-2.0132,-2.0282,-2.0309,-2.0309,-2.0309,-2.0417,-2.0476,-2.0489,-2.0539,-2.0476,-2.0489,-2.0489,-2.0594,-2.0743,-2.0892,-2.1055,-2.119,-2.1274,-2.1421,-2.1368,-2.1368,-2.1368,-2.1368,-2.1368,-2.1368,-2.1368,-2.1368,-2.1367,-2.1231,-2.1109,-2.096,-2.0783,-2.0783,-2.0838,-2.0987,-2.1001,-2.1068,-2.1218,-2.1068,-2.1068,-2.1231,-2.1082,-2.1014,-2.1014,-2.1163,-2.1218,-2.1193,-2.0881,-2.0677,-2.1252,-2.1435,-2.1242,-2.0576,-2.0449,-2.0576,-2.0971,-2.0568,-2.0173,-2.02,-2.0456,-2.1033,-2.1827,-2.1878,-2.1835,-2.2018,-2.2181,-2.2425,-2.2805,-2.2832,-2.2927,-2.3117,-2.313,-2.3253,-2.3524,-2.3411,-2.3456,-2.347,-2.3293,-2.3063,-2.2818,-2.2767,-2.2574,-2.2425,-2.2221,-2.2181,-2.2274,-2.2181,-2.2276,-2.2617,-2.2466,-2.252,-2.2683,-2.2452,-2.2398,-2.2466,-2.2249,-2.2235,-2.2247,-2.2059,-2.1828,-2.1597,-2.1475,-2.1368,-2.1421,-2.1247,-2.119,-2.1055,-2.0878,-2.0702,-2.0489,-2.0648,-2.0539,-2.0404,-2.0566,-2.0539,-2.0431,-2.0349,-2.0512,-2.0661,-2.0553,-2.0607,-2.0661,-2.0553,-2.0607,-2.0729,-2.0878,-2.096,-2.1068,-2.1313,-2.1313,-2.1274,-2.1421,-2.1368,-2.1368,-2.1368,-2.1368,-2.1368,-2.1368,-2.1368,-2.1367,-2.1231,-2.1082,-2.0933,-2.0783,-2.0865,-2.0946,-2.1001,-2.1082,-2.119,-2.1353,-2.1218,-2.1218,-2.1353,-2.1218,-2.1177,-2.1285,-2.1274,-2.1353,-2.1535,-2.1182,-2.0815,-2.1222,-2.1401,-2.1308,-2.0598,-2.0707,-2.1045,-2.1202,-2.0747,-2.0426,-2.0766,-2.0584,-2.0657,-2.1453,-2.154,-2.1652,-2.2059,-2.2357,-2.2712,-2.29,-2.294,-2.3022,-2.328,-2.3181,-2.3307,-2.351,-2.3411,-2.3329,-2.3293,-2.3117,-2.2886,-2.2642,-2.2644,-2.2479,-2.2274,-2.2235,-2.2235,-2.2274,-2.2235,-2.2303,-2.2617,-2.2493,-2.2588,-2.2764,-2.2574,-2.2493,-2.2603,-2.2398,-2.2303,-2.2235,-2.1991,-2.172,-2.1516,-2.1395,-2.1368,-2.1368,-2.1328,-2.1258,-2.1123,-2.0987,-2.0824,-2.0702,-2.0756,-2.0661,-2.0516,-2.0743,-2.0661,-2.0462,-2.0417,-2.0539,-2.0661,-2.0553,-2.0634,-2.0661,-2.0553,-2.0661,-2.0811,-2.0919,-2.1001,-2.1123,-2.134,-2.1313,-2.1313,-2.1421,-2.1368,-2.1368,-2.1368,-2.1341,-2.1367,-2.1367,-2.1274,-2.1285,-2.1218,-2.1123,-2.1001,-2.0865,-2.1041,-2.1068,-2.0933,-2.1109,-2.1258,-2.1367,-2.1258,-2.1258,-2.1367,-2.1258,-2.1258,-2.1367,-2.1355,-2.1368,-2.0876,-2.0743,-2.0447,-1.9914,-2.0553,-2.1139,-2.0462,-2.1264,-2.176,-2.0748,-2.0431,-2.0566,-2.1463,-2.0984,-2.0935,-2.2277,-2.2051,-2.1774,-2.2072,-2.2371,-2.2698,-2.2764,-2.2778,-2.2954,-2.3343,-2.3307,-2.3347,-2.366,-2.3537,-2.3383,-2.3383,-2.3171,-2.294,-2.2778,-2.2698,-2.2479,-2.2274,-2.2274,-2.2274,-2.2274,-2.2274,-2.2411,-2.2617,-2.271,-2.2778,-2.2778,-2.2778,-2.2696,-2.2603,-2.2398,-2.2249,-2.2099,-2.1937,-2.1801,-2.1652,-2.1489,-2.1368,-2.1355,-2.1258,-2.1313,-2.1301,-2.0919,-2.0878,-2.096,-2.0824,-2.0661,-2.0516,-2.0743,-2.0661,-2.0476,-2.0476,-2.0476,-2.0476,-2.0476,-2.0476,-2.0476,-2.0476,-2.0661,-2.077,-2.077,-2.1001,-2.1218,-2.1218,-2.134,-2.1368,-2.1368,-2.1368,-2.1368,-2.1368,-2.1299,-2.1218,-2.1218,-2.1082,-2.1055,-2.119,-2.1218,-2.1163,-2.1001,-2.1285,-2.1245,-2.0783,-2.1055,-2.1218,-2.1218,-2.1218,-2.1218,-2.1218,-2.1218,-2.1218,-2.1218,-2.1367,-2.1368,-2.2803,-2.2055,-2.1285,-2.178,-2.1541,-2.1228,-2.1252,-2.127,-2.1274,-2.1014,-2.1363,-2.1622,-2.1404,-2.098,-2.0929,-2.1631,-2.1786,-2.1923,-2.2235,-2.2805,-2.3171,-2.3103,-2.3361,-2.3537,-2.3383,-2.351,-2.3578,-2.3687,-2.3537,-2.3329,-2.3293,-2.3008,-2.2778,-2.2698,-2.2479,-2.2371,-2.2274,-2.2274,-2.2274,-2.2274,-2.2274,-2.2411,-2.2617,-2.2493,-2.2642,-2.2927,-2.2601,-2.2574,-2.2696,-2.2316,-2.2099,-2.1937,-2.1801,-2.1638,-2.1516,-2.1395,-2.1368,-2.1368,-2.1328,-2.1274,-2.1245,-2.1001,-2.0892,-2.0824,-2.0783,-2.0661,-2.0516,-2.0743,-2.0661,-2.0476,-2.0476,-2.0476,-2.0476,-2.0476,-2.0634,-2.0661,-2.0553,-2.058,-2.0661,-2.0892,-2.0919,-2.1001,-2.1313,-2.1313,-2.1313,-2.1421,-2.1368,-2.1341,-2.1299,-2.1245,-2.1218,-2.1218,-2.1177,-2.1123,-2.1068,-2.1163,-2.1109,-2.0865,-2.1123,-2.1218,-2.1082,-2.1258,-2.1367,-2.1367,-2.1367,-2.1367,-2.1367,-2.1367,-2.1367,-2.1367,-2.1355,-2.1368,-2.2373,-2.1752,-2.1121,-2.152,-2.1403,-2.1199,-2.1336,-2.1229,-2.1123,-2.1258,-2.1532,-2.1645,-2.1188,-2.0987,-2.1014,-2.1462,-2.1828,-2.214,-2.2398,-2.2954,-2.3235,-2.3158,-2.3429,-2.3578,-2.3397,-2.3537,-2.3592,-2.3592,-2.3497,-2.3302,-2.3225,-2.294,-2.2751,-2.2712,-2.2452,-2.2274,-2.2274,-2.2398,-2.2398,-2.2274,-2.2398,-2.2452,-2.2466,-2.2493,-2.2656,-2.29,-2.2642,-2.252,-2.2493,-2.2221,-2.1991,-2.1801,-2.1706,-2.1584,-2.1368,-2.1368,-2.1368,-2.1368,-2.1368,-2.1328,-2.1258,-2.1068,-2.0933,-2.0865,-2.0783,-2.0661,-2.0516,-2.0743,-2.0661,-2.0476,-2.0476,-2.0476,-2.0476,-2.0476,-2.0607,-2.0648,-2.0553,-2.053,-2.0689,-2.0878,-2.0878,-2.0946,-2.1218,-2.119,-2.1177,-2.1274,-2.1341,-2.1328,-2.1231,-2.1218,-2.119,-2.1136,-2.1123,-2.1082,-2.1001,-2.1123,-2.1136,-2.096,-2.1177,-2.1299,-2.1299,-2.1394,-2.1368,-2.1368,-2.1368,-2.1368,-2.1368,-2.1368,-2.1368,-2.1368,-2.1368,-2.1368,-2.0448,-2.0448,-2.0352,-2.0052,-2.0547,-2.1104,-2.1062,-2.1177,-2.1299,-2.1355,-2.1245,-2.1068,-2.1068,-2.1068,-2.1218,-2.1705,-2.2072,-2.2411,-2.2617,-2.2981,-2.3198,-2.3049,-2.3185,-2.3248,-2.3343,-2.3383,-2.3383,-2.3383,-2.3356,-2.3302,-2.3181,-2.2954,-2.2805,-2.2778,-2.2493,-2.2288,-2.2274,-2.2479,-2.2479,-2.2274,-2.2479,-2.2479,-2.2288,-2.2628,-2.2751,-2.2751,-2.2764,-2.2534,-2.2113,-2.2099,-2.1923,-2.1665,-2.1652,-2.157,-2.1368,-2.1368,-2.1368,-2.1368,-2.1368,-2.1368,-2.1394,-2.1082,-2.1001,-2.096,-2.0811,-2.0648,-2.0516,-2.0716,-2.0648,-2.0476,-2.0476,-2.0489,-2.0489,-2.0476,-2.0476,-2.0476,-2.0476,-2.0648,-2.0756,-2.077,-2.0878,-2.096,-2.1001,-2.1001,-2.1055,-2.1218,-2.1353,-2.1328,-2.1218,-2.1218,-2.1163,-2.1001,-2.1001,-2.1014,-2.1001,-2.1136,-2.1231,-2.1218,-2.1353,-2.1368,-2.1368,-2.1368,-2.1368,-2.1368,-2.1368,-2.1368,-2.1368,-2.1368,-2.1368,-2.1368,-2.1368,-2.1368,-2.1018,-2.0807,-2.0501,-2.0758,-2.1033,-2.1278,-2.1515,-2.1638,-2.1692,-2.1475,-2.1584,-2.1652,-2.1543,-2.1625,-2.176,-2.1991,-2.2289,-2.2617,-2.271,-2.3225,-2.3483,-2.3198,-2.3524,-2.3632,-2.3307,-2.3302,-2.3383,-2.3383,-2.3275,-2.3307,-2.3329,-2.3117,-2.29,-2.2778,-2.2601,-2.2452,-2.2274,-2.2479,-2.2479,-2.2274,-2.2479,-2.2479,-2.2274,-2.2342,-2.2425,-2.2452,-2.2683,-2.2534,-2.2099,-2.1991,-2.1828,-2.1652,-2.153,-2.1409,-2.1368,-2.1368,-2.1368,-2.1368,-2.1368,-2.1368,-2.1394,-2.1082,-2.1001,-2.0946,-2.0625,-2.0553,-2.0539,-2.058,-2.0553,-2.0476,-2.0476,-2.0634,-2.0689,-2.0516,-2.0476,-2.0476,-2.0476,-2.0553,-2.0634,-2.0756,-2.0702,-2.0716,-2.096,-2.1001,-2.1082,-2.1353,-2.1355,-2.1287,-2.1082,-2.1136,-2.1109,-2.0838,-2.1041,-2.1123,-2.1014,-2.1245,-2.134,-2.1218,-2.1353,-2.1368,-2.1368,-2.1368,-2.1368,-2.1368,-2.1368,-2.1368,-2.1368,-2.1368,-2.1368,-2.1368,-2.1368,-2.1368,-2.016,-2.0208,-2.0302,-2.07,-2.1068,-2.1367,-2.153,-2.172,-2.1869,-2.1774,-2.1882,-2.1964,-2.1896,-2.2004,-2.214,-2.2303,-2.2574,-2.2818,-2.2981,-2.3388,-2.3632,-2.347,-2.3646,-2.37,-2.347,-2.3456,-2.3383,-2.3383,-2.3307,-2.3253,-2.3275,-2.313,-2.2981,-2.2886,-2.2751,-2.2628,-2.2547,-2.2628,-2.2588,-2.2452,-2.252,-2.2479,-2.2344,-2.2479,-2.252,-2.2452,-2.2601,-2.2411,-2.1991,-2.1842,-2.1692,-2.1543,-2.1409,-2.1368,-2.1368,-2.1368,-2.1368,-2.1368,-2.1368,-2.1394,-2.1299,-2.1068,-2.0946,-2.0838,-2.0607,-2.0476,-2.0476,-2.0476,-2.0476,-2.0476,-2.0476,-2.0594,-2.0648,-2.0489,-2.0594,-2.0634,-2.0489,-2.0476,-2.0553,-2.0648,-2.0594,-2.053,-2.0756,-2.0892,-2.1068,-2.1299,-2.1274,-2.1285,-2.1123,-2.1163,-2.1123,-2.0919,-2.1014,-2.1082,-2.1001,-2.1136,-2.1231,-2.1218,-2.1353,-2.1368,-2.1368,-2.1368,-2.1368,-2.1368,-2.1368,-2.1368,-2.1368,-2.1368,-2.1368,-2.1368,-2.1368,-2.1368,-1.9151,-1.9621,-2.0148,-2.0471,-2.1041,-2.1489,-2.1516,-2.1747,-2.2004,-2.2127,-2.2167,-2.2181,-2.2181,-2.2303,-2.2466,-2.2642,-2.2886,-2.3103,-2.328,-2.3537,-2.3714,-2.3687,-2.3727,-2.3727,-2.3687,-2.3592,-2.3451,-2.3483,-2.3375,-2.3293,-2.3253,-2.3171,-2.3103,-2.3008,-2.29,-2.2832,-2.2778,-2.2805,-2.2751,-2.2658,-2.2644,-2.2506,-2.2356,-2.2642,-2.2656,-2.252,-2.252,-2.2276,-2.1869,-2.1787,-2.1584,-2.1368,-2.1368,-2.1368,-2.1368,-2.1368,-2.1368,-2.1368,-2.1368,-2.134,-2.119,-2.1055,-2.0892,-2.0743,-2.053,-2.0476,-2.0539,-2.0516,-2.058,-2.053,-2.0607,-2.0607,-2.0607,-2.053,-2.0689,-2.0743,-2.0516,-2.0476,-2.0476,-2.0476,-2.0553,-2.053,-2.0607,-2.0865,-2.1068,-2.119,-2.1218,-2.119,-2.1177,-2.119,-2.1163,-2.1014,-2.1055,-2.1055,-2.1001,-2.1014,-2.1082,-2.1218,-2.1274,-2.1408,-2.1368,-2.1368,-2.1368,-2.1368,-2.1368,-2.1368,-2.1368,-2.1368,-2.1368,-2.1368,-2.1368,-2.1368,-1.9639,-2.0292,-2.0859,-2.0762,-2.119,-2.1665,-2.1801,-2.2059,-2.222,-2.2303,-2.2411,-2.2506,-2.2506,-2.2628,-2.2818,-2.3076,-2.3171,-2.3293,-2.3578,-2.3768,-2.3822,-2.37,-2.3904,-2.3958,-2.37,-2.3768,-2.3782,-2.366,-2.3632,-2.3551,-2.3356,-2.3524,-2.3415,-2.3022,-2.3117,-2.3049,-2.2778,-2.29,-2.29,-2.2751,-2.2698,-2.2671,-2.271,-2.2698,-2.2506,-2.2302,-2.2302,-2.2181,-2.1869,-2.1787,-2.1584,-2.1368,-2.1368,-2.1368,-2.1368,-2.1368,-2.1368,-2.1368,-2.1368,-2.134,-2.119,-2.1055,-2.0892,-2.0743,-2.053,-2.0476,-2.0516,-2.0702,-2.0743,-2.077,-2.0906,-2.0946,-2.0906,-2.077,-2.0756,-2.0743,-2.0516,-2.0476,-2.0476,-2.0476,-2.0648,-2.0783,-2.0906,-2.1068,-2.119,-2.1218,-2.1218,-2.1163,-2.1041,-2.1136,-2.1163,-2.1014,-2.1231,-2.1285,-2.1014,-2.1109,-2.119,-2.1218,-2.1231,-2.1299,-2.1368,-2.1368,-2.1368,-2.1368,-2.1368,-2.1368,-2.1368,-2.1368,-2.1368,-2.1368,-2.1368,-2.1368,-1.9663,-2.0256,-2.08,-2.0812,-2.1163,-2.1584,-2.172,-2.1991,-2.2221,-2.2221,-2.2316,-2.252,-2.2764,-2.2995,-2.3225,-2.3456,-2.3537,-2.3646,-2.3782,-2.3999,-2.408,-2.3944,-2.4121,-2.4161,-2.3944,-2.3904,-2.3877,-2.3809,-2.3727,-2.3646,-2.3578,-2.3646,-2.3592,-2.3402,-2.3361,-2.3293,-2.3158,-2.313,-2.3063,-2.29,-2.2751,-2.271,-2.2778,-2.271,-2.2601,-2.2452,-2.2371,-2.2221,-2.1991,-2.176,-2.1638,-2.157,-2.1409,-2.1368,-2.1368,-2.1368,-2.1368,-2.1368,-2.1368,-2.1285,-2.1082,-2.1014,-2.0892,-2.0743,-2.053,-2.0597,-2.0783,-2.077,-2.0838,-2.0919,-2.0987,-2.0933,-2.0865,-2.0783,-2.0702,-2.0648,-2.0661,-2.0594,-2.0476,-2.0476,-2.0594,-2.0716,-2.096,-2.1055,-2.1123,-2.119,-2.1136,-2.1041,-2.0892,-2.0933,-2.0987,-2.1001,-2.1041,-2.1082,-2.1123,-2.1109,-2.1123,-2.1218,-2.1299,-2.1367,-2.1368,-2.1368,-2.1368,-2.1368,-2.1368,-2.1368,-2.1368,-2.1368,-2.1368,-2.1368,-2.1368,-2.1368,-1.9392,-1.9963,-2.049,-2.0566,-2.0878,-2.1258,-2.1489,-2.1774,-2.2018,-2.2099,-2.2235,-2.241,-2.2927,-2.3225,-2.3456,-2.3646,-2.3809,-2.3904,-2.3944,-2.4175,-2.4235,-2.4189,-2.4276,-2.4379,-2.4189,-2.4107,-2.4039,-2.3958,-2.3863,-2.3768,-2.3727,-2.3768,-2.3727,-2.3632,-2.3551,-2.3456,-2.3275,-2.3225,-2.3117,-2.3008,-2.2846,-2.2778,-2.2778,-2.2751,-2.2656,-2.2617,-2.2398,-2.2249,-2.2099,-2.1801,-2.1665,-2.1652,-2.1489,-2.1368,-2.1368,-2.1368,-2.1368,-2.1368,-2.1368,-2.1258,-2.1055,-2.1055,-2.0946,-2.0811,-2.0702,-2.0824,-2.0987,-2.0919,-2.096,-2.1055,-2.1055,-2.0946,-2.0824,-2.0783,-2.0689,-2.0607,-2.0702,-2.0689,-2.0634,-2.0489,-2.0543,-2.0716,-2.0906,-2.0987,-2.1041,-2.1136,-2.1041,-2.0919,-2.0838,-2.0783,-2.0838,-2.1041,-2.0946,-2.096,-2.119,-2.1109,-2.1109,-2.1218,-2.1313,-2.1341,-2.1368,-2.1368,-2.1368,-2.1368,-2.1368,-2.1368,-2.1368,-2.1368,-2.1368,-2.1368,-2.1368,-2.1368,-1.8936,-1.9476,-2.0109,-1.999,-2.0254,-2.0702,-2.1136,-2.1475,-2.1774,-2.2059,-2.2235,-2.241,-2.2927,-2.313,-2.3334,-2.3632,-2.3809,-2.3944,-2.408,-2.4243,-2.4276,-2.4263,-2.4596,-2.465,-2.429,-2.446,-2.4406,-2.4134,-2.4107,-2.4039,-2.389,-2.4012,-2.3904,-2.3397,-2.3592,-2.347,-2.3049,-2.3022,-2.3008,-2.3008,-2.2846,-2.2778,-2.2778,-2.2698,-2.263,-2.2617,-2.2398,-2.2249,-2.2099,-2.1801,-2.1665,-2.1652,-2.1489,-2.1368,-2.1368,-2.1368,-2.1368,-2.1368,-2.1368,-2.134,-2.119,-2.119,-2.1109,-2.0987,-2.0987,-2.0987,-2.1014,-2.1163,-2.119,-2.119,-2.119,-2.1082,-2.0946,-2.0811,-2.077,-2.0716,-2.058,-2.077,-2.0892,-2.053,-2.077,-2.0933,-2.0811,-2.0919,-2.1001,-2.1014,-2.0878,-2.0824,-2.096,-2.0865,-2.0878,-2.1177,-2.119,-2.119,-2.1218,-2.1218,-2.1218,-2.1218,-2.1218,-2.1285,-2.1368,-2.1368,-2.1368,-2.1368,-2.1368,-2.1368,-2.1368,-2.1368,-2.1368,-2.1368,-2.1368,-2.1368,-1.8868,-1.9296,-1.9841,-1.9908,-2.0064,-2.0349,-2.0702,-2.1014,-2.1272,-2.1367,-2.1665,-2.2018,-2.2371,-2.2873,-2.3347,-2.3754,-2.3863,-2.3985,-2.4229,-2.4473,-2.4596,-2.4487,-2.4758,-2.4786,-2.4303,-2.4406,-2.4379,-2.4208,-2.4175,-2.4134,-2.4114,-2.4134,-2.3999,-2.3754,-2.37,-2.347,-2.3008,-2.3008,-2.2954,-2.2873,-2.29,-2.2873,-2.2778,-2.2927,-2.2886,-2.2696,-2.2642,-2.2479,-2.2235,-2.2045,-2.1896,-2.1801,-2.1652,-2.153,-2.1368,-2.1368,-2.1368,-2.1368,-2.1368,-2.134,-2.1218,-2.1218,-2.1177,-2.1123,-2.1041,-2.1136,-2.1258,-2.1231,-2.1285,-2.1353,-2.1353,-2.1245,-2.1109,-2.0946,-2.0987,-2.1014,-2.0865,-2.0933,-2.0933,-2.0729,-2.077,-2.0838,-2.0783,-2.0824,-2.0865,-2.0865,-2.0811,-2.0756,-2.0716,-2.0743,-2.0838,-2.1055,-2.1068,-2.1163,-2.134,-2.1258,-2.1245,-2.1353,-2.1353,-2.1328,-2.1368,-2.1368,-2.1368,-2.1368,-2.1368,-2.1368,-2.1368,-2.1368,-2.1368,-2.1368,-2.1368,-2.1368,-1.8673,-1.8942,-1.9396,-1.9738,-1.9834,-1.9997,-2.0368,-2.0702,-2.0878,-2.0987,-2.1353,-2.176,-2.2059,-2.2642,-2.3225,-2.366,-2.3822,-2.3999,-2.4235,-2.4596,-2.4758,-2.465,-2.4948,-2.4989,-2.4541,-2.4541,-2.4438,-2.429,-2.4181,-2.4229,-2.4256,-2.4175,-2.4053,-2.389,-2.366,-2.3429,-2.3239,-2.3022,-2.29,-2.2859,-2.2859,-2.2805,-2.271,-2.29,-2.2886,-2.271,-2.271,-2.2588,-2.2398,-2.2194,-2.2059,-2.195,-2.1801,-2.1652,-2.1516,-2.1516,-2.1489,-2.1368,-2.1368,-2.1367,-2.1285,-2.1285,-2.1285,-2.1258,-2.1177,-2.1285,-2.1355,-2.1313,-2.1301,-2.1421,-2.1367,-2.1245,-2.1123,-2.1082,-2.1136,-2.119,-2.1082,-2.1109,-2.1068,-2.0824,-2.0875,-2.0824,-2.0783,-2.0743,-2.0756,-2.0892,-2.0838,-2.077,-2.077,-2.0811,-2.0919,-2.1055,-2.1068,-2.1177,-2.1355,-2.1353,-2.134,-2.1368,-2.1368,-2.1368,-2.1368,-2.1368,-2.1368,-2.1368,-2.1368,-2.1368,-2.1368,-2.1368,-2.1368,-2.1368,-2.1368,-2.1368,0.0,0.0,0.0,-1.9514,-1.9535,-1.957,-2.0286,-2.0449,-2.053,-2.0906,-2.134,-2.172,-2.2045,-2.2466,-2.2927,-2.3289,-2.37,-2.3999,-2.4235,-2.4609,-2.4786,-2.4786,-2.5192,-2.5287,-2.4826,-2.4921,-2.4826,-2.4303,-2.4276,-2.4208,-2.4134,-2.4121,-2.4053,-2.389,-2.347,-2.3375,-2.366,-2.3076,-2.2859,-2.2995,-2.2696,-2.2617,-2.2617,-2.263,-2.2644,-2.263,-2.263,-2.263,-2.2603,-2.2235,-2.2113,-2.2099,-2.1937,-2.1801,-2.1665,-2.1665,-2.157,-2.1368,-2.1368,-2.1368,-2.1368,-2.1368,-2.1368,-2.1368,-2.1368,-2.1368,-2.1368,-2.1368,-2.1368,-2.1341,-2.1258,-2.1123,-2.1055,-2.119,-2.1218,-2.1218,-2.1218,-2.134,-2.1247,-2.0865,-2.0892,-2.096,-2.0811,-2.0648,-2.0702,-2.1136,-2.096,-2.0878,-2.1177,-2.1082,-2.1055,-2.119,-2.1218,-2.1285,-2.1421,-2.1368,-2.1368,-2.1368,-2.1368,-2.1368,-2.1368,-2.1368,-2.1368,-2.1368,-2.1368,-2.1368,-2.1368,-2.1368,-2.1368,-2.1368,-2.1368,-2.1368,-1.8097,0.0,0.0,0.0,0.0,0.0,-1.9637,-1.9725,-1.9827,-2.0404,-2.0702,-2.1055,-2.1665,-2.2167,-2.2601,-2.3063,-2.347,-2.3917,-2.4433,-2.4772,-2.4948,-2.4948,-2.5247,-2.5247,-2.4691,-2.4663,-2.4596,-2.429,-2.4243,-2.4202,-2.4208,-2.4066,-2.3931,-2.389,-2.3687,-2.3483,-2.3347,-2.3076,-2.2859,-2.2683,-2.2658,-2.2506,-2.2411,-2.2723,-2.2818,-2.271,-2.271,-2.271,-2.2696,-2.2398,-2.2221,-2.2099,-2.1937,-2.1801,-2.1652,-2.1543,-2.1475,-2.1368,-2.1368,-2.1368,-2.1368,-2.1368,-2.1368,-2.1368,-2.1368,-2.1368,-2.1368,-2.1368,-2.1368,-2.1421,-2.1328,-2.1353,-2.1274,-2.1367,-2.1367,-2.1367,-2.1367,-2.1341,-2.134,-2.1001,-2.1055,-2.1109,-2.096,-2.0892,-2.0906,-2.1041,-2.0987,-2.096,-2.1055,-2.1109,-2.1177,-2.1218,-2.1313,-2.1394,-2.1368,-2.1368,-2.1368,-2.1368,-2.1368,-2.1368,-2.1368,-2.1368,-2.1368,-2.1368,-2.1368,-2.1368,-2.1368,-2.1368,-2.1368,-2.1368,-2.1368,-2.1368,-1.8043,-1.8219,-1.8464,-1.8925,0.0,0.0,-1.9549,-1.9576,-1.963,-1.9983,-2.0309,-2.0702,-2.119,-2.1815,-2.2288,-2.2669,-2.3198,-2.3768,-2.4297,-2.4636,-2.4867,-2.4921,-2.5125,-2.5111,-2.4704,-2.465,-2.4582,-2.429,-2.4256,-2.4229,-2.4243,-2.408,-2.3985,-2.3985,-2.3836,-2.3687,-2.351,-2.3171,-2.2927,-2.2751,-2.2547,-2.2479,-2.2534,-2.2723,-2.2832,-2.2873,-2.2818,-2.2778,-2.2764,-2.2588,-2.2398,-2.2194,-2.2113,-2.195,-2.1747,-2.1652,-2.1543,-2.1368,-2.1368,-2.1368,-2.1368,-2.1368,-2.1368,-2.1368,-2.1368,-2.1368,-2.1368,-2.1368,-2.1368,-2.1368,-2.1368,-2.1368,-2.1368,-2.1368,-2.1368,-2.1355,-2.1353,-2.1394,-2.1367,-2.1136,-2.1163,-2.119,-2.1109,-2.1041,-2.1041,-2.1163,-2.1123,-2.1109,-2.1177,-2.1258,-2.1299,-2.1299,-2.1328,-2.1368,-2.1368,-2.1368,-2.1368,-2.1368,-2.1368,-2.1368,-2.1368,-2.1368,-2.1368,-2.1368,-2.1368,-2.1368,-2.1368,-2.1368,-2.1368,-2.1368,-2.1368,-2.1368,-1.8111,-1.8124,-1.8342,-1.9142,-1.9183,0.0,-1.9773,-1.98,-1.9718,-1.9827,-2.0173,-2.058,-2.0811,-2.1516,-2.2113,-2.218,-2.2815,-2.3537,-2.4039,-2.4365,-2.4623,-2.4758,-2.4894,-2.4935,-2.4758,-2.4745,-2.4636,-2.4276,-2.4263,-2.4256,-2.4121,-2.4121,-2.4121,-2.4107,-2.3985,-2.389,-2.3836,-2.3334,-2.3049,-2.3008,-2.2574,-2.252,-2.2778,-2.2656,-2.2764,-2.3022,-2.2886,-2.2832,-2.2832,-2.2805,-2.2628,-2.2357,-2.2344,-2.2167,-2.1896,-2.1882,-2.172,-2.1489,-2.1489,-2.1489,-2.1489,-2.1489,-2.1475,-2.1462,-2.1462,-2.1395,-2.1368,-2.1368,-2.1368,-2.1368,-2.1368,-2.1368,-2.1368,-2.1368,-2.1368,-2.1341,-2.1258,-2.1353,-2.1341,-2.1258,-2.1231,-2.1231,-2.1231,-2.1136,-2.1136,-2.1341,-2.1313,-2.1285,-2.1355,-2.1368,-2.1368,-2.1368,-2.1368,-2.1368,-2.1368,-2.1368,-2.1368,-2.1368,-2.1368,-2.1368,-2.1368,-2.1368,-2.1368,-2.1368,-2.1368,-2.1368,-2.1368,-2.1368,-2.1368,-2.1368,-2.1368,-2.1368,-1.8179,-1.8355,-1.8518,-1.8816,-1.902,0.0,-1.963,-1.959,-1.9671,-2.0404,-2.0458,-2.0553,-2.119,-2.1543,-2.176,-2.1801,-2.2425,-2.3158,-2.3836,-2.4297,-2.4582,-2.4672,-2.4745,-2.4745,-2.446,-2.4433,-2.4365,-2.4175,-2.4175,-2.4161,-2.4121,-2.4121,-2.4066,-2.3944,-2.4039,-2.3904,-2.3465,-2.3415,-2.3239,-2.3008,-2.2683,-2.2601,-2.2778,-2.2886,-2.3008,-2.3185,-2.3158,-2.313,-2.3117,-2.2886,-2.2683,-2.2506,-2.2398,-2.2235,-2.2059,-2.1937,-2.1842,-2.1787,-2.1787,-2.1787,-2.1787,-2.1787,-2.172,-2.1625,-2.1625,-2.1543,-2.1368,-2.1368,-2.1368,-2.1368,-2.1368,-2.1368,-2.1368,-2.1368,-2.1368,-2.1368,-2.1341,-2.1355,-2.1421,-2.1341,-2.1394,-2.1394,-2.1394,-2.1367,-2.1367,-2.1368,-2.1355,-2.1341,-2.1368,-2.1368,-2.1368,-2.1368,-2.1368,-2.1368,-2.1368,-2.1368,-2.1368,-2.1368,-2.1368,-2.1368,-2.1368,-2.1368,-2.1368,-2.1368,-2.1368,-2.1368,-2.1368,-2.1368,-2.1368,-2.1368,-2.1368,-2.1368,-1.8165,-1.8314,-1.8464,-1.8599,-1.8871,0.0,0.0,-1.9481,-1.963,-1.9929,-2.0173,-2.0404,-2.0607,-2.1163,-2.157,-2.157,-2.2127,-2.2751,-2.3253,-2.3727,-2.4066,-2.4216,-2.4229,-2.4243,-2.4168,-2.4175,-2.4121,-2.4121,-2.4053,-2.4012,-2.4012,-2.3944,-2.389,-2.389,-2.3958,-2.389,-2.3673,-2.3592,-2.3456,-2.3225,-2.2927,-2.2859,-2.2995,-2.2927,-2.3008,-2.3225,-2.3158,-2.3158,-2.3198,-2.2995,-2.2805,-2.2656,-2.2506,-2.2357,-2.2221,-2.214,-2.2004,-2.1896,-2.1977,-2.195,-2.1869,-2.1801,-2.1774,-2.1747,-2.1597,-2.1489,-2.1368,-2.1368,-2.1368,-2.1368,-2.1368,-2.1368,-2.1368,-2.1368,-2.1368,-2.1368,-2.1368,-2.1368,-2.1368,-2.1368,-2.1368,-2.1368,-2.1368,-2.1368,-2.1368,-2.1368,-2.1368,-2.1368,-2.1368,-2.1368,-2.1368,-2.1368,-2.1368,-2.1368,-2.1368,-2.1368,-2.1368,-2.1368,-2.1368,-2.1368,-2.1368,-2.1368,-2.1368,-2.1368,-2.1368,-2.1368,-2.1368,-2.1301,-2.1274,-2.1274,-2.1274,-2.1274,-1.8314,-1.8369,-1.8491,-1.8654,-1.8871,-1.9074,0.0,0.0,0.0,-1.9508,-1.9942,-2.0295,-2.0051,-2.0729,-2.1287,-2.1313,-2.1774,-2.2344,-2.2574,-2.294,-2.3347,-2.3975,-2.3792,-2.3733,-2.4194,-2.4071,-2.3997,-2.4066,-2.4065,-2.397,-2.3863,-2.3754,-2.3727,-2.3836,-2.3877,-2.3877,-2.3863,-2.3768,-2.3646,-2.3483,-2.3225,-2.3171,-2.3307,-2.3063,-2.3076,-2.3307,-2.3185,-2.3185,-2.3253,-2.3117,-2.2981,-2.2846,-2.2642,-2.2466,-2.2274,-2.2274,-2.2181,-2.1991,-2.2113,-2.2072,-2.195,-2.1828,-2.1828,-2.1828,-2.153,-2.1368,-2.1368,-2.1368,-2.1368,-2.1368,-2.1368,-2.1368,-2.1368,-2.1368,-2.1368,-2.1368,-2.1368,-2.1368,-2.1368,-2.1368,-2.1368,-2.1368,-2.1368,-2.1368,-2.1368,-2.1368,-2.1368,-2.1368,-2.1368,-2.1368,-2.1368,-2.1368,-2.1368,-2.1368,-2.1368,-2.1368,-2.1368,-2.1368,-2.1368,-2.1368,-2.1368,-2.1368,-2.1368,-2.1368,-2.1368,-2.1421,-2.1394,-2.1258,-2.1218,-2.1218,-2.1218,-2.1218,-1.8979,-1.8993,-1.8979,-1.925,-1.925,-1.9291,-1.9698,0.0,-2.0119,-2.0286,0.0,-2.0449,-2.0471,0.0,0.0,-2.0878,-2.1462,-2.195,-2.1991,-2.214,-2.2784,-2.4356,-2.3684,-2.3485,-2.4441,-2.4328,-2.4123,-2.3964,-2.4318,-2.4293,-2.3774,-2.3687,-2.3687,-2.37,-2.3822,-2.3836,-2.37,-2.3822,-2.3809,-2.3646,-2.3483,-2.3483,-2.3632,-2.3592,-2.3592,-2.3632,-2.3605,-2.3537,-2.3343,-2.3253,-2.3185,-2.313,-2.278,-2.2466,-2.2274,-2.2274,-2.2247,-2.2289,-2.2303,-2.2303,-2.222,-2.2276,-2.2099,-2.1828,-2.153,-2.1368,-2.1368,-2.1368,-2.1368,-2.1368,-2.1368,-2.1368,-2.1368,-2.1368,-2.1368,-2.1368,-2.1368,-2.1368,-2.1368,-2.1368,-2.1368,-2.1368,-2.1368,-2.1368,-2.1368,-2.1368,-2.1368,-2.1368,-2.1368,-2.1368,-2.1368,-2.1368,-2.1368,-2.1368,-2.1368,-2.1368,-2.1368,-2.1368,-2.1368,-2.1368,-2.1368,-2.1368,-2.1368,-2.1368,-2.1368,-2.1367,-2.1231,-2.1218,-2.1218,-2.1218,-2.1218,-2.1218,-1.8898,-1.9101,-1.9223,-1.9074,-1.925,-1.9522,-1.9712,0.0,-1.9983,-2.001,0.0,0.0,0.0,0.0,0.0,0.0,-2.1313,-2.1652,-2.1747,-2.2302,-2.2949,-2.3805,-2.3384,-2.3272,-2.3763,-2.3524,-2.3309,-2.3297,-2.3417,-2.3516,-2.3402,-2.3415,-2.3537,-2.3782,-2.3782,-2.3822,-2.3931,-2.3999,-2.3999,-2.3931,-2.3782,-2.37,-2.3687,-2.351,-2.3415,-2.3415,-2.3415,-2.3375,-2.3307,-2.3181,-2.3171,-2.3063,-2.2805,-2.2642,-2.2588,-2.2493,-2.2411,-2.2288,-2.2425,-2.2411,-2.2316,-2.2235,-2.2004,-2.1747,-2.1611,-2.1516,-2.1368,-2.1368,-2.1368,-2.1368,-2.1368,-2.1368,-2.1368,-2.1368,-2.1368,-2.1368,-2.1368,-2.1368,-2.1368,-2.1368,-2.1368,-2.1368,-2.1368,-2.1368,-2.1368,-2.1368,-2.1368,-2.1368,-2.1368,-2.1368,-2.1368,-2.1368,-2.1368,-2.1368,-2.1368,-2.1368,-2.1368,-2.1368,-2.1368,-2.1368,-2.1368,-2.1368,-2.1368,-2.1368,-2.1368,-2.1341,-2.1353,-2.1245,-2.1218,-2.1218,-2.1218,-2.1218,-1.8816,0.0,0.0,0.0,0.0,0.0,0.0,0.0,0.0,0.0,0.0,0.0,0.0,0.0,-2.1001,-2.1001,0.0,-2.1462,-2.153,-2.2106,-2.2773,-2.3469,-2.366,-2.3772,-2.3756,-2.3298,-2.3035,-2.3102,-2.2978,-2.2893,-2.3022,-2.3076,-2.3307,-2.3754,-2.3714,-2.3822,-2.4121,-2.4121,-2.4121,-2.4121,-2.4012,-2.3904,-2.3782,-2.3578,-2.3456,-2.3402,-2.3402,-2.3361,-2.3221,-2.3221,-2.3198,-2.3049,-2.29,-2.2818,-2.2764,-2.2671,-2.2466,-2.2288,-2.2466,-2.2398,-2.2249,-2.214,-2.1923,-2.1665,-2.1665,-2.157,-2.1368,-2.1368,-2.1368,-2.1368,-2.1368,-2.1368,-2.1368,-2.1368,-2.1368,-2.1368,-2.1368,-2.1368,-2.1368,-2.1368,-2.1368,-2.1368,-2.1368,-2.1368,-2.1368,-2.1368,-2.1368,-2.1368,-2.1368,-2.1368,-2.1368,-2.1368,-2.1368,-2.1368,-2.1368,-2.1368,-2.1368,-2.1368,-2.1368,-2.1368,-2.1368,-2.1368,-2.1368,-2.1368,-2.1368,-2.1355,-2.1367,-2.1299,-2.1245,-2.1218,-2.1218,-2.1218,0.0,0.0,0.0,-1.9373,0.0,0.0,0.0,0.0,-1.9956,0.0,0.0,0.0,0.0,0.0,-2.1001,-2.1001,-2.1245,0.0,0.0,-2.1231,-2.1937,-2.3731,-2.482,-2.5232,-2.4984,-2.4379,-2.4001,-2.3847,-2.3335,-2.2851,-2.263,-2.271,-2.2995,-2.3383,-2.3605,-2.3822,-2.4121,-2.4121,-2.4121,-2.4121,-2.4121,-2.4107,-2.4107,-2.4107,-2.4012,-2.3877,-2.3877,-2.3714,-2.3383,-2.3383,-2.3347,-2.3198,-2.3063,-2.29,-2.2764,-2.2671,-2.2466,-2.2274,-2.2344,-2.2249,-2.2113,-2.2113,-2.1923,-2.1665,-2.1665,-2.157,-2.1368,-2.1368,-2.1368,-2.1368,-2.1368,-2.1368,-2.1368,-2.1368,-2.1368,-2.1368,-2.1368,-2.1368,-2.1368,-2.1368,-2.1368,-2.1368,-2.1368,-2.1368,-2.1368,-2.1368,-2.1368,-2.1368,-2.1368,-2.1368,-2.1368,-2.1368,-2.1368,-2.1368,-2.1368,-2.1368,-2.1368,-2.1368,-2.1368,-2.1368,-2.1368,-2.1368,-2.1368,-2.1368,-2.1368,-2.1367,-2.1218,-2.1301,-2.1353,-2.1218,-2.1218,-2.1218,0.0,0.0,-1.9725,-1.9481,0.0,0.0,0.0,0.0,0.0,0.0,0.0,0.0,0.0,0.0,-2.1109,-2.1014,-2.1245,-2.1353,0.0,-2.1766,-2.279,-2.4254,-2.471,-2.4803,-2.4719,-2.3613,-2.2903,-2.295,-2.2265,-2.1947,-2.2235,-2.2411,-2.2696,-2.3144,-2.3402,-2.3632,-2.3822,-2.3931,-2.3958,-2.3958,-2.3958,-2.3931,-2.3836,-2.3931,-2.389,-2.3754,-2.3863,-2.3782,-2.3605,-2.3605,-2.351,-2.3289,-2.3198,-2.2995,-2.2764,-2.2671,-2.2466,-2.2274,-2.2274,-2.2303,-2.2235,-2.2018,-2.195,-2.1896,-2.1611,-2.1543,-2.157,-2.1409,-2.1368,-2.1368,-2.1368,-2.1368,-2.1368,-2.1368,-2.1368,-2.1368,-2.1368,-2.1368,-2.1368,-2.1368,-2.1368,-2.1368,-2.1368,-2.1368,-2.1368,-2.1368,-2.1368,-2.1368,-2.1368,-2.1368,-2.1368,-2.1368,-2.1368,-2.1368,-2.1368,-2.1368,-2.1368,-2.1368,-2.1368,-2.1368,-2.1368,-2.1368,-2.1368,-2.1368,-2.1368,-2.1355,-2.1301,-2.1355,-2.1408,-2.1301,-2.1301,-2.1301,-1.9223,-1.9522,0.0,-1.9644,-1.9807,0.0,-1.9956,0.0,0.0,0.0,0.0,0.0,0.0,0.0,0.0,0.0,0.0,0.0,0.0,-2.2217,-2.3139,-2.4326,-2.481,-2.4873,-2.4691,-2.3712,-2.2929,-2.2404,-2.1804,-2.1521,-2.1692,-2.1964,-2.2303,-2.2764,-2.3117,-2.3402,-2.3592,-2.3754,-2.3822,-2.3822,-2.3877,-2.3836,-2.3768,-2.3904,-2.3931,-2.3836,-2.3877,-2.3809,-2.3687,-2.3632,-2.351,-2.3289,-2.3253,-2.3076,-2.2846,-2.2696,-2.252,-2.2274,-2.2274,-2.2303,-2.2235,-2.2099,-2.2045,-2.1964,-2.1692,-2.1638,-2.1638,-2.1475,-2.1368,-2.1368,-2.1368,-2.1368,-2.1368,-2.1368,-2.1368,-2.1368,-2.1368,-2.1368,-2.1368,-2.1368,-2.1368,-2.1368,-2.1368,-2.1368,-2.1368,-2.1368,-2.1368,-2.1368,-2.1368,-2.1368,-2.1368,-2.1368,-2.1368,-2.1368,-2.1368,-2.1368,-2.1368,-2.1368,-2.1368,-2.1368,-2.1368,-2.1368,-2.1368,-2.1368,-2.1368,-2.1368,-2.1368,-2.1368,-2.1368,-2.1368,-2.1368,-2.1368]},{"header":{"parameterUnit":"m.s-1","parameterCategory":1,"la1":30.6,"la2":29.2853,"lo1":-89.7004,"lo2":-87.6739,"dy":0.0162,"dx":0.0183,"nx":112,"ny":82,"refTime":"2024-06-17T18:00:00:Z","depth":0,"parameterNumber":3,"parameterNumberName":"V-component_of_WINDS"},"data":[0.0,0.0,0.0,0.0,0.0,0.0,0.0,0.0,0.0,0.0,0.0,0.0,0.0,0.0,0.0,0.0,0.0,0.0,0.0,0.0,0.0,0.0,0.0,0.0,0.0,0.0,0.0,0.0,0.0,0.0,0.0,0.0,0.0,0.0,0.0,0.0,0.0,0.0,0.0,0.0,0.0,0.0,0.0,0.0,0.0,0.0,0.0,0.0,0.0,0.0,0.0,0.0,0.0,0.0,0.0,0.0,0.0,0.0,0.0,0.0,0.0,0.0,0.0,0.0,0.0,0.0,0.0,0.0,0.0,0.0,0.0,0.0,0.0,0.0,0.0,0.0,0.0,0.0,0.0,0.0,0.0,0.0,0.0,0.0,0.0,0.0,0.0,0.0,0.0,0.0,7.341,7.5969,7.9652,8.1894,8.1671,8.0185,7.7238,7.2315,0.0,0.0,0.0,0.0,0.0,0.0,0.0,0.0,0.0,0.0,0.0,0.0,0.0,0.0,0.0,0.0,0.0,0.0,0.0,0.0,0.0,0.0,0.0,0.0,0.0,0.0,0.0,0.0,0.0,0.0,0.0,0.0,0.0,0.0,0.0,0.0,0.0,0.0,0.0,0.0,0.0,0.0,0.0,0.0,0.0,0.0,0.0,0.0,0.0,0.0,0.0,0.0,0.0,0.0,0.0,0.0,0.0,0.0,0.0,0.0,0.0,0.0,0.0,0.0,0.0,0.0,0.0,0.0,0.0,0.0,0.0,0.0,0.0,0.0,0.0,0.0,0.0,0.0,0.0,0.0,0.0,0.0,0.0,0.0,0.0,0.0,0.0,0.0,0.0,0.0,0.0,0.0,0.0,0.0,0.0,0.0,0.0,0.0,0.0,0.0,0.0,0.0,0.0,0.0,7.3838,7.8448,8.0798,8.1448,8.0036,7.8996,7.6338,7.1416,0.0,0.0,0.0,0.0,0.0,0.0,0.0,0.0,0.0,0.0,0.0,0.0,0.0,0.0,0.0,0.0,0.0,0.0,0.0,0.0,0.0,0.0,0.0,0.0,0.0,0.0,0.0,0.0,0.0,0.0,0.0,0.0,0.0,0.0,0.0,0.0,0.0,0.0,0.0,0.0,0.0,0.0,0.0,0.0,0.0,0.0,0.0,0.0,0.0,0.0,0.0,0.0,0.0,0.0,0.0,0.0,0.0,0.0,0.0,0.0,0.0,0.0,0.0,0.0,0.0,0.0,0.0,0.0,0.0,0.0,0.0,0.0,0.0,0.0,0.0,0.0,0.0,0.0,0.0,0.0,0.0,0.0,0.0,0.0,0.0,0.0,0.0,0.0,0.0,0.0,0.0,0.0,0.0,0.0,0.0,0.0,0.0,0.0,0.0,0.0,0.0,0.0,0.0,7.4488,7.6582,8.0456,8.1523,8.1671,8.0928,7.8922,7.5896,7.1866,6.894,0.0,0.0,0.0,0.0,0.0,0.0,0.0,0.0,0.0,0.0,0.0,0.0,0.0,0.0,0.0,0.0,0.0,0.0,0.0,0.0,0.0,0.0,0.0,0.0,0.0,0.0,0.0,0.0,0.0,0.0,0.0,0.0,0.0,0.0,0.0,0.0,0.0,0.0,0.0,0.0,0.0,0.0,0.0,0.0,0.0,0.0,0.0,0.0,0.0,0.0,0.0,0.0,0.0,0.0,0.0,0.0,0.0,0.0,0.0,0.0,0.0,0.0,0.0,0.0,0.0,0.0,0.0,0.0,0.0,0.0,0.0,0.0,0.0,0.0,0.0,0.0,0.0,0.0,0.0,0.0,0.0,0.0,0.0,0.0,0.0,0.0,0.0,0.0,0.0,0.0,0.0,0.0,0.0,0.0,0.0,0.0,0.0,0.0,0.0,0.0,0.0,0.0,7.8069,7.9222,8.197,8.2266,8.2117,8.1746,7.8847,7.5644,7.2259,6.9224,0.0,0.0,0.0,0.0,0.0,0.0,0.0,0.0,0.0,0.0,0.0,0.0,0.0,0.0,0.0,0.0,0.0,0.0,0.0,0.0,0.0,0.0,0.0,0.0,0.0,0.0,0.0,0.0,0.0,0.0,0.0,0.0,0.0,0.0,0.0,0.0,0.0,0.0,0.0,0.0,0.0,0.0,0.0,0.0,0.0,0.0,0.0,0.0,0.0,0.0,0.0,0.0,0.0,0.0,0.0,0.0,0.0,0.0,0.0,0.0,0.0,0.0,0.0,0.0,0.0,0.0,0.0,0.0,0.0,0.0,0.0,0.0,0.0,0.0,0.0,0.0,0.0,0.0,0.0,0.0,0.0,0.0,0.0,0.0,0.0,0.0,0.0,0.0,0.0,0.0,0.0,0.0,0.0,0.0,0.0,0.0,0.0,0.0,0.0,0.0,0.0,0.0,7.7877,8.0337,8.2846,8.3158,8.2489,8.0914,7.855,7.5536,7.1954,6.9448,0.0,0.0,0.0,0.0,0.0,0.0,0.0,0.0,0.0,0.0,0.0,0.0,0.0,0.0,0.0,0.0,0.0,0.0,0.0,0.0,0.0,0.0,0.0,0.0,0.0,0.0,0.0,0.0,0.0,0.0,0.0,0.0,0.0,0.0,0.0,0.0,0.0,0.0,0.0,0.0,0.0,0.0,0.0,0.0,0.0,0.0,0.0,0.0,0.0,0.0,0.0,0.0,0.0,0.0,0.0,0.0,0.0,0.0,0.0,0.0,0.0,0.0,0.0,0.0,0.0,0.0,0.0,0.0,0.0,0.0,0.0,0.0,0.0,0.0,0.0,0.0,0.0,0.0,0.0,0.0,0.0,0.0,0.0,0.0,0.0,0.0,0.0,0.0,0.0,0.0,0.0,0.0,0.0,0.0,0.0,0.0,0.0,0.0,0.0,0.0,0.0,0.0,7.7399,7.9788,8.2846,8.2266,8.1374,8.0765,7.803,7.5102,7.2211,0.0,0.0,0.0,0.0,0.0,0.0,0.0,0.0,0.0,0.0,0.0,0.0,0.0,0.0,0.0,0.0,0.0,0.0,0.0,0.0,0.0,0.0,0.0,0.0,0.0,0.0,0.0,0.0,0.0,0.0,0.0,0.0,0.0,0.0,0.0,0.0,0.0,0.0,0.0,0.0,0.0,0.0,0.0,0.0,0.0,0.0,0.0,0.0,0.0,0.0,0.0,0.0,0.0,0.0,0.0,0.0,0.0,0.0,0.0,0.0,0.0,0.0,0.0,0.0,0.0,0.0,0.0,0.0,0.0,0.0,0.0,0.0,0.0,0.0,0.0,0.0,0.0,0.0,0.0,0.0,0.0,0.0,0.0,0.0,0.0,0.0,0.0,0.0,0.0,0.0,0.0,0.0,0.0,0.0,0.0,0.0,0.0,0.0,0.0,0.0,0.0,0.0,7.5416,7.765,8.0011,8.292,8.2192,8.1285,8.078,7.7719,7.4828,7.2559,0.0,0.0,0.0,0.0,0.0,0.0,0.0,0.0,0.0,0.0,0.0,0.0,0.0,0.0,0.0,0.0,0.0,0.0,0.0,0.0,0.0,0.0,0.0,0.0,0.0,0.0,0.0,0.0,0.0,0.0,0.0,0.0,0.0,0.0,0.0,0.0,0.0,0.0,0.0,0.0,0.0,0.0,0.0,0.0,0.0,0.0,0.0,0.0,0.0,0.0,0.0,0.0,0.0,0.0,0.0,0.0,0.0,0.0,0.0,0.0,0.0,0.0,0.0,0.0,0.0,0.0,0.0,0.0,0.0,0.0,0.0,0.0,0.0,0.0,0.0,0.0,0.0,0.0,0.0,0.0,0.0,0.0,0.0,0.0,0.0,0.0,0.0,0.0,0.0,0.0,0.0,0.0,0.0,0.0,0.0,0.0,0.0,0.0,0.0,0.0,0.0,0.0,7.5564,7.8685,8.136,8.3009,8.3232,8.2489,8.084,7.7733,7.5025,0.0,0.0,0.0,0.0,0.0,0.0,0.0,0.0,0.0,0.0,0.0,0.0,0.0,0.0,0.0,0.0,0.0,0.0,0.0,0.0,0.0,0.0,0.0,0.0,0.0,0.0,0.0,0.0,0.0,0.0,0.0,0.0,0.0,0.0,0.0,0.0,0.0,0.0,0.0,0.0,0.0,0.0,0.0,0.0,0.0,0.0,0.0,0.0,0.0,0.0,0.0,0.0,0.0,0.0,0.0,0.0,0.0,0.0,0.0,0.0,0.0,0.0,0.0,0.0,0.0,0.0,0.0,0.0,0.0,0.0,0.0,0.0,0.0,0.0,0.0,0.0,0.0,0.0,0.0,0.0,0.0,0.0,0.0,0.0,0.0,0.0,0.0,0.0,0.0,0.0,0.0,0.0,0.0,0.0,0.0,0.0,0.0,0.0,0.0,0.0,0.0,0.0,0.0,7.5443,7.8629,8.136,8.3009,8.2712,8.1894,8.0765,7.8253,7.5699,7.3466,0.0,0.0,0.0,0.0,0.0,0.0,0.0,0.0,0.0,0.0,0.0,0.0,0.0,0.0,0.0,0.0,0.0,0.0,0.0,0.0,0.0,0.0,0.0,0.0,0.0,0.0,0.0,0.0,0.0,0.0,0.0,0.0,0.0,0.0,0.0,0.0,0.0,0.0,0.0,0.0,0.0,0.0,0.0,0.0,0.0,0.0,0.0,0.0,0.0,0.0,0.0,0.0,0.0,0.0,0.0,0.0,0.0,0.0,0.0,0.0,0.0,0.0,0.0,0.0,0.0,0.0,0.0,0.0,0.0,0.0,0.0,0.0,0.0,0.0,0.0,0.0,0.0,0.0,0.0,0.0,0.0,0.0,0.0,0.0,0.0,0.0,0.0,0.0,0.0,0.0,0.0,0.0,0.0,0.0,0.0,0.0,0.0,0.0,0.0,0.0,0.0,0.0,7.547,7.8643,8.136,8.3009,8.2786,8.2117,8.13,7.9293,7.6692,7.3571,0.0,0.0,0.0,0.0,0.0,0.0,0.0,0.0,0.0,0.0,0.0,0.0,0.0,0.0,0.0,0.0,0.0,0.0,0.0,0.0,0.0,0.0,0.0,0.0,0.0,0.0,0.0,0.0,0.0,0.0,0.0,0.0,0.0,0.0,0.0,0.0,0.0,0.0,0.0,0.0,0.0,0.0,0.0,0.0,0.0,0.0,0.0,0.0,0.0,0.0,0.0,0.0,0.0,0.0,0.0,0.0,0.0,0.0,0.0,0.0,0.0,0.0,0.0,0.0,0.0,0.0,0.0,0.0,0.0,0.0,0.0,0.0,0.0,0.0,0.0,0.0,0.0,0.0,0.0,0.0,0.0,0.0,0.0,0.0,0.0,0.0,0.0,0.0,0.0,0.0,0.0,0.0,0.0,0.0,0.0,0.0,0.0,0.0,0.0,0.0,0.0,0.0,7.5699,7.8759,8.1448,8.3009,8.3232,8.286,8.2043,8.0557,7.7881,7.3868,0.0,0.0,0.0,0.0,0.0,0.0,0.0,0.0,0.0,0.0,0.0,0.0,0.0,0.0,0.0,0.0,0.0,0.0,0.0,0.0,0.0,0.0,0.0,0.0,0.0,0.0,0.0,0.0,0.0,0.0,0.0,0.0,0.0,0.0,0.0,0.0,0.0,0.0,0.0,0.0,0.0,0.0,0.0,0.0,0.0,0.0,0.0,0.0,0.0,0.0,0.0,0.0,0.0,0.0,0.0,0.0,0.0,0.0,0.0,0.0,8.0541,8.0567,0.0,0.0,0.0,0.0,0.0,0.0,0.0,0.0,0.0,0.0,0.0,0.0,0.0,0.0,0.0,0.0,0.0,0.0,0.0,0.0,0.0,0.0,0.0,0.0,0.0,0.0,0.0,0.0,0.0,0.0,0.0,0.0,0.0,0.0,0.0,0.0,0.0,0.0,0.0,0.0,7.6481,7.9594,8.2117,8.3083,8.3232,8.286,8.2043,8.1077,7.8996,7.5503,7.3348,0.0,0.0,0.0,0.0,0.0,0.0,0.0,0.0,0.0,0.0,0.0,0.0,0.0,0.0,0.0,0.0,0.0,0.0,0.0,0.0,0.0,0.0,0.0,0.0,0.0,0.0,0.0,0.0,0.0,0.0,0.0,0.0,0.0,0.0,0.0,0.0,0.0,0.0,0.0,0.0,0.0,0.0,0.0,0.0,0.0,0.0,0.0,0.0,0.0,0.0,0.0,0.0,0.0,0.0,0.0,0.0,0.0,0.0,0.0,8.5366,8.4427,0.0,0.0,0.0,0.0,0.0,0.0,0.0,0.0,0.0,0.0,0.0,0.0,0.0,0.0,0.0,0.0,0.0,0.0,0.0,0.0,0.0,0.0,0.0,0.0,0.0,0.0,0.0,0.0,0.0,0.0,0.0,0.0,0.0,0.0,0.0,0.0,0.0,0.0,0.0,0.0,7.6819,8.0291,8.2712,8.3158,8.3529,8.3455,8.2637,8.182,8.0111,7.7213,7.5057,0.0,0.0,0.0,0.0,0.0,0.0,0.0,0.0,0.0,0.0,0.0,0.0,0.0,0.0,0.0,0.0,0.0,0.0,0.0,0.0,0.0,0.0,0.0,0.0,0.0,0.0,0.0,0.0,0.0,0.0,0.0,0.0,0.0,0.0,0.0,0.0,0.0,0.0,0.0,0.0,0.0,0.0,0.0,0.0,0.0,0.0,0.0,0.0,0.0,0.0,0.0,0.0,0.0,9.4268,9.438,9.5345,9.4011,9.4056,9.5051,9.1374,8.9644,8.9334,8.8374,0.0,0.0,0.0,0.0,0.0,0.0,0.0,0.0,0.0,0.0,0.0,0.0,0.0,0.0,0.0,0.0,0.0,0.0,0.0,0.0,0.0,0.0,8.2206,0.0,8.2249,8.1358,7.7625,0.0,0.0,0.0,0.0,0.0,0.0,0.0,0.0,0.0,0.0,0.0,7.751,8.1077,8.3381,8.3381,8.396,8.4049,8.3306,8.2563,8.1226,7.8847,7.699,7.445,0.0,0.0,0.0,0.0,0.0,0.0,0.0,0.0,0.0,0.0,0.0,0.0,0.0,0.0,0.0,0.0,0.0,0.0,0.0,0.0,0.0,0.0,0.0,0.0,0.0,0.0,0.0,0.0,0.0,0.0,0.0,0.0,8.9551,9.054,0.0,0.0,0.0,0.0,0.0,0.0,0.0,0.0,0.0,0.0,0.0,0.0,0.0,9.6678,9.8022,9.9209,9.904,9.7628,9.9313,9.9488,9.8258,9.8028,9.8442,9.9259,9.8702,0.0,9.3648,9.0608,0.0,0.0,0.0,0.0,0.0,0.0,0.0,0.0,0.0,0.0,0.0,0.0,0.0,0.0,0.0,0.0,0.0,0.0,0.0,0.0,0.0,0.0,8.5523,8.5838,8.7086,8.7482,0.0,8.0678,7.6741,7.538,7.5294,0.0,0.0,0.0,0.0,0.0,0.0,0.0,8.0036,8.2549,8.4257,8.4257,8.4332,8.4049,8.3306,8.3083,8.2266,8.0482,7.8179,7.6321,7.5044,7.0796,0.0,0.0,0.0,0.0,0.0,0.0,0.0,0.0,0.0,0.0,0.0,0.0,0.0,0.0,0.0,0.0,0.0,0.0,0.0,0.0,0.0,0.0,0.0,0.0,0.0,0.0,0.0,0.0,0.0,9.1193,9.3024,9.3408,9.4911,9.555,0.0,0.0,0.0,0.0,0.0,0.0,0.0,0.0,0.0,10.1506,10.1571,10.21,10.3025,10.3585,10.3496,10.2686,10.3708,10.401,10.3789,10.3328,10.3482,10.4328,10.2876,10.1596,10.0199,9.6239,9.4428,9.3953,0.0,0.0,0.0,0.0,9.1483,9.1092,9.1301,9.1102,9.0481,8.851,0.0,0.0,0.0,0.0,0.0,0.0,0.0,8.6557,0.0,0.0,8.9795,8.9305,8.9783,8.9974,8.8513,8.5887,8.2788,0.0,7.9695,7.928,7.6615,0.0,0.0,0.0,0.0,8.0531,8.1652,8.3734,8.4926,8.448,8.4406,8.4272,8.3901,8.3455,8.3083,8.2771,8.0482,7.855,7.7287,7.4227,7.1701,0.0,0.0,0.0,0.0,0.0,0.0,0.0,0.0,0.0,0.0,0.0,0.0,0.0,0.0,0.0,0.0,0.0,0.0,0.0,0.0,0.0,0.0,0.0,0.0,0.0,0.0,0.0,0.0,9.4382,9.5332,9.6061,9.7387,9.7862,0.0,0.0,0.0,0.0,0.0,0.0,10.2688,10.3975,10.5392,10.6905,10.7289,10.7938,10.8703,10.8164,10.801,10.801,10.778,10.801,10.8713,10.801,10.7934,10.8175,10.6328,10.5482,10.5087,10.0486,9.7912,9.6779,9.5684,9.5365,9.5414,9.5081,9.5245,9.5574,9.5883,9.6034,9.5651,9.3562,9.15,8.9454,8.7052,0.0,0.0,0.0,0.0,9.0936,9.2178,9.296,9.3184,9.21,9.2172,9.2249,9.1095,9.063,8.9062,0.0,8.4163,8.3726,8.0651,0.0,0.0,0.0,8.1355,8.2925,8.374,8.5176,8.5849,8.5253,8.4882,8.4629,8.4406,8.3678,8.3455,8.4035,8.2192,8.0482,7.9293,7.7213,7.4598,7.1316,0.0,0.0,0.0,0.0,0.0,0.0,0.0,0.0,0.0,0.0,0.0,0.0,0.0,0.0,0.0,0.0,0.0,0.0,0.0,0.0,0.0,0.0,0.0,0.0,0.0,0.0,0.0,0.0,0.0,9.8614,9.9451,0.0,0.0,0.0,0.0,10.3385,10.58,10.7908,10.9663,11.1378,11.2723,11.3462,11.2769,11.3242,11.4791,11.3176,11.2406,11.2406,11.1626,11.1318,11.1318,11.1318,11.0791,11.0109,10.9867,10.8482,10.5933,10.0933,9.9584,10.0397,9.7155,9.6484,9.7358,9.6199,9.6691,9.7794,9.7461,9.7375,9.7568,9.8828,9.7194,9.4586,9.3862,9.2476,0.0,0.0,9.3597,9.3427,9.456,9.4846,9.4692,9.3787,9.4864,9.5557,9.3864,9.4328,9.3761,0.0,8.8367,8.7937,8.6488,0.0,8.5772,8.4559,8.5151,8.6049,8.6872,8.7283,8.7448,8.7448,8.6265,8.5223,8.448,8.3678,8.3232,8.3232,8.2415,8.1894,8.182,7.8773,7.6544,7.5503,7.1688,0.0,0.0,0.0,0.0,0.0,0.0,0.0,0.0,0.0,0.0,0.0,0.0,0.0,0.0,0.0,0.0,0.0,0.0,0.0,0.0,0.0,0.0,0.0,0.0,0.0,0.0,0.0,0.0,10.1306,10.2635,0.0,10.3135,10.5023,10.6513,10.7199,10.8986,11.0889,11.2614,11.4318,11.5605,11.6407,11.6099,11.633,11.6869,11.5715,11.5099,11.5099,11.4868,11.4714,11.4714,11.4176,11.3791,11.3417,11.1714,11.0483,10.9395,10.602,10.3518,10.192,10.0065,9.9975,10.0781,10.0399,10.0476,10.0896,10.0817,10.0404,9.9846,9.9317,9.7968,9.6486,9.5789,9.5078,9.4808,9.6019,9.6174,9.6242,9.724,9.749,9.7105,9.5711,9.5865,9.6019,9.4797,9.4446,9.4148,9.3683,9.2421,9.1122,9.0082,8.9746,8.9171,8.7832,8.8749,8.9348,8.8564,8.8751,8.8747,8.8205,8.7197,8.6477,8.6163,8.5423,8.4591,8.3679,8.2903,8.2066,8.124,7.9516,7.803,7.6692,7.3645,7.1403,0.0,0.0,0.0,0.0,0.0,0.0,0.0,0.0,0.0,0.0,0.0,0.0,0.0,0.0,0.0,0.0,0.0,0.0,0.0,0.0,0.0,0.0,0.0,0.0,0.0,10.0885,10.2509,10.5078,10.6594,10.7624,10.8338,10.9801,11.0896,11.1204,11.2372,11.3868,11.5638,11.6792,11.7792,11.8638,11.8407,11.8177,11.8177,11.7715,11.7407,11.7407,11.7407,11.7176,11.6869,11.6407,11.5792,11.5176,11.3483,11.2406,11.1703,10.9483,10.7021,10.4636,10.2789,10.2866,10.3789,10.3174,10.302,10.302,10.2404,10.1635,10.0789,9.9942,9.8865,9.7865,9.7634,9.7403,9.7326,9.8173,9.8404,9.8481,9.9106,9.9259,9.8865,9.748,9.7173,9.7019,9.6412,9.5557,9.5403,9.6865,9.5261,9.3537,9.3251,9.2852,9.2208,9.1531,9.1944,9.2041,9.0989,9.0622,9.0125,8.9581,8.8366,8.7578,8.7566,8.6652,8.58,8.5084,8.4378,8.3519,8.2521,8.151,8.0281,7.8626,7.5879,7.374,7.2211,0.0,0.0,0.0,0.0,0.0,0.0,0.0,0.0,0.0,0.0,0.0,0.0,0.0,0.0,0.0,0.0,0.0,0.0,0.0,0.0,0.0,0.0,0.0,10.1606,10.3067,10.5736,10.9996,11.107,11.2208,11.3931,11.4076,11.4484,11.5418,11.6176,11.7407,11.91,11.9177,11.9562,12.0331,11.9562,11.9177,11.91,11.9177,11.9177,11.91,11.9177,11.8715,11.7869,11.7869,11.7023,11.5407,11.533,11.4407,11.2714,11.1021,10.979,10.8713,10.5328,10.502,10.6164,10.4636,10.402,10.3712,10.202,10.0866,10.0337,10.1096,10.0173,9.9096,9.9875,9.9567,9.9019,9.9875,10.0106,10.0106,10.0106,10.0106,9.9952,9.9019,9.8865,9.8865,9.8865,9.8173,9.7788,9.8634,9.6797,9.5412,9.6249,9.5634,9.5233,9.5661,9.459,0.0,9.4338,9.2856,9.182,9.1809,8.9867,8.8575,8.8587,8.736,8.6755,8.7123,8.6669,8.6228,8.5898,8.4695,8.3199,8.1533,7.8326,7.612,7.4949,0.0,0.0,0.0,0.0,0.0,0.0,0.0,0.0,0.0,0.0,0.0,0.0,0.0,0.0,0.0,0.0,0.0,0.0,0.0,0.0,0.0,10.2641,10.3492,10.4898,10.5967,10.7611,11.0028,11.1515,11.2802,11.3912,11.5726,11.71,11.8023,12.0023,12.11,12.0869,12.1485,12.1716,12.1343,12.1023,12.0562,12.0023,12.0562,12.0562,12.0023,12.0562,12.0485,11.9562,11.9562,11.8715,11.71,11.6407,11.5572,11.4484,11.3407,11.2791,11.2099,10.7482,10.6405,10.7328,10.679,10.6328,10.5482,10.3789,10.302,10.2789,10.2404,10.1866,10.1481,10.1096,10.0789,10.0712,10.0866,10.1019,10.1019,10.1019,10.1019,10.0789,9.9952,9.9721,9.9721,9.9721,9.9019,9.8711,9.9567,9.8644,9.7788,9.8096,9.7403,9.6683,9.6203,9.5809,0.0,9.4052,9.4033,9.4263,9.4707,9.3426,9.24,9.2028,9.0851,8.9227,8.6962,8.6083,8.5768,8.5944,8.4452,8.2868,8.1192,8.0253,7.9345,0.0,0.0,0.0,0.0,0.0,0.0,0.0,0.0,0.0,0.0,0.0,0.0,0.0,0.0,0.0,0.0,0.0,0.0,0.0,0.0,0.0,0.0,10.5332,10.6419,10.8796,10.8898,10.9637,11.2109,11.4099,11.5715,11.6561,11.8331,11.9869,12.11,12.2331,12.3024,12.3178,12.2716,12.21,12.1574,12.0869,12.0331,11.9792,12.0562,12.0793,12.0331,12.1177,12.11,12.0331,12.0331,11.9562,11.8331,11.7792,11.733,11.6792,11.5561,11.5022,11.4561,0.0,0.0,0.0,0.0,10.7405,10.6713,10.4636,10.3712,10.3328,10.3174,10.2712,10.202,10.1866,10.1635,10.1317,10.1317,10.1317,10.1317,10.1317,10.1317,10.1173,10.0712,10.0635,10.0635,10.0635,9.9942,9.9567,10.0404,9.9952,0.0,9.9788,9.8865,9.7971,9.7681,9.7164,9.6357,9.5224,9.5021,9.5135,9.5464,9.4558,9.3838,9.3505,9.2317,0.0,0.0,0.0,8.7493,8.7312,8.6018,0.0,0.0,0.0,0.0,0.0,0.0,0.0,0.0,8.2737,8.2932,0.0,0.0,0.0,0.0,0.0,0.0,0.0,0.0,0.0,0.0,0.0,0.0,0.0,0.0,0.0,0.0,10.8401,10.9406,11.2714,11.1791,11.2109,11.5176,11.7715,11.9485,12.0408,12.1331,12.2562,12.4332,12.3716,12.4024,12.5486,12.3332,0.0,0.0,0.0,11.9408,11.9177,12.01,12.0485,12.0331,12.1331,12.1331,12.0408,12.0408,12.0023,11.9177,11.9177,11.9177,11.9023,11.7407,11.6726,11.6187,11.3022,11.2175,11.2329,10.9329,10.8098,10.7636,10.5174,0.0,0.0,10.3789,10.2866,10.1712,10.2404,10.202,10.1317,10.1317,10.1317,10.1317,10.1317,10.1317,10.1317,10.1317,10.1317,10.1317,10.1394,10.0789,10.0491,10.1327,10.0789,10.0491,10.1173,10.0019,9.9076,9.9468,9.8449,9.7529,9.7159,9.6078,9.5326,9.5529,0.0,0.0,9.4059,9.2868,9.2281,9.2606,9.1385,9.0256,8.9358,8.8659,8.7818,8.6967,8.7741,8.7916,8.7401,8.8402,8.8872,8.8932,8.5594,8.491,0.0,0.0,0.0,0.0,0.0,0.0,0.0,0.0,0.0,0.0,0.0,0.0,0.0,0.0,0.0,11.219,11.2173,11.2714,11.5407,11.5495,11.5792,11.7176,11.8407,11.9715,12.1177,12.2716,12.4332,12.6101,12.6101,12.6101,12.6409,12.5332,12.4024,12.2716,12.2331,12.1485,12.01,12.1639,12.1716,12.0331,12.187,0.0,12.1331,12.1331,12.0869,12.01,12.01,11.9715,11.91,11.8715,11.7792,11.6341,11.433,11.3176,11.2472,11.1165,11.0329,10.9483,10.7636,10.6867,10.6482,10.5328,10.4174,10.3328,10.2789,10.202,0.0,10.1317,10.1317,10.1317,10.1317,10.1317,10.1317,10.1317,10.1317,10.1471,10.2174,10.1712,10.1327,10.2174,10.1712,10.1096,10.1327,10.0481,9.9856,9.9941,9.9135,9.8538,9.8481,9.7596,9.7491,9.8685,9.7204,9.6242,9.6429,9.5347,9.4318,9.3538,9.257,9.1372,8.9835,9.0296,8.9835,8.8298,8.9066,8.8794,8.7401,8.894,9.0017,9.071,8.8655,8.8208,0.0,0.0,0.0,0.0,0.0,0.0,0.0,0.0,0.0,0.0,0.0,10.7373,10.987,0.0,11.2005,11.5418,11.5209,11.5484,11.8023,11.8804,11.9111,11.91,12.0639,12.187,12.2793,12.4409,12.6101,12.7794,12.7486,12.7717,12.8563,12.7025,12.5486,12.4178,12.3716,12.287,12.1639,12.287,12.3101,12.2177,12.3101,12.3332,12.2793,12.2408,12.2024,12.1562,12.11,12.0716,12.0331,11.9869,11.9023,11.7715,11.6407,11.4868,11.3176,11.2022,11.1165,11.0637,10.8867,10.8021,10.7636,10.6713,10.5482,10.4328,10.3482,10.2635,10.1866,10.1394,10.1317,10.1317,10.1317,10.1625,10.202,10.202,10.2327,10.2712,10.3174,10.2866,10.2712,10.3174,10.2481,10.202,10.202,10.1327,10.0635,10.0183,9.9721,9.925,9.8865,9.8404,9.8289,9.8556,9.7677,9.6966,9.6693,9.5759,9.4944,9.4394,9.3172,9.2095,9.1248,9.1171,9.1018,9.0642,9.1018,9.1018,9.0556,9.1402,9.2249,9.3095,9.1796,9.1171,0.0,0.0,0.0,0.0,0.0,0.0,0.0,10.4764,10.6376,10.8589,11.096,11.3022,11.4316,11.4998,11.6132,11.8573,11.8407,11.8804,12.1023,12.2024,12.2343,12.1562,12.3178,12.4486,12.4793,12.6332,12.7794,12.9333,12.8794,12.9025,13.041,12.8563,12.6883,12.5717,12.5024,12.4101,12.3101,12.387,12.4332,12.4101,12.4409,12.4409,12.4101,12.3408,12.3024,12.287,12.2024,12.1574,12.1485,12.0716,11.9869,11.9177,11.8407,11.6715,11.4638,11.3022,11.2329,11.1791,11.0175,10.9098,10.8406,10.7867,10.6636,10.5174,10.4405,10.3482,10.2712,10.202,10.1779,10.1779,10.1779,10.2327,10.2866,10.2866,10.3405,10.3866,10.4097,10.402,10.3866,10.4097,10.3405,10.2789,10.2635,10.202,10.1327,10.0491,10.0327,10.0106,9.9404,9.9173,9.8788,9.8096,9.7865,9.748,9.6865,9.6172,9.5643,9.5489,9.4095,9.3172,9.3018,9.2172,9.2018,9.271,9.271,9.3018,9.371,9.3864,9.4412,9.5258,9.4335,9.3633,9.5264,9.6707,9.8462,10.1018,10.2126,10.4115,0.0,11.1137,11.1332,11.2999,11.467,11.5979,11.6199,11.8122,12.0419,12.3024,12.3332,12.3562,12.4716,12.5575,12.6113,12.6036,12.5563,12.5794,12.732,12.8409,12.9333,13.0333,13.0333,13.0333,13.0487,13.0179,12.9025,12.6563,12.6498,12.5563,12.4024,12.4793,12.487,12.4101,12.5717,12.5563,12.4101,12.4024,12.3639,12.287,12.2024,12.1574,12.1485,12.0716,12.0177,12.01,11.9331,11.8331,11.733,11.633,11.5022,11.3637,11.2637,11.1703,11.0714,10.8406,10.7021,10.6097,10.5174,10.4405,10.3712,10.3635,10.3635,10.3635,10.3635,10.3712,10.3789,10.3789,10.3789,10.4097,10.4789,10.4405,10.4097,10.4789,10.4328,10.3482,10.2712,10.2481,10.2174,10.1327,10.1173,10.1087,10.101,10.0404,9.9952,9.9798,9.9096,9.8634,9.8557,9.8404,9.8019,9.725,9.6403,9.5557,9.472,9.3864,9.348,9.3557,9.3557,9.3633,9.371,9.4489,9.5326,9.6095,9.5258,9.4797,9.7202,9.9113,10.1305,10.3482,10.5601,10.829,11.259,11.4372,11.5615,11.6737,11.8331,11.9804,12.0716,12.1793,12.3332,12.587,12.632,12.6794,12.8179,12.8717,12.9102,12.9576,12.8871,12.8563,12.9333,13.0179,13.1025,13.1884,13.2038,13.2179,13.2718,13.2179,13.1025,12.9025,12.8871,12.7794,12.5563,12.6409,12.6409,12.5563,12.6421,12.6332,12.5563,12.4562,12.3716,12.287,12.2485,12.2408,12.2331,12.1408,12.11,12.1035,12.01,11.9562,11.9023,11.7188,11.5803,11.4561,11.3176,11.2175,11.1165,10.9713,10.8175,10.7021,10.6097,10.5328,10.4482,10.402,10.3866,10.3866,10.3866,10.4174,10.4559,10.4559,10.502,10.5636,10.6405,10.602,10.5636,10.6405,10.5482,10.4482,10.4097,10.3712,10.3097,10.2174,10.1625,10.1317,10.1317,10.1019,10.0635,10.0183,9.9336,9.9029,9.949,9.9106,9.8865,9.9019,9.7711,9.6865,9.648,9.5634,9.5403,9.5865,9.5942,9.6172,9.6634,9.7028,9.7644,9.8481,9.7644,9.749,9.9434,10.1482,10.4065,10.5779,10.8786,11.2061,11.4823,11.7529,11.9421,11.9958,12.1485,12.3024,12.4178,12.5024,12.6332,12.864,12.941,13.0025,13.1025,13.141,13.1564,13.1718,13.1179,13.0794,13.0794,13.1564,13.241,13.3256,13.3564,13.3872,13.4334,13.3872,13.2872,13.1179,13.1179,13.0025,12.7409,12.8025,12.7794,12.7025,12.7332,12.7332,12.7025,12.5024,12.3716,12.287,12.287,12.2793,12.2485,12.21,12.1793,12.1485,12.0869,12.0485,12.01,11.8177,11.6869,11.5792,11.433,11.3099,11.2022,11.0868,10.956,10.8175,10.7098,10.6482,10.5867,10.4866,10.4789,10.4866,10.4713,10.502,10.5482,10.5482,10.6097,10.6856,10.7636,10.7405,10.7328,10.7867,10.679,10.5713,10.5482,10.4789,10.3866,10.3097,10.2404,10.1779,10.1394,10.1317,10.1096,10.0481,9.9865,9.9712,10.0414,9.9865,9.9788,10.0404,9.9019,9.825,9.825,9.7403,9.725,9.7865,9.8096,9.8557,9.9173,9.9404,9.9788,10.0404,9.9558,9.949,10.2511,10.4526,10.7388,10.832,11.1176,11.4802,11.8177,12.0869,12.2793,12.2793,12.4101,12.5332,12.5409,12.7409,12.9563,13.1333,13.3026,13.3795,13.3038,13.3718,13.3564,13.1872,13.1718,13.1718,13.1718,13.25,13.3333,13.418,13.5026,13.5103,13.4334,13.5026,13.4718,13.3038,13.2885,13.1718,12.9102,12.9102,12.8705,12.7859,12.8717,12.8717,12.7782,12.5332,12.3716,12.287,12.287,12.2408,12.1727,12.2485,12.2408,12.1574,12.1574,12.1023,12.0331,12.0177,11.91,11.7638,11.6715,11.533,11.3714,11.2022,11.0868,10.979,10.8175,10.8175,10.8406,10.679,10.6856,10.7405,10.6472,10.6318,10.6405,10.6405,10.7021,10.7713,10.7713,10.8329,10.879,10.8867,10.8175,10.7405,10.6472,10.5636,10.4789,10.402,10.3789,10.3174,10.1471,10.1317,10.1317,10.1327,10.1164,10.1164,10.1327,10.1164,10.1164,10.1327,10.0481,10.0029,10.0029,9.9183,9.8711,9.8788,9.9567,10.0029,10.0106,10.0789,10.1164,10.1164,10.0404,10.0106,10.4724,10.6422,10.8638,11.0792,11.3505,11.6407,11.9177,12.1023,12.2177,12.2793,12.4178,12.5717,12.6871,12.8717,13.0564,13.2269,13.4026,13.5026,13.4718,13.5411,13.5334,13.3564,13.2872,13.2577,13.2577,13.2269,13.2718,13.418,13.4564,13.5103,13.5872,13.618,13.5795,13.4718,13.4103,13.2872,13.0871,13.0333,12.964,12.8794,12.9102,12.8486,12.7101,12.6794,12.587,12.4486,12.387,12.3485,12.3178,12.2408,12.187,12.1574,12.1574,12.11,12.0177,11.9715,11.91,11.8484,11.7023,11.5803,11.4561,11.2868,11.1703,11.0791,10.9713,10.9098,10.879,10.8175,10.8329,10.8406,10.8098,10.8098,10.8175,10.879,10.8713,10.879,11.0021,10.9483,10.9098,10.9713,10.9098,10.8406,10.8098,10.7405,10.6328,10.4866,10.3712,10.302,10.302,10.202,10.1471,10.2097,10.1625,10.1471,10.2097,10.1625,10.1779,10.302,10.2174,10.1789,10.1789,10.1481,10.1019,10.0481,10.0712,10.0866,10.0866,10.1173,10.1317,10.1317,10.1635,10.1404,10.6501,10.8103,11.0221,11.2901,11.5484,11.8023,12.0331,12.1716,12.2562,12.2793,12.4178,12.5794,12.7178,12.864,13.0564,13.3795,13.5257,13.618,13.6796,13.7334,13.7026,13.5026,13.3718,13.3038,13.3038,13.2179,13.2487,13.4564,13.4718,13.5334,13.6719,13.6796,13.6488,13.6026,13.518,13.3872,13.2192,13.1333,13.0487,12.9717,12.9333,12.864,12.7563,12.7178,12.6178,12.487,12.4716,12.4178,12.3639,12.2793,12.2331,12.2024,12.1716,12.1343,12.0716,12.0177,11.9792,11.9331,11.7561,11.6407,11.5484,11.4407,11.3099,11.1791,11.0868,11.0329,10.9713,10.9098,10.9098,10.9329,10.9021,10.8867,10.9098,11.0021,11.0021,11.0098,11.1329,11.078,11.0329,11.0637,11.0175,10.979,10.979,10.9098,10.7867,10.5867,10.4636,10.3866,10.3866,10.2866,10.2404,10.302,10.2635,10.2481,10.302,10.2635,10.2789,10.4174,10.3482,10.3174,10.3482,10.3174,10.2789,10.2174,10.2174,10.2174,10.2174,10.2174,10.2174,10.2164,10.2789,10.2635,10.779,10.9713,11.2175,11.4791,11.733,11.9485,12.11,12.2716,12.3639,12.287,12.4101,12.5563,12.6486,12.7409,12.9871,13.5719,13.6565,13.718,13.8873,13.9181,13.8334,13.5795,13.4103,13.3115,13.3115,13.2269,13.2795,13.5334,13.5411,13.5795,13.6719,13.6796,13.6796,13.6796,13.5872,13.4718,13.3115,13.2192,13.1333,13.0564,12.9717,12.9333,12.9102,12.6717,12.5178,12.4332,12.5101,12.4562,12.3101,12.3793,12.3639,12.2793,12.187,12.1574,12.1485,12.1485,12.1023,12.01,11.8484,11.733,11.6572,11.6495,11.4791,11.2714,11.1868,11.1626,11.1165,10.9637,10.9713,11.0098,10.9329,10.9098,10.9329,11.0186,11.1021,11.1472,11.1626,11.2088,11.2406,11.1626,11.1472,11.1472,11.1472,11.0791,10.9406,10.7021,10.6472,10.5867,10.4174,10.402,10.3866,10.402,10.3866,10.3866,10.402,10.402,10.4328,10.5174,10.4482,10.4405,10.5184,10.4482,10.402,10.402,10.3866,10.3866,10.402,10.402,10.402,10.402,10.402,10.3482,10.9175,11.0868,11.3176,11.6407,11.81,11.9177,11.9562,12.01,12.0485,12.0869,12.2793,12.487,12.6409,12.7871,13.0025,13.341,13.4039,13.4808,13.7103,13.8027,13.7719,13.5719,13.5103,13.4564,13.4026,13.318,13.318,13.4487,13.4564,13.5026,13.5795,13.6411,13.6796,13.6796,13.5411,13.4411,13.4026,13.2487,13.1564,13.141,13.1179,13.0102,12.8332,12.8871,12.8409,12.6858,12.6486,12.6101,12.5563,12.387,12.3101,12.2793,12.187,12.1177,12.0562,12.0562,12.0485,12.0177,11.9792,11.8715,11.7407,11.6715,11.5726,11.4484,11.3637,11.2868,11.2329,11.1868,11.1868,11.2022,11.1791,11.1714,11.2022,11.2791,11.2175,11.1703,11.2329,11.2088,11.1703,11.1472,11.1472,11.1472,11.1472,11.0791,11.0021,10.9329,10.8175,10.7021,10.5867,10.4713,10.4097,10.4713,10.4338,10.4405,10.5713,10.5174,10.5713,10.779,10.7175,10.679,10.7021,10.6174,10.5482,10.4789,10.4174,10.4174,10.4789,10.4789,10.4789,10.4789,10.5482,10.502,11.0329,11.2022,11.4099,11.7484,11.8484,11.8715,11.9485,11.91,11.8715,11.91,12.1485,12.3793,12.4421,12.5794,12.8179,13.1795,13.241,13.35,13.6411,13.7873,13.8027,13.6334,13.5719,13.5334,13.4872,13.4103,13.3795,13.4334,13.4334,13.4718,13.5488,13.6334,13.6796,13.6796,13.5488,13.4487,13.3718,13.241,13.1718,13.1718,13.1333,13.0179,12.8486,12.9102,12.8409,12.6794,12.6717,12.6486,12.6024,12.4178,12.3408,12.3332,12.21,12.1343,12.0869,12.0869,12.0869,12.0869,12.0869,11.9792,11.8331,11.7792,11.6561,11.5176,11.4714,11.3714,11.2791,11.3176,11.3022,11.2714,11.2714,11.3022,11.333,11.3407,11.3022,11.2637,11.2714,11.2319,11.2011,11.2011,11.2011,11.1934,11.1626,11.1406,11.0868,10.979,10.9175,10.8406,10.7098,10.579,10.5174,10.5636,10.5636,10.6097,10.7405,10.7405,10.8098,10.9867,10.9329,10.879,10.879,10.8021,10.7328,10.679,10.602,10.602,10.679,10.602,10.5867,10.6174,10.6405,10.5713,11.1483,11.3099,11.4868,11.81,11.8331,11.8023,11.9485,11.8561,11.7638,11.7869,12.0408,12.2408,12.187,12.3178,12.587,13.0333,13.1179,13.2564,13.6026,13.7719,13.8181,13.6873,13.6103,13.5719,13.5719,13.4872,13.4487,13.4487,13.4487,13.4795,13.5488,13.6334,13.6719,13.6565,13.5872,13.4795,13.3256,13.241,13.1872,13.1884,13.1025,13.0102,12.9179,12.8628,12.7486,12.587,12.6717,12.6486,12.5717,12.4716,12.4178,12.387,12.2408,12.1727,12.1574,12.1574,12.1574,12.1574,12.1574,12.0562,11.9177,11.91,11.7407,11.5495,11.5495,11.4407,11.3407,11.4099,11.3791,11.3176,11.3176,11.3714,11.4022,11.3176,11.3407,11.3637,11.2868,11.2626,11.2472,11.2472,11.2472,11.2406,11.1934,11.2165,11.1868,10.9867,10.9867,10.9713,10.8406,10.7328,10.6703,10.6626,10.7328,10.8175,10.9175,10.9867,11.0791,11.1791,11.1098,11.0714,11.0714,10.9867,10.9406,10.9175,10.8406,10.8406,10.9098,10.7636,10.7328,10.8021,10.7328,10.6405,11.4176,11.4868,11.5484,11.7484,11.7407,11.6803,11.7111,11.6407,11.633,11.8407,11.9869,12.11,12.2408,12.4562,12.6486,12.7409,12.8717,13.0794,13.4334,13.5026,13.5565,13.6719,13.6719,13.6565,13.6565,13.5795,13.5334,13.5334,13.5334,13.5411,13.5488,13.6334,13.6488,13.5719,13.5565,13.5411,13.5103,13.3487,13.2808,13.2808,13.1872,13.0718,12.9179,13.0487,13.0102,12.8486,12.8717,12.8332,12.732,12.5794,12.4716,12.4024,12.3024,12.2177,12.1574,12.1574,12.1574,12.1574,12.1574,12.0869,12.0023,11.9331,11.7792,11.6341,11.6341,11.611,11.588,11.6034,11.6034,11.5792,11.5792,11.5495,11.5022,11.4868,11.3868,11.2868,11.2703,11.2175,11.1703,11.1703,11.1703,11.2088,11.3407,11.2472,11.2022,11.3022,11.1483,11.0406,11.0791,10.9483,10.8175,10.7482,10.8175,10.9329,11.0857,11.1175,11.1868,11.3483,11.3407,11.333,11.333,11.2483,11.1703,11.1098,11.0175,10.979,11.0021,10.9713,10.956,10.979,10.956,10.8713,11.4868,11.5869,11.6869,11.8177,11.7176,11.6176,11.7572,11.5792,11.4791,11.7792,11.91,11.9869,12.0793,12.2562,12.4178,12.4562,12.6101,12.8409,13.1795,13.3103,13.418,13.5872,13.6488,13.6796,13.6796,13.6411,13.618,13.618,13.618,13.6026,13.5488,13.5872,13.6103,13.618,13.5334,13.5103,13.5488,13.4334,13.341,13.3038,13.2577,13.1487,12.9871,13.0179,12.9717,12.8486,12.7563,12.7025,12.6486,12.4793,12.387,12.3408,12.2562,12.2024,12.1574,12.1574,12.1574,12.1574,12.1574,12.1023,12.0177,11.9792,11.8561,11.71,11.6561,11.6495,11.6572,11.7023,11.6792,11.6495,11.6495,11.6187,11.5715,11.4791,11.3637,11.2714,11.2714,11.2099,11.1472,11.1472,11.178,11.2165,11.2637,11.2406,11.2329,11.2637,11.1714,11.1021,11.1395,11.0791,10.9867,10.9098,10.9329,11.0098,11.1395,11.2329,11.3099,11.3868,11.4407,11.4484,11.4022,11.3637,11.3176,11.2791,11.2406,11.2175,11.2175,11.1714,11.1329,11.0868,11.0406,10.9483,11.5869,11.71,11.8177,11.8715,11.6869,11.5561,11.8023,11.5715,11.3868,11.7407,11.8638,11.91,11.91,12.0485,12.1804,12.2331,12.4101,12.6486,12.9487,13.1487,13.3333,13.5026,13.618,13.6796,13.6796,13.6796,13.6796,13.6796,13.6796,13.6488,13.5795,13.5795,13.6103,13.6796,13.5488,13.5103,13.5795,13.4795,13.4026,13.3269,13.3115,13.2192,13.0718,13.0025,12.9179,12.8089,12.6563,12.5717,12.5332,12.4024,12.3178,12.2793,12.21,12.1804,12.1574,12.1574,12.1574,12.1574,12.1574,12.1189,12.0485,12.0177,11.9023,11.7715,11.7023,11.6869,11.7176,11.7869,11.7561,11.7111,11.7111,11.6803,11.6099,11.4561,11.3791,11.3176,11.3022,11.2319,11.1791,11.1791,11.2088,11.2406,11.2099,11.2406,11.2637,11.2406,11.2175,11.2088,11.2329,11.2175,11.1791,11.1329,11.0791,11.1021,11.2175,11.3407,11.4176,11.4484,11.5187,11.5176,11.4561,11.4484,11.4484,11.433,11.433,11.4176,11.4022,11.333,11.2714,11.2022,11.1098,11.0329,11.8484,11.8869,11.8792,11.81,11.6022,11.4561,11.633,11.533,11.4868,11.8331,11.9023,11.91,11.91,12.0485,12.142,12.0716,12.3332,12.6024,12.7859,13.0333,13.2487,13.418,13.5795,13.6796,13.6796,13.6796,13.6796,13.6796,13.6796,13.6796,13.6719,13.6719,13.6719,13.6796,13.6719,13.6565,13.6719,13.5103,13.4334,13.418,13.341,13.25,13.1564,13.1487,13.0564,12.9025,12.8102,12.6794,12.5409,12.5178,12.4332,12.287,12.2793,12.2331,12.1574,12.1574,12.1574,12.1574,12.1574,12.1485,12.1177,11.9715,11.8638,11.7792,11.7715,11.8177,11.8869,11.9023,11.8869,11.8869,11.8869,11.7715,11.6341,11.5407,11.5099,11.4791,11.4099,11.3176,11.2637,11.2637,11.2099,11.2099,11.3483,11.3176,11.3176,11.4714,11.433,11.4099,11.4791,11.433,11.4022,11.4802,11.2791,11.2329,11.4714,11.4407,11.4561,11.6187,11.6341,11.6418,11.6341,11.6341,11.5869,11.5187,11.5187,11.4791,11.4022,11.3868,11.3791,11.3714,11.2868,11.2022,11.6561,11.7869,11.9023,11.8715,11.7023,11.5715,11.633,11.5572,11.5385,11.77,11.8273,11.8538,11.8919,11.9592,12.01,12.0331,12.187,12.387,12.6101,12.7332,12.8871,13.1718,13.3026,13.4334,13.5872,13.6026,13.618,13.6796,13.6796,13.6796,13.6796,13.6334,13.6334,13.6796,13.6334,13.6334,13.6796,13.6103,13.5334,13.4334,13.3872,13.3103,13.1718,13.0718,12.9794,12.9102,12.6717,12.5178,12.4486,12.3485,12.2716,12.21,12.21,12.187,12.1574,12.1574,12.1574,12.1574,12.1574,12.1574,12.1497,12.0793,12.0023,11.91,11.81,11.8407,11.91,11.91,11.91,11.9023,11.8484,11.7407,11.6418,11.611,11.5726,11.5176,11.4868,11.4099,11.3483,11.3483,11.3637,11.3791,11.4022,11.4099,11.433,11.4484,11.3791,11.3714,11.5099,11.4099,11.3868,11.5792,11.4176,11.3407,11.4407,11.4714,11.5099,11.5715,11.6176,11.6495,11.6495,11.6495,11.6341,11.6034,11.6034,11.5572,11.4791,11.533,11.5022,11.4022,11.4176,11.3791,11.5022,11.7023,11.8715,11.8715,11.7792,11.6803,11.6341,11.6077,11.6174,11.7004,11.7719,11.8191,11.871,11.8694,11.8919,11.9687,12.0994,12.2531,12.4299,12.5376,12.6913,12.9296,13.0603,13.2076,13.4499,13.5385,13.6103,13.6796,13.6796,13.6796,13.6796,13.618,13.618,13.6796,13.618,13.618,13.6796,13.6488,13.5719,13.4334,13.4026,13.3026,13.1333,12.9871,12.9102,12.8717,12.5717,12.4332,12.4024,12.2562,12.1793,12.1574,12.1574,12.1574,12.1574,12.1574,12.1574,12.1574,12.1574,12.1574,12.1574,12.1343,12.0793,12.01,11.8869,11.9023,11.9408,11.9177,11.8869,11.8484,11.7638,11.7023,11.6572,11.6792,11.6341,11.5715,11.6022,11.5176,11.4484,11.4714,11.4791,11.4868,11.4791,11.511,11.5187,11.4791,11.4176,11.433,11.5495,11.4561,11.4484,11.6341,11.5715,11.5099,11.5099,11.5484,11.5803,11.6022,11.6561,11.6803,11.6495,11.6495,11.6418,11.6099,11.6418,11.611,11.533,11.611,11.588,11.4714,11.5099,11.4791,11.4791,11.6484,11.7792,11.7792,11.7792,11.7407,11.5715,11.647,11.7299,11.6519,11.7575,11.8715,11.8715,11.8025,11.7718,11.8562,12.0786,12.2396,12.2396,12.5324,12.7471,12.7471,12.9005,13.0838,13.2585,13.5191,13.6796,13.6796,13.6796,13.6796,13.6796,13.6796,13.6796,13.6796,13.6796,13.6796,13.6796,13.5872,13.5103,13.4334,13.341,13.2102,13.0487,12.9563,12.8705,12.7782,12.6101,12.487,12.4024,12.3178,12.2408,12.1574,12.1574,12.1574,12.1574,12.1574,12.1574,12.1574,12.1574,12.1574,12.1497,12.0562,12.0331,12.0331,12.0331,12.0331,12.01,11.9331,11.8484,11.7638,11.6715,11.6495,11.6715,11.7638,11.71,11.6715,11.7638,11.6484,11.5484,11.6341,11.5099,11.4484,11.6187,11.5792,11.5572,11.6418,11.6495,11.6495,11.6495,11.6495,11.6495,11.6495,11.733,11.7792,11.7792,11.7023,11.6869,11.7715,11.7792,11.7407,11.6484,11.6495,11.6099,11.533,11.611,11.611,11.533,11.611,11.6495,11.6495,11.5726,11.4791,11.1483,11.3483,11.5099,11.4484,11.5176,11.5561,11.3868,11.5229,11.6572,11.6181,11.6976,11.777,11.7668,11.8039,11.8409,11.8715,12.0313,12.1629,12.1629,12.31,12.461,12.5762,12.9001,13.1615,13.282,13.4692,13.5719,13.5103,13.618,13.6488,13.5872,13.6488,13.6796,13.6796,13.6796,13.6796,13.6796,13.5872,13.5103,13.4334,13.341,13.2102,13.0487,12.9025,12.7871,12.7025,12.4716,12.3485,12.3178,12.2408,12.1793,12.1574,12.1574,12.1574,12.1574,12.1574,12.1574,12.1574,12.1574,12.1574,12.1574,12.1343,12.1177,12.11,12.0485,11.9869,11.9331,11.8484,11.7561,11.6792,11.6572,11.6495,11.6572,11.6792,11.7176,11.7484,11.7704,11.7869,11.8023,11.8177,11.7792,11.7715,11.8177,11.7561,11.71,11.7407,11.6407,11.588,11.6418,11.6034,11.588,11.6418,11.6715,11.6869,11.6869,11.7792,11.7869,11.7023,11.7484,11.7176,11.5715,11.5726,11.533,11.4407,11.5176,11.533,11.4407,11.5792,11.6495,11.6495,11.6792,11.6176,10.956,11.1098,11.2703,11.2967,11.4417,11.5328,11.3888,11.5397,11.681,11.5816,11.6532,11.7234,11.7142,11.7578,11.8332,11.8868,11.994,12.0719,12.1079,12.1706,12.2704,12.4367,12.8182,13.1039,13.1885,13.3769,13.4795,13.4334,13.5488,13.6103,13.5488,13.6334,13.6565,13.6334,13.6565,13.6565,13.6334,13.5795,13.4795,13.3333,13.2487,13.1025,12.9025,12.7563,12.6486,12.5563,12.3716,12.287,0.0,12.2331,12.187,12.1562,12.2024,12.187,12.1574,12.1574,12.1574,12.1574,12.1574,12.1574,12.1574,12.1574,12.142,12.1035,12.01,11.9331,11.8484,11.8023,11.7176,11.6495,11.6495,11.6495,11.6572,11.6869,11.7176,11.7407,11.7715,11.8023,11.8331,11.9023,11.8792,11.8715,11.9023,11.8407,11.7715,11.7407,11.6715,11.6407,11.6869,11.6561,11.6407,11.6869,11.7023,11.6869,11.6484,11.7792,11.81,11.71,11.7792,11.7484,11.5792,11.6099,11.5715,11.4484,11.533,11.5495,11.4868,11.6715,11.733,11.7023,11.7484,11.71,0.0,10.9483,11.0692,11.2801,11.4687,11.5804,11.4816,11.6532,0.0,11.5281,11.5942,11.6919,11.6829,11.6919,11.7377,11.8906,11.9211,11.9725,12.0613,12.0973,12.1895,12.388,12.7003,12.9308,13.0307,13.2718,13.4103,13.4103,13.5026,13.5488,13.5411,13.6334,13.6411,13.5488,13.6334,13.6334,13.5411,13.5411,13.4103,13.1795,13.0871,12.9179,12.6806,12.5794,12.487,12.4024,12.3178,12.2781,12.287,12.287,12.2408,12.1804,12.2639,12.2408,12.1574,12.1574,12.1574,12.1574,12.1574,12.1574,12.1574,12.1485,12.0869,12.0023,11.9177,11.8407,11.7715,11.7627,11.7023,11.6341,11.6418,11.6418,11.6561,11.7484,11.71,11.6792,11.7638,11.7176,11.7188,11.8792,11.8407,11.81,11.9023,11.8407,11.7484,11.6803,11.733,11.7792,11.7869,11.7869,11.7869,11.7869,11.7869,11.7484,11.6726,11.7407,11.7869,11.7715,11.8638,11.8331,11.6495,11.7176,11.6869,11.5176,11.6034,11.6418,11.6495,11.8177,11.8638,11.7715,11.7792,11.7407,10.9098,0.0,11.0,10.9189,11.123,11.3105,0.0,11.3927,11.5587,11.56,11.5789,11.5773,11.5161,11.562,11.5926,11.5696,11.6766,11.7724,11.8011,12.053,12.3714,12.7541,12.8116,12.9283,13.2064,13.232,13.2333,13.2333,13.4334,13.518,13.4564,13.6026,13.6411,13.5488,13.5719,13.5411,13.4564,13.3872,13.3269,13.2731,13.1179,12.9487,12.764,12.6101,12.4562,12.3101,12.2331,12.2331,12.287,12.287,12.2793,12.2639,12.2793,12.2408,12.1574,12.1574,12.1574,12.1574,12.1574,12.1574,12.1497,12.0793,11.9562,11.8407,11.8177,11.7484,11.6715,11.6099,11.533,11.4714,11.5407,11.5572,11.5803,11.6561,11.7176,11.7638,11.7792,11.8177,11.8561,11.9023,11.8869,11.8869,11.91,11.8407,11.8023,11.8407,11.81,11.8011,11.8715,11.8792,11.8792,11.8792,11.8792,11.8407,11.7638,11.8869,11.8869,11.6869,11.8177,11.8023,11.5715,11.5792,11.5407,11.433,11.5099,11.588,11.6495,11.8177,11.8331,11.6792,11.8177,11.8023,11.0175,11.0406,11.0825,11.0801,11.1907,11.3088,11.366,11.3865,11.412,11.4579,11.4603,11.4397,11.4015,11.3991,11.4387,11.548,11.5496,11.6136,11.8205,12.1796,12.5096,12.7067,12.8309,12.9565,13.1102,13.1179,13.1333,13.1718,13.3718,13.4795,13.4334,13.5872,13.618,13.5026,13.4872,13.4487,13.3718,13.2795,13.2179,13.1795,13.0102,12.864,12.7332,12.6024,12.4716,12.3408,12.2562,12.2716,12.3485,12.3485,12.3485,12.3485,12.3485,12.287,12.21,12.1716,12.1574,12.1574,12.1574,12.1331,12.0869,12.0023,11.8561,11.71,11.6792,11.5792,11.4791,11.5176,11.5022,11.4714,11.5187,11.5572,11.611,11.6869,11.7176,11.733,11.7715,11.7869,11.8023,11.8407,11.8792,11.91,11.91,11.9023,11.9023,11.91,11.9023,11.91,11.9562,11.9715,11.9715,11.9715,11.9331,11.8715,11.7869,11.9331,11.9408,11.7176,11.8407,11.8484,11.71,11.6715,11.6176,11.5792,11.6561,11.7407,11.8177,11.9562,11.9408,11.7715,11.8715,11.8177,11.1626,11.1868,11.2429,11.3725,11.4215,11.4691,11.5969,11.4909,11.3609,11.3469,11.3393,11.3227,11.2921,11.2615,11.3176,11.5813,11.5102,11.5583,11.9584,12.3279,12.5723,12.5608,12.8079,12.9808,12.9628,13.0102,13.0871,13.1795,13.341,13.4411,13.4487,13.5795,13.5872,13.4334,13.4026,13.3487,13.2577,13.1872,13.1102,13.0333,12.8717,12.7486,12.6729,12.5794,12.487,12.4101,12.3166,0.0,12.4332,12.4024,12.4101,12.4332,12.4178,12.3639,12.2793,12.21,12.1716,12.1574,12.1408,12.0793,12.0023,11.9177,11.7715,11.6187,11.5726,11.4176,11.3022,11.4561,11.5022,11.4868,11.511,11.5715,11.6484,11.7407,11.7023,11.6715,11.7407,11.7023,11.6803,11.7638,11.8407,11.8869,11.91,11.9715,11.9869,11.9408,11.9869,12.0331,12.0485,12.0485,12.0485,12.0485,11.9869,11.91,11.8331,11.9485,11.9562,11.81,11.8792,11.9177,11.91,11.8331,11.7869,11.8023,11.8638,11.9331,12.01,12.0881,12.0408,11.8869,11.9023,11.8177,11.2319,11.3637,11.4066,11.1384,11.4422,11.7239,11.3783,11.4436,11.5509,11.4819,11.413,11.3133,11.1677,11.237,11.3138,11.2883,11.5089,11.7832,12.0783,12.2507,12.4425,12.7218,12.7911,12.9077,13.1102,13.0794,13.1102,13.2731,13.3718,13.4564,13.5334,13.5565,13.5334,13.4334,13.2872,13.1718,13.0871,13.0794,13.0333,12.941,12.8409,12.7486,12.6729,12.5794,12.487,12.4101,0.0,12.3793,12.5101,12.3716,12.387,12.5101,12.4409,12.3639,12.287,12.2704,12.2177,12.1497,12.0793,12.0023,11.91,11.8331,11.6869,11.5572,11.6099,11.4561,11.2868,11.3868,11.3714,11.333,11.4022,11.4791,11.5715,11.6484,11.6572,11.6484,11.6726,11.6572,11.6803,11.7638,11.7869,11.8177,11.9023,11.9177,11.9485,12.0023,12.0177,12.0562,12.1343,12.142,12.142,12.142,12.1343,12.0881,12.0023,12.0177,11.9869,11.9023,11.9715,11.9792,11.91,11.8331,11.81,11.8869,11.8331,11.8407,11.9331,11.9408,11.9023,11.8023,11.8792,11.8561,11.178,11.4022,11.5165,11.2187,11.4503,11.7122,11.5377,11.4497,11.3807,11.2964,11.2503,11.189,11.0574,11.143,11.2616,11.3684,11.7001,12.007,12.1806,12.3969,12.5979,12.7592,12.822,12.9014,13.0166,13.0025,13.0487,13.2192,13.3103,13.4026,13.4795,13.4872,13.4334,13.2872,13.2102,13.0871,12.9102,12.8717,12.8717,12.9179,12.7871,12.7332,12.7332,12.6486,12.587,12.5486,0.0,12.5024,12.6024,12.4793,12.5024,12.6024,12.4639,12.387,12.3408,12.2485,12.187,12.1485,12.11,12.0177,11.9023,11.81,11.6715,11.533,11.5176,11.433,11.3483,11.3868,11.3714,11.3483,11.3868,11.5022,11.6187,11.7023,11.6792,11.6561,11.71,11.7176,11.733,11.7715,11.8177,11.8792,11.9562,11.9715,12.0023,12.0869,12.1023,12.11,12.1485,12.1574,12.1574,12.1574,12.1574,12.1177,12.0408,12.0716,12.0331,11.8484,11.9177,11.9331,11.8407,11.8484,11.8869,11.9715,11.8869,11.91,12.0408,12.0023,11.9485,11.9177,11.9562,11.9331,11.1791,11.4022,11.5484,11.3714,11.5263,11.7169,11.6997,11.4977,11.2982,11.1984,11.1588,11.1205,11.0437,11.1262,11.3097,11.5932,11.8864,12.1412,12.2765,12.5083,12.6977,12.7695,12.8322,12.8899,12.9474,12.9487,13.0333,13.2179,13.2718,13.35,13.4487,13.418,13.3333,13.1718,13.1333,13.0102,12.7859,12.6871,12.7101,12.8563,12.7101,12.6871,12.7859,12.7332,12.7025,12.6871,12.6101,12.6101,12.6563,12.5486,12.5717,12.6486,12.5024,12.4332,12.387,12.2177,12.1574,12.1485,12.1189,12.0331,11.9177,11.7869,11.6638,11.5495,11.4791,11.433,11.4022,11.4176,11.433,11.433,11.433,11.5407,11.6726,11.733,11.7023,11.6726,11.7407,11.7484,11.7638,11.7792,11.8484,11.9408,12.0177,12.0485,12.0793,12.1497,12.1574,12.1574,12.1574,12.1574,12.1574,12.1574,12.1574,12.1177,12.0408,12.0716,12.01,11.7869,11.8407,11.8638,11.81,11.8715,11.9485,12.0331,11.9485,11.9792,12.1343,12.0408,12.0023,12.0023,12.0177,12.0023,11.3407,11.4022,11.433,11.5022,11.7638,11.9165,11.6077,11.5769,11.5692,11.4077,11.3066,11.2297,11.1528,11.3284,11.5869,11.9072,11.9902,12.1087,12.3603,12.4231,12.5231,12.7615,12.7923,12.8628,13.0179,13.041,13.141,13.3872,13.341,13.3718,13.5334,13.3872,13.2731,13.1718,13.0179,12.8871,12.7859,12.6332,12.6024,12.6883,12.587,12.6332,12.7859,12.7782,12.7782,12.7794,12.7025,12.6563,12.6575,12.487,12.5178,12.6563,12.5717,12.4793,12.387,12.2177,12.1574,12.142,11.9792,11.9715,11.9792,11.7407,11.6484,11.6418,11.6341,11.5176,11.4176,11.5022,11.5176,11.5176,11.5176,11.5792,11.6495,11.6572,11.6484,11.6495,11.6572,11.6572,11.6792,11.7638,11.8484,11.9408,12.0177,12.1035,12.1485,12.1574,12.1574,12.1574,12.1574,12.1574,12.1574,12.1574,12.1574,12.1177,12.0408,11.9715,11.8869,11.7869,11.7869,11.8177,11.9023,11.91,11.9485,12.0331,11.9485,11.9485,12.0408,11.9562,11.9177,11.9177,12.0023,12.0331,11.2633,11.3009,11.3284,11.3973,11.6005,11.747,11.6319,11.6341,11.6319,11.5613,11.4813,11.4407,11.4561,11.4912,11.6316,11.9587,12.061,12.1888,12.4474,12.5794,12.7178,12.9333,12.9487,13.0025,13.1102,13.1179,13.1872,13.341,13.3192,13.3026,13.3103,13.2102,13.0794,12.941,12.8705,12.8025,12.7178,12.6024,12.5794,12.6729,12.5794,12.6332,12.7859,12.7409,12.7717,12.864,12.7332,12.7025,12.7409,12.6178,12.6101,12.6575,12.5101,12.3793,12.2485,12.1793,12.1574,12.1485,12.0881,12.0177,11.9408,11.8407,11.7407,11.6572,11.71,11.6484,11.5715,11.6638,11.6484,11.5869,11.5407,11.633,11.7176,11.6561,11.6869,11.7176,11.6561,11.6869,11.7561,11.8407,11.8869,11.9485,12.0869,12.0869,12.1035,12.1485,12.1574,12.1574,12.1574,12.1574,12.1574,12.1574,12.1574,12.1177,12.0408,11.9562,11.8715,11.7869,11.8331,11.8792,11.91,11.9562,12.0177,12.11,12.0331,12.0331,12.11,12.0331,12.01,12.0716,12.1035,12.11,11.2091,11.2237,11.2306,11.2786,11.4422,11.6028,11.6077,11.6692,11.7108,11.6524,11.5812,11.5473,11.6285,11.6,11.6781,12.0131,12.1385,12.2793,12.5101,12.6794,12.8397,12.9871,13.0102,13.0564,13.2025,13.1884,13.2179,13.3333,13.3192,13.2731,13.2102,13.1102,12.9794,12.8409,12.8012,12.7486,12.6729,12.6101,12.6101,12.6729,12.6101,12.6486,12.7859,12.7563,12.8102,12.9102,12.8025,12.7563,12.7782,12.7025,12.6486,12.6101,12.4716,12.3178,12.2024,12.1727,12.1574,12.1574,12.1343,12.0562,11.9792,11.9023,11.81,11.7407,11.7715,11.7176,11.6726,11.7638,11.7176,11.6418,11.5792,11.6484,11.7176,11.6561,11.7023,11.7176,11.6561,11.7176,11.8023,11.8638,11.91,11.9792,12.1023,12.0869,12.0869,12.1485,12.1574,12.1574,12.1574,12.142,12.1177,12.1177,12.1035,12.0716,12.0331,11.9792,11.91,11.8331,11.9331,11.9485,11.8715,11.9715,12.0562,12.1177,12.0562,12.0562,12.1177,12.0562,12.0562,12.1177,12.1497,12.1574,11.2295,11.1922,11.1341,11.1517,11.3307,11.5106,11.5308,11.7227,11.8487,11.6923,11.5869,11.5527,11.6158,11.6405,11.7604,12.0934,12.2325,12.3485,12.5178,12.6871,12.832,12.9102,12.9179,13.0179,13.2808,13.2179,13.241,13.418,13.3487,13.3038,13.3038,13.141,13.0102,12.9179,12.832,12.7486,12.6729,12.6729,12.6729,12.6729,12.6729,12.7101,12.7859,12.8794,12.9179,12.9179,12.9179,12.8717,12.7782,12.7025,12.6178,12.5332,12.4409,12.3639,12.2793,12.187,12.1574,12.1497,12.0562,12.0869,12.1189,11.8638,11.8407,11.8869,11.81,11.7176,11.6726,11.7638,11.7176,11.6495,11.6495,11.6495,11.6495,11.6495,11.6495,11.6495,11.6495,11.7176,11.7792,11.7792,11.91,12.0331,12.0331,12.1023,12.1574,12.1574,12.1574,12.1574,12.1574,12.0793,12.0331,12.0331,11.9562,11.9408,12.0177,12.0331,12.0023,11.91,12.0716,12.0485,11.7869,11.9408,12.0331,12.0331,12.0331,12.0331,12.0331,12.0331,12.0331,12.0331,12.1177,12.1574,11.2079,11.1193,11.0468,11.1725,11.3123,11.4534,11.5721,11.7623,11.9131,11.9177,11.8877,11.883,11.9107,11.8231,11.8319,12.113,12.2769,12.4332,12.6101,12.9333,13.141,13.1025,13.2487,13.3487,13.3038,13.3333,13.3718,13.4334,13.3487,13.2731,13.2102,13.0487,12.9179,12.832,12.7486,12.6871,12.6729,12.6729,12.6729,12.6729,12.6729,12.7101,12.7859,12.7563,12.8409,13.0025,12.8179,12.8025,12.8717,12.6563,12.5332,12.4409,12.3639,12.2716,12.2024,12.1727,12.1574,12.1574,12.1343,12.1035,12.0485,11.91,11.8484,11.81,11.7869,11.7176,11.6726,11.7638,11.7176,11.6495,11.6495,11.6495,11.6495,11.6495,11.7023,11.7176,11.6561,11.6715,11.7176,11.8484,11.8638,11.91,12.0869,12.0869,12.0869,12.1485,12.1574,12.142,12.0793,12.0485,12.0331,12.0331,12.01,11.9792,11.9485,12.0023,11.9715,11.8331,11.9792,12.0331,11.9562,12.0562,12.1177,12.1177,12.1177,12.1177,12.1177,12.1177,12.1177,12.1177,12.1497,12.1574,11.1209,11.0616,11.0261,11.2014,11.307,11.438,11.6897,11.8504,11.9792,12.0562,12.0196,11.9699,11.9781,11.9023,11.9177,12.1716,12.3793,12.5563,12.7025,13.0179,13.2192,13.1333,13.2872,13.3718,13.3115,13.3487,13.3795,13.3795,13.3256,13.2577,13.1718,13.0102,12.9025,12.8397,12.7332,12.6729,12.6729,12.7025,12.7025,12.6729,12.7025,12.7332,12.7409,12.7563,12.8486,12.9871,12.8409,12.7717,12.7563,12.6024,12.4716,12.3639,12.3101,12.2408,12.1574,12.1574,12.1574,12.1574,12.1574,12.1343,12.0562,11.9485,11.8715,11.8331,11.7869,11.7176,11.6726,11.7638,11.7176,11.6495,11.6495,11.6495,11.6495,11.6495,11.6869,11.71,11.6561,11.6803,11.733,11.8407,11.8407,11.8792,12.0331,12.0177,12.01,12.1035,12.142,12.1343,12.0408,12.0331,12.0177,11.9869,11.9792,11.9562,11.91,11.9792,11.9869,11.8869,12.01,12.0793,12.0793,12.1331,12.1574,12.1574,12.1574,12.1574,12.1574,12.1574,12.1574,12.1574,12.1574,12.1574,10.999,10.999,11.0485,11.2286,11.3626,11.5271,11.8692,12.01,12.0793,12.1497,12.0485,11.9485,11.9485,11.9485,12.0331,12.2704,12.5178,12.7101,12.7859,13.0333,13.1564,13.0718,13.1487,13.2269,13.2808,13.3038,13.3038,13.3038,13.2885,13.2577,13.1884,13.0179,12.9333,12.9179,12.7563,12.6806,12.6729,12.7486,12.7486,12.6729,12.7486,12.7486,12.6806,12.8332,12.9025,12.9025,12.9102,12.7794,12.5409,12.5332,12.4332,12.287,12.2793,12.2331,12.1574,12.1574,12.1574,12.1574,12.1574,12.1574,12.1331,11.9562,11.91,11.8869,11.8023,11.71,11.6726,11.7484,11.71,11.6495,11.6495,11.6572,11.6572,11.6495,11.6495,11.6495,11.6495,11.71,11.7715,11.7792,11.8407,11.8869,11.91,11.91,11.9408,12.0331,12.11,12.1343,12.0331,12.0331,12.0023,11.91,11.91,11.9177,11.91,11.9869,12.0408,12.0331,12.11,12.1574,12.1574,12.1574,12.1574,12.1574,12.1574,12.1574,12.1574,12.1574,12.1574,12.1574,12.1574,12.1574,10.9724,10.9923,11.0616,11.3031,11.6316,11.9527,12.1627,12.2716,12.3024,12.1793,12.2408,12.2793,12.2177,12.2639,12.3408,12.4716,12.6409,12.7859,12.8794,13.1718,13.318,13.1564,13.341,13.4026,13.2179,13.2577,13.3038,13.3038,13.2423,13.2179,13.2731,13.1102,12.9871,12.9179,12.8179,12.7332,12.6729,12.7486,12.7486,12.6729,12.7486,12.7486,12.6729,12.7114,12.7178,12.7332,12.864,12.7794,12.5332,12.4716,12.3793,12.2793,12.21,12.1804,12.1574,12.1574,12.1574,12.1574,12.1574,12.1574,12.1331,11.9562,11.91,11.8792,11.7342,11.6561,11.6484,11.6715,11.6561,11.6495,11.6495,11.7023,11.733,11.6726,11.6495,11.6495,11.6495,11.6561,11.7023,11.7715,11.7407,11.7484,11.8869,11.91,11.9562,12.11,12.1497,12.1112,11.9562,11.9869,11.9715,11.8177,11.9331,11.9792,11.9177,12.0485,12.1023,12.0331,12.11,12.1574,12.1574,12.1574,12.1574,12.1574,12.1574,12.1574,12.1574,12.1574,12.1574,12.1574,12.1574,12.1574,10.8772,11.0035,11.1923,11.4471,11.7977,12.1177,12.21,12.3178,12.4024,12.3485,12.4101,12.4562,12.4178,12.4793,12.5563,12.6486,12.8025,12.941,13.0333,13.2641,13.4026,13.3103,13.4103,13.4411,13.3103,13.3026,13.3038,13.3038,13.2179,13.1872,13.2423,13.1179,13.0333,12.9794,12.9025,12.8332,12.7871,12.8332,12.8102,12.7332,12.7717,12.7486,12.6717,12.7486,12.7717,12.7332,12.8179,12.7101,12.4716,12.387,12.3024,12.2177,12.1804,12.1574,12.1574,12.1574,12.1574,12.1574,12.1574,12.1331,12.0793,11.9485,11.8792,11.8177,11.6869,11.6495,11.6495,11.6495,11.6495,11.6495,11.6495,11.6792,11.71,11.6572,11.6792,11.7023,11.6572,11.6495,11.6561,11.71,11.6792,11.6803,11.7715,11.8484,11.9485,12.0793,12.1035,12.0716,11.9792,12.0023,11.9792,11.8638,11.9177,11.9562,11.91,11.9869,12.0408,12.0331,12.11,12.1574,12.1574,12.1574,12.1574,12.1574,12.1574,12.1574,12.1574,12.1574,12.1574,12.1574,12.1574,12.1574,10.7923,11.022,11.3538,11.6099,11.9331,12.187,12.2024,12.3332,12.4793,12.5486,12.5717,12.5794,12.5794,12.6486,12.7409,12.8409,12.9794,13.1025,13.2025,13.3487,13.4487,13.4334,13.4564,13.4564,13.4334,13.3795,13.3423,13.318,13.2564,13.2102,13.1872,13.141,13.1025,13.0487,12.9871,12.9487,12.9179,12.9333,12.9025,12.8089,12.8012,12.764,12.7191,12.8409,12.8486,12.7717,12.7717,12.6332,12.4024,12.3166,12.2408,12.1574,12.1574,12.1574,12.1574,12.1574,12.1574,12.1574,12.1574,12.1023,12.0177,11.9408,11.8484,11.7638,11.6803,11.6495,11.6484,11.6726,11.6715,11.6803,11.6869,11.6869,11.6869,11.6803,11.733,11.7638,11.6726,11.6495,11.6495,11.6495,11.6561,11.6803,11.6869,11.8331,11.9485,12.0177,12.0331,12.0177,12.01,12.0177,12.0023,11.9177,11.9408,11.9408,11.91,11.9177,11.9562,12.0331,12.1035,12.1408,12.1574,12.1574,12.1574,12.1574,12.1574,12.1574,12.1574,12.1574,12.1574,12.1574,12.1574,12.1574,10.7597,11.0496,11.4284,11.7,12.0177,12.287,12.3639,12.5101,12.6421,12.6486,12.7101,12.764,12.764,12.8332,12.941,13.0871,13.141,13.2102,13.3718,13.4795,13.5103,13.4411,13.5565,13.5872,13.4411,13.4795,13.4872,13.418,13.4026,13.3564,13.2885,13.341,13.2795,13.0564,13.1102,13.0718,12.9179,12.9871,12.9871,12.9025,12.832,12.8166,12.8794,12.832,12.764,12.6883,12.6883,12.5794,12.4024,12.3166,12.2408,12.1574,12.1574,12.1574,12.1574,12.1574,12.1574,12.1574,12.1574,12.1023,12.0177,11.9408,11.8484,11.7638,11.6803,11.6495,11.6726,11.7407,11.7638,11.7792,11.8561,11.8792,11.8561,11.7792,11.7715,11.7638,11.6726,11.6495,11.6495,11.6495,11.71,11.7869,11.8561,11.9485,12.0177,12.0331,12.0331,12.0023,11.9331,11.9869,12.0023,11.9177,12.0408,12.0716,11.9177,11.9715,12.0177,12.0331,12.0408,12.0793,12.1574,12.1574,12.1574,12.1574,12.1574,12.1574,12.1574,12.1574,12.1574,12.1574,12.1574,12.1574,10.9419,11.0979,11.3262,11.6912,12.0023,12.2408,12.3178,12.4716,12.6024,12.6024,12.6563,12.7717,12.9102,13.041,13.1718,13.3026,13.3487,13.4103,13.4872,13.6103,13.6565,13.5795,13.6796,13.7026,13.5795,13.5565,13.5411,13.5026,13.4564,13.4103,13.3718,13.4103,13.3795,13.2718,13.2487,13.2102,13.1333,13.1179,13.0794,12.9871,12.9025,12.8794,12.9179,12.8794,12.8179,12.7332,12.6871,12.6024,12.4716,12.3408,12.2716,12.2331,12.1804,12.1574,12.1574,12.1574,12.1574,12.1574,12.1574,12.0716,11.9562,11.9177,11.8484,11.7638,11.6803,11.7188,11.7869,11.7792,11.8177,11.8638,11.9023,11.8715,11.8331,11.7869,11.7407,11.71,11.7176,11.6792,11.6495,11.6495,11.6792,11.7484,11.8869,11.9408,11.9792,12.0177,11.9869,11.9331,11.8484,11.8715,11.9023,11.91,11.9331,11.9562,11.9792,11.9715,11.9792,12.0331,12.0793,12.1177,12.1574,12.1574,12.1574,12.1574,12.1574,12.1574,12.1574,12.1574,12.1574,12.1574,12.1574,12.1574,10.9626,11.0397,11.1571,11.5527,11.8407,12.0562,12.187,12.3485,12.487,12.5332,12.6101,12.7498,13.0025,13.1718,13.3026,13.4103,13.5026,13.5565,13.5795,13.7103,13.7886,13.718,13.8117,13.8257,13.718,13.6719,13.6334,13.5872,13.5334,13.4795,13.4564,13.4795,13.4564,13.4026,13.3564,13.3026,13.2423,13.1718,13.1102,13.0487,12.9563,12.9179,12.9179,12.9025,12.8486,12.7859,12.7025,12.6178,12.5332,12.3639,12.287,12.2793,12.187,12.1574,12.1574,12.1574,12.1574,12.1574,12.1574,12.0562,11.9408,11.9408,11.8792,11.8023,11.7407,11.81,11.9023,11.8638,11.8869,11.9408,11.9408,11.8792,11.81,11.7869,11.733,11.6869,11.7407,11.733,11.7023,11.6572,11.688,11.7484,11.8561,11.9023,11.9331,11.9869,11.9331,11.8638,11.8177,11.7869,11.8177,11.9331,11.8792,11.8869,12.0177,11.9715,11.9715,12.0331,12.0869,12.142,12.1574,12.1574,12.1574,12.1574,12.1574,12.1574,12.1574,12.1574,12.1574,12.1574,12.1574,12.1574,10.6374,10.7706,10.9497,11.2297,11.4868,11.7407,11.9869,12.1793,12.3485,12.5101,12.6101,12.7498,13.0025,13.1179,13.2333,13.4026,13.5026,13.5795,13.6565,13.7488,13.8117,13.804,13.9488,13.9796,13.8194,13.8719,13.8411,13.6873,13.6719,13.6334,13.5488,13.618,13.5565,13.3115,13.3795,13.3103,13.0718,13.0564,13.0487,13.0487,12.9563,12.9179,12.9179,12.832,12.7935,12.7859,12.7025,12.6178,12.5332,12.3639,12.287,12.2793,12.187,12.1574,12.1574,12.1574,12.1574,12.1574,12.1574,12.1023,12.0177,12.0177,11.9715,11.9023,11.9023,11.9023,11.9177,12.0023,12.0177,12.0177,12.0177,11.9562,11.8792,11.8023,11.7792,11.7484,11.6715,11.7792,11.8484,11.6803,11.7792,11.8715,11.8023,11.8638,11.91,11.9177,11.8407,11.81,11.8869,11.8331,11.8407,12.01,12.0177,12.0177,12.0331,12.0331,12.0331,12.0331,12.0331,12.0716,12.1574,12.1574,12.1574,12.1574,12.1574,12.1574,12.1574,12.1574,12.1574,12.1574,12.1574,12.1574,10.599,10.6707,10.8037,11.1835,11.3791,11.5407,11.7407,11.9177,12.0639,12.1177,12.287,12.487,12.6871,12.9717,13.241,13.4718,13.5334,13.6026,13.7411,13.8796,13.9488,13.8873,14.0412,14.0566,13.8271,13.8411,13.8257,13.7732,13.7103,13.6873,13.7193,13.6873,13.6103,13.4718,13.4411,13.3103,13.0487,13.0487,13.0179,12.9717,12.9871,12.9717,12.9179,13.0025,12.9794,12.8717,12.8409,12.7486,12.6101,12.5024,12.4178,12.3639,12.2793,12.21,12.1574,12.1574,12.1574,12.1574,12.1574,12.1023,12.0331,12.0331,12.01,11.9792,11.9331,11.9869,12.0562,12.0408,12.0716,12.11,12.11,12.0485,11.9715,11.8792,11.9023,11.9177,11.8331,11.8715,11.8715,11.7561,11.7792,11.8177,11.7869,11.81,11.8331,11.8331,11.8023,11.7715,11.7484,11.7638,11.8177,11.9408,11.9485,12.0023,12.1023,12.0562,12.0485,12.11,12.11,12.1343,12.1574,12.1574,12.1574,12.1574,12.1574,12.1574,12.1574,12.1574,12.1574,12.1574,12.1574,12.1574,10.5231,10.5738,10.6927,11.1231,11.2483,11.3407,11.588,11.7407,11.8407,11.9023,12.11,12.3408,12.5101,12.8409,13.1718,13.418,13.5103,13.6103,13.7886,13.9488,14.0412,13.9796,14.1489,14.172,13.9181,13.9181,13.904,13.8194,13.7578,13.7411,13.7565,13.7103,13.6411,13.5488,13.418,13.2872,13.1795,13.0564,12.9871,12.964,12.964,12.9333,12.8794,12.9871,12.9794,12.8794,12.8794,12.8102,12.7025,12.587,12.5101,12.4486,12.3639,12.2793,12.2024,12.2024,12.187,12.1574,12.1574,12.1177,12.0716,12.0716,12.0716,12.0562,12.01,12.0716,12.1497,12.0869,12.1189,12.1485,12.1177,12.0485,11.9792,11.9562,11.9869,12.0177,11.9562,11.9715,11.9485,11.81,11.8011,11.81,11.7869,11.7638,11.7715,11.8484,11.8177,11.7792,11.7792,11.8023,11.8638,11.9408,11.9485,12.01,12.1497,12.11,12.1023,12.1574,12.1574,12.1574,12.1574,12.1574,12.1574,12.1574,12.1574,12.1574,12.1574,12.1574,12.1574,12.1574,12.1574,12.1574,0.0,0.0,0.0,11.0318,11.0791,11.134,11.5418,11.6341,11.6803,11.8561,12.1023,12.3178,12.5024,12.7409,13.0025,13.25,13.4411,13.6103,13.7886,13.9565,14.0566,14.0566,14.2874,14.3412,14.0796,14.1335,14.0796,13.8271,13.8117,13.7732,13.6873,13.6796,13.6411,13.5488,13.3103,13.2564,13.418,13.0871,12.964,13.041,12.8717,12.7859,12.7859,12.7935,12.8012,12.7935,12.7935,12.7935,12.7782,12.6101,12.5409,12.5332,12.4409,12.3639,12.287,12.287,12.2331,12.1574,12.1574,12.1574,12.1574,12.1574,12.1574,12.1574,12.1574,12.1574,12.1574,12.1574,12.1574,12.142,12.0562,11.9792,11.9408,12.0177,12.0331,12.0331,12.0331,12.1023,12.0881,11.8331,11.8484,11.8869,11.8023,11.71,11.7407,11.9869,11.8869,11.8407,12.01,11.9562,11.9408,12.0177,12.0331,12.0716,12.1485,12.1574,12.1574,12.1574,12.1574,12.1574,12.1574,12.1574,12.1574,12.1574,12.1574,12.1574,12.1574,12.1574,12.1574,12.1574,12.1574,12.1574,10.2635,0.0,0.0,0.0,0.0,0.0,11.1725,11.1868,11.2802,11.5715,11.7407,11.9408,12.287,12.5717,12.8179,13.0794,13.3103,13.5642,13.8565,14.0489,14.1489,14.1489,14.3181,14.3181,14.0027,13.9873,13.9488,13.8194,13.7488,13.7257,13.7732,13.6488,13.5719,13.5488,13.4334,13.318,13.241,13.0871,12.964,12.864,12.8089,12.764,12.7101,12.8871,12.941,12.8794,12.8794,12.8794,12.8717,12.7025,12.6024,12.5332,12.4409,12.3639,12.2793,12.2177,12.1793,12.1574,12.1574,12.1574,12.1574,12.1574,12.1574,12.1574,12.1574,12.1574,12.1574,12.1574,12.1574,12.1485,12.1343,12.11,12.1035,12.1177,12.1177,12.1177,12.1177,12.142,12.1023,11.91,11.9408,11.9715,11.8869,11.8484,11.8561,11.9331,11.9023,11.8869,11.9408,11.9715,12.01,12.0331,12.0869,12.1331,12.1574,12.1574,12.1574,12.1574,12.1574,12.1574,12.1574,12.1574,12.1574,12.1574,12.1574,12.1574,12.1574,12.1574,12.1574,12.1574,12.1574,12.1574,10.2327,10.3328,10.4713,10.7328,0.0,0.0,11.0868,11.1021,11.1329,11.333,11.5176,11.7407,12.0177,12.3716,12.6806,12.8563,13.1564,13.4795,13.7796,13.9719,14.1027,14.1335,14.2489,14.2412,14.0104,13.9796,13.9412,13.8194,13.7565,13.7411,13.7488,13.6565,13.6026,13.6026,13.518,13.4334,13.3333,13.141,13.0025,12.9025,12.7871,12.7486,12.7794,12.8871,12.9487,12.9717,12.941,12.9179,12.9102,12.8102,12.7025,12.587,12.5409,12.4486,12.3332,12.2793,12.2177,12.1574,12.1574,12.1574,12.1574,12.1574,12.1574,12.1574,12.1574,12.1574,12.1574,12.1574,12.1574,12.1574,12.1574,12.1574,12.1574,12.1574,12.1574,12.1497,12.11,12.1331,12.1177,11.9869,12.0023,12.0177,11.9715,11.9331,11.9331,12.0023,11.9792,11.9715,12.01,12.0562,12.0793,12.0793,12.1343,12.1574,12.1574,12.1574,12.1574,12.1574,12.1574,12.1574,12.1574,12.1574,12.1574,12.1574,12.1574,12.1574,12.1574,12.1574,12.1574,12.1574,12.1574,12.1574,10.2712,10.2789,10.402,10.8559,10.879,0.0,11.178,11.1934,11.1472,11.2088,11.4407,11.6715,11.8023,12.2024,12.5409,12.619,12.9807,13.3487,13.6334,13.8181,13.9642,14.0412,14.1181,14.1412,14.0412,14.0335,13.9719,13.8117,13.804,13.7565,13.6796,13.6796,13.6796,13.6719,13.6026,13.5488,13.518,13.2333,13.0718,13.0487,12.8025,12.7717,12.9179,12.8486,12.9102,13.0564,12.9794,12.9487,12.9487,12.9333,12.8332,12.6794,12.6717,12.5717,12.4178,12.4101,12.3178,12.187,12.187,12.187,12.187,12.187,12.1793,12.1716,12.1716,12.1727,12.1574,12.1574,12.1574,12.1574,12.1574,12.1574,12.1574,12.1574,12.1574,12.142,12.0562,12.11,12.142,12.0562,12.0408,12.0408,12.0408,11.9869,11.9869,12.142,12.0869,12.0716,12.1497,12.1574,12.1574,12.1574,12.1574,12.1574,12.1574,12.1574,12.1574,12.1574,12.1574,12.1574,12.1574,12.1574,12.1574,12.1574,12.1574,12.1574,12.1574,12.1574,12.1574,12.1574,12.1574,12.1574,10.3097,10.4097,10.502,10.6713,10.7867,0.0,11.1329,11.1098,11.156,11.5715,11.6022,11.6561,12.0177,12.2177,12.3408,12.3639,12.7178,13.1333,13.518,13.7796,13.9412,13.9475,14.0335,14.0335,13.8719,13.8565,13.8181,13.7103,13.7103,13.7026,13.6796,13.6796,13.6488,13.5795,13.6334,13.5565,13.35,13.2795,13.1795,13.0487,12.864,12.8179,12.9179,12.9794,13.0487,13.1487,13.1333,13.1179,13.1102,12.9794,12.864,12.764,12.7025,12.6101,12.5101,12.4409,12.387,12.3562,12.3562,12.3562,12.3562,12.3562,12.3178,12.2639,12.2639,12.2177,12.1574,12.1574,12.1574,12.1574,12.1574,12.1574,12.1574,12.1574,12.1574,12.1574,12.142,12.1497,12.1485,12.142,12.1331,12.1331,12.1331,12.1177,12.1177,12.1574,12.1497,12.142,12.1574,12.1574,12.1574,12.1574,12.1574,12.1574,12.1574,12.1574,12.1574,12.1574,12.1574,12.1574,12.1574,12.1574,12.1574,12.1574,12.1574,12.1574,12.1574,12.1574,12.1574,12.1574,12.1574,12.1574,10.302,10.3866,10.4713,10.5482,10.7021,0.0,0.0,11.0483,11.1329,11.3022,11.4407,11.5715,11.6869,12.0023,12.2331,12.2331,12.5486,12.9025,13.1872,13.4564,13.6488,13.7334,13.7411,13.7488,13.7501,13.7103,13.6796,13.6796,13.6411,13.618,13.618,13.5795,13.5488,13.5488,13.5872,13.5488,13.4257,13.3795,13.3026,13.1718,13.0025,12.964,13.041,13.0025,13.0487,13.1718,13.1333,13.1333,13.1564,13.041,12.9333,12.8486,12.764,12.6794,12.6024,12.5563,12.4793,12.4178,12.4639,12.4486,12.4024,12.3639,12.3485,12.3332,12.2485,12.187,12.1574,12.1574,12.1574,12.1574,12.1574,12.1574,12.1574,12.1574,12.1574,12.1574,12.1574,12.1574,12.1574,12.1574,12.1574,12.1574,12.1574,12.1574,12.1574,12.1574,12.1574,12.1574,12.1574,12.1574,12.1574,12.1574,12.1574,12.1574,12.1574,12.1574,12.1574,12.1574,12.1574,12.1574,12.1574,12.1574,12.1574,12.1574,12.1574,12.1574,12.1574,12.1189,12.1035,12.1035,12.1035,12.1035,10.3866,10.4174,10.4866,10.579,10.7021,10.8175,0.0,0.0,0.0,11.0637,11.3099,11.5099,11.3714,11.7561,12.1112,12.0869,12.3882,12.6717,12.8025,13.0102,13.241,13.4679,13.4077,13.4167,13.591,13.5218,13.5231,13.6488,13.5615,13.5077,13.5334,13.4718,13.4564,13.518,13.5411,13.5411,13.5334,13.4795,13.4103,13.318,13.1718,13.141,13.2179,13.0794,13.0871,13.2179,13.1487,13.1487,13.1872,13.1102,13.0333,12.9563,12.8409,12.7409,12.6729,12.6729,12.5794,12.4716,12.5409,12.5178,12.4486,12.3793,12.3793,12.3793,12.21,12.1574,12.1574,12.1574,12.1574,12.1574,12.1574,12.1574,12.1574,12.1574,12.1574,12.1574,12.1574,12.1574,12.1574,12.1574,12.1574,12.1574,12.1574,12.1574,12.1574,12.1574,12.1574,12.1574,12.1574,12.1574,12.1574,12.1574,12.1574,12.1574,12.1574,12.1574,12.1574,12.1574,12.1574,12.1574,12.1574,12.1574,12.1574,12.1574,12.1574,12.1485,12.1331,12.0562,12.0331,12.0331,12.0331,12.0331,10.7636,10.7713,10.7636,10.9175,10.9175,10.9406,11.1714,0.0,11.4099,11.5418,0.0,11.6341,11.6099,0.0,0.0,11.8407,12.1716,12.4486,12.4716,12.5563,12.7988,13.2626,13.1795,13.1513,13.3087,13.2472,13.2986,13.5475,13.4062,13.3511,13.4398,13.4334,13.4334,13.4411,13.5103,13.518,13.4411,13.5103,13.5026,13.4103,13.318,13.318,13.4026,13.3795,13.3795,13.4026,13.3872,13.3487,13.2808,13.1872,13.1487,13.1179,12.8782,12.7409,12.6729,12.6729,12.6575,12.6409,12.6486,12.6486,12.6421,12.6332,12.5332,12.3793,12.21,12.1574,12.1574,12.1574,12.1574,12.1574,12.1574,12.1574,12.1574,12.1574,12.1574,12.1574,12.1574,12.1574,12.1574,12.1574,12.1574,12.1574,12.1574,12.1574,12.1574,12.1574,12.1574,12.1574,12.1574,12.1574,12.1574,12.1574,12.1574,12.1574,12.1574,12.1574,12.1574,12.1574,12.1574,12.1574,12.1574,12.1574,12.1574,12.1574,12.1574,12.1177,12.0408,12.0331,12.0331,12.0331,12.0331,12.0331,10.7175,10.8329,10.9021,10.8175,10.9175,11.0714,11.1791,0.0,11.333,11.3483,0.0,0.0,0.0,0.0,0.0,0.0,12.0869,12.2793,12.3332,12.4105,12.5735,12.8834,12.8118,12.79,12.9001,12.9283,13.0116,13.1705,13.1128,13.1269,13.2718,13.2795,13.3487,13.4872,13.4872,13.5103,13.5719,13.6103,13.6103,13.5719,13.4872,13.4411,13.4334,13.3333,13.2795,13.2795,13.2795,13.2564,13.2179,13.1884,13.141,13.0794,12.9333,12.8409,12.8102,12.7563,12.7101,12.6806,12.7178,12.7101,12.6563,12.6101,12.4793,12.3332,12.2562,12.2024,12.1574,12.1574,12.1574,12.1574,12.1574,12.1574,12.1574,12.1574,12.1574,12.1574,12.1574,12.1574,12.1574,12.1574,12.1574,12.1574,12.1574,12.1574,12.1574,12.1574,12.1574,12.1574,12.1574,12.1574,12.1574,12.1574,12.1574,12.1574,12.1574,12.1574,12.1574,12.1574,12.1574,12.1574,12.1574,12.1574,12.1574,12.1574,12.1574,12.142,12.11,12.0485,12.0331,12.0331,12.0331,12.0331,10.6713,0.0,0.0,0.0,0.0,0.0,0.0,0.0,0.0,0.0,0.0,0.0,0.0,0.0,11.91,11.91,0.0,12.1716,12.21,12.2632,12.3623,12.548,12.5365,12.5582,12.7016,12.6863,12.7387,12.8962,12.827,12.8603,13.0564,13.0871,13.2179,13.4718,13.4487,13.5103,13.6796,13.6796,13.6796,13.6796,13.618,13.5565,13.4872,13.3718,13.3026,13.2718,13.2718,13.2487,13.2115,13.2115,13.1564,13.0718,12.9871,12.941,12.9102,12.8166,12.7409,12.6806,12.7409,12.7025,12.6178,12.5563,12.4332,12.287,12.287,12.2331,12.1574,12.1574,12.1574,12.1574,12.1574,12.1574,12.1574,12.1574,12.1574,12.1574,12.1574,12.1574,12.1574,12.1574,12.1574,12.1574,12.1574,12.1574,12.1574,12.1574,12.1574,12.1574,12.1574,12.1574,12.1574,12.1574,12.1574,12.1574,12.1574,12.1574,12.1574,12.1574,12.1574,12.1574,12.1574,12.1574,12.1574,12.1574,12.1574,12.1497,12.1177,12.0793,12.0485,12.0331,12.0331,12.0331,0.0,0.0,0.0,10.9867,0.0,0.0,0.0,0.0,11.3176,0.0,0.0,0.0,0.0,0.0,11.91,11.91,12.0485,0.0,0.0,12.0408,12.1313,12.3522,12.4423,12.5775,12.8532,12.5784,12.53,12.8668,12.5902,12.5197,12.7935,12.8794,13.041,13.3038,13.3872,13.5103,13.6796,13.6796,13.6796,13.6796,13.6796,13.6719,13.6719,13.6719,13.618,13.5411,13.5411,13.4487,13.3038,13.3038,13.241,13.1564,13.0794,12.9871,12.9102,12.8166,12.7409,12.6729,12.6717,12.6178,12.5409,12.5409,12.4332,12.287,12.287,12.2331,12.1574,12.1574,12.1574,12.1574,12.1574,12.1574,12.1574,12.1574,12.1574,12.1574,12.1574,12.1574,12.1574,12.1574,12.1574,12.1574,12.1574,12.1574,12.1574,12.1574,12.1574,12.1574,12.1574,12.1574,12.1574,12.1574,12.1574,12.1574,12.1574,12.1574,12.1574,12.1574,12.1574,12.1574,12.1574,12.1574,12.1574,12.1574,12.1574,12.1177,12.0331,12.1189,12.11,12.0331,12.0331,12.0331,0.0,0.0,11.1868,11.0483,0.0,0.0,0.0,0.0,0.0,0.0,0.0,0.0,0.0,0.0,11.9715,11.9177,12.0485,12.11,0.0,11.8883,11.9327,12.1589,12.2135,12.2594,12.3567,12.2192,12.2089,12.3828,12.2366,12.2899,12.6101,12.7101,12.8717,13.1256,13.2718,13.4026,13.5103,13.5719,13.5872,13.5872,13.5872,13.5719,13.518,13.5719,13.5488,13.4718,13.5334,13.4872,13.3872,13.3872,13.3333,13.25,13.1564,13.041,12.9102,12.8166,12.7409,12.6729,12.6729,12.6486,12.6101,12.487,12.4486,12.4178,12.2562,12.2177,12.2331,12.1804,12.1574,12.1574,12.1574,12.1574,12.1574,12.1574,12.1574,12.1574,12.1574,12.1574,12.1574,12.1574,12.1574,12.1574,12.1574,12.1574,12.1574,12.1574,12.1574,12.1574,12.1574,12.1574,12.1574,12.1574,12.1574,12.1574,12.1574,12.1574,12.1574,12.1574,12.1574,12.1574,12.1574,12.1574,12.1574,12.1574,12.1574,12.1497,12.1189,12.1497,12.1408,12.1189,12.1189,12.1189,10.9021,11.0714,0.0,11.1406,11.2329,0.0,11.3176,0.0,0.0,0.0,0.0,0.0,0.0,0.0,0.0,0.0,0.0,0.0,0.0,11.7369,11.7668,11.9901,12.0599,12.0905,12.1022,12.0581,12.0414,12.0513,11.9829,12.0515,12.3024,12.4562,12.6486,12.9102,13.1102,13.2718,13.3795,13.4718,13.5103,13.5103,13.5411,13.518,13.4795,13.5565,13.5719,13.518,13.5411,13.5026,13.4334,13.4026,13.3333,13.25,13.1872,13.0871,12.9563,12.8717,12.7717,12.6729,12.6729,12.6486,12.6101,12.5332,12.5024,12.4562,12.3024,12.2716,12.2716,12.1793,12.1574,12.1574,12.1574,12.1574,12.1574,12.1574,12.1574,12.1574,12.1574,12.1574,12.1574,12.1574,12.1574,12.1574,12.1574,12.1574,12.1574,12.1574,12.1574,12.1574,12.1574,12.1574,12.1574,12.1574,12.1574,12.1574,12.1574,12.1574,12.1574,12.1574,12.1574,12.1574,12.1574,12.1574,12.1574,12.1574,12.1574,12.1574,12.1574,12.1574,12.1574,12.1574,12.1574,12.1574]}]]